[[{"header":{"parameterUnit":"m.s-1","parameterCategory":1,"la1":31.0,"la2":29.5877,"lo1":-88.7671,"lo2":-86.6584,"dy":0.0162,"dx":0.0185,"nx":115,"ny":88,"refTime":"2023-10-11T06:00:00:Z","depth":0,"parameterNumber":2,"parameterNumberName":"U-component_of_WINDS"},"data":[0.0,0.0,0.0,0.0,0.0,0.0,0.0,0.0,0.0,0.0,0.0,0.0,0.0,0.0,0.0,0.0,0.0,0.0,0.0,0.0,0.0,0.0,0.0,0.0,0.0,0.0,0.0,0.0,0.0,0.0,0.0,0.0,0.0,0.0,0.0,0.0,0.0,0.0,0.0,0.0,0.0,0.0,0.0,0.0,0.0,0.0,0.0,0.0,0.0,0.0,0.0,0.0,0.0,0.0,0.0,0.0,0.0,0.0,0.0,0.0,0.0,0.0,0.0,0.0,0.0,0.0,0.0,0.0,0.0,0.0,0.0,0.0,0.0,0.0,0.0,0.0,0.0,0.0,0.0,0.0,0.0,0.0,0.0,0.0,0.0,0.0,0.0,0.0,0.0,0.0,0.0,0.0,0.0,0.0,0.0,0.0,0.0,0.0,0.0,0.0,0.0,0.0,0.0,0.0,0.0,0.0,0.0,0.0,0.0,0.0,0.0,0.0,0.0,0.0,0.0,0.0,0.0,0.0,0.0,0.0,0.0,0.0,0.0,0.0,0.0,0.0,0.0,0.0,0.0,0.0,0.0,0.0,0.0,0.0,0.0,0.0,0.0,0.0,0.0,0.0,0.0,0.0,0.0,0.0,0.0,0.0,0.0,0.0,0.0,0.0,0.0,0.0,0.0,0.0,0.0,0.0,0.0,0.0,0.0,0.0,0.0,0.0,0.0,0.0,0.0,0.0,0.0,0.0,0.0,0.0,0.0,0.0,0.0,0.0,0.0,0.0,0.0,0.0,0.0,0.0,0.0,0.0,0.0,0.0,0.0,0.0,0.0,0.0,0.0,0.0,0.0,0.0,0.0,0.0,0.0,0.0,0.0,0.0,0.0,0.0,0.0,0.0,0.0,0.0,0.0,0.0,0.0,0.0,0.0,0.0,0.0,0.0,0.0,0.0,0.0,0.0,0.0,0.0,0.0,0.0,0.0,0.0,0.0,0.0,0.0,0.0,0.0,0.0,0.0,0.0,0.0,0.0,0.0,0.0,0.0,0.0,0.0,0.0,0.0,0.0,0.0,0.0,0.0,0.0,0.0,0.0,0.0,0.0,0.0,0.0,0.0,0.0,0.0,0.0,0.0,0.0,0.0,0.0,0.0,0.0,0.0,0.0,0.0,0.0,0.0,0.0,0.0,0.0,0.0,0.0,0.0,0.0,0.0,0.0,0.0,0.0,0.0,0.0,0.0,0.0,0.0,0.0,0.0,0.0,0.0,0.0,0.0,0.0,0.0,0.0,0.0,0.0,0.0,0.0,0.0,0.0,0.0,0.0,0.0,0.0,0.0,0.0,0.0,0.0,0.0,0.0,0.0,0.0,0.0,0.0,0.0,0.0,0.0,0.0,0.0,0.0,0.0,0.0,0.0,0.0,0.0,0.0,0.0,0.0,0.0,0.0,0.0,0.0,0.0,0.0,0.0,0.0,0.0,0.0,0.0,0.0,0.0,0.0,0.0,0.0,0.0,0.0,0.0,0.0,0.0,0.0,0.0,0.0,0.0,0.0,0.0,0.0,0.0,0.0,0.0,0.0,0.0,0.0,0.0,0.0,0.0,0.0,0.0,0.0,0.0,0.0,0.0,0.0,0.0,0.0,0.0,0.0,0.0,0.0,0.0,0.0,0.0,0.0,0.0,0.0,0.0,0.0,0.0,0.0,0.0,0.0,0.0,0.0,0.0,0.0,0.0,0.0,0.0,0.0,0.0,0.0,0.0,0.0,0.0,0.0,0.0,0.0,0.0,0.0,0.0,0.0,0.0,0.0,0.0,0.0,0.0,0.0,0.0,0.0,0.0,0.0,0.0,0.0,0.0,0.0,0.0,0.0,0.0,0.0,0.0,0.0,0.0,0.0,0.0,0.0,0.0,0.0,0.0,0.0,0.0,0.0,0.0,0.0,0.0,0.0,0.0,0.0,0.0,0.0,0.0,0.0,0.0,0.0,0.0,0.0,0.0,0.0,0.0,0.0,0.0,0.0,0.0,0.0,0.0,0.0,0.0,0.0,0.0,0.0,0.0,0.0,0.0,0.0,0.0,0.0,0.0,0.0,0.0,0.0,0.0,0.0,0.0,0.0,0.0,0.0,0.0,0.0,0.0,0.0,0.0,0.0,0.0,0.0,0.0,0.0,0.0,0.0,0.0,0.0,0.0,0.0,0.0,0.0,0.0,0.0,0.0,0.0,0.0,0.0,0.0,0.0,0.0,0.0,0.0,0.0,0.0,0.0,0.0,0.0,0.0,0.0,0.0,0.0,0.0,0.0,0.0,0.0,0.0,0.0,0.0,0.0,0.0,0.0,0.0,0.0,0.0,0.0,0.0,0.0,0.0,0.0,0.0,0.0,0.0,0.0,0.0,0.0,0.0,0.0,0.0,0.0,0.0,0.0,0.0,0.0,0.0,0.0,0.0,0.0,0.0,0.0,0.0,0.0,0.0,0.0,0.0,0.0,0.0,0.0,0.0,0.0,0.0,0.0,0.0,0.0,0.0,0.0,0.0,0.0,0.0,0.0,0.0,0.0,0.0,0.0,0.0,0.0,0.0,0.0,0.0,0.0,0.0,0.0,0.0,0.0,0.0,0.0,0.0,0.0,0.0,0.0,0.0,0.0,0.0,0.0,0.0,0.0,0.0,0.0,0.0,0.0,0.0,0.0,0.0,0.0,0.0,0.0,0.0,0.0,0.0,0.0,0.0,0.0,0.0,0.0,0.0,0.0,0.0,0.0,0.0,0.0,0.0,0.0,0.0,0.0,0.0,0.0,0.0,0.0,0.0,0.0,0.0,0.0,0.0,0.0,0.0,0.0,0.0,0.0,0.0,0.0,0.0,0.0,0.0,0.0,0.0,0.0,0.0,0.0,0.0,0.0,0.0,0.0,0.0,0.0,0.0,0.0,0.0,0.0,0.0,0.0,0.0,0.0,0.0,0.0,0.0,0.0,0.0,0.0,0.0,0.0,0.0,0.0,0.0,0.0,0.0,0.0,0.0,0.0,0.0,0.0,0.0,0.0,0.0,0.0,0.0,0.0,0.0,0.0,0.0,0.0,0.0,0.0,0.0,0.0,0.0,0.0,0.0,0.0,0.0,0.0,0.0,0.0,0.0,0.0,0.0,0.0,0.0,0.0,0.0,0.0,0.0,0.0,0.0,0.0,0.0,0.0,0.0,0.0,0.0,0.0,0.0,0.0,0.0,0.0,0.0,0.0,0.0,0.0,0.0,0.0,0.0,0.0,0.0,0.0,0.0,0.0,0.0,0.0,0.0,0.0,0.0,0.0,0.0,0.0,0.0,0.0,0.0,0.0,0.0,0.0,0.0,0.0,0.0,0.0,0.0,0.0,0.0,0.0,0.0,0.0,0.0,0.0,0.0,0.0,0.0,0.0,0.0,0.0,0.0,0.0,0.0,0.0,0.0,0.0,0.0,0.0,0.0,0.0,0.0,0.0,0.0,0.0,0.0,0.0,0.0,0.0,0.0,0.0,0.0,0.0,0.0,0.0,0.0,0.0,0.0,0.0,0.0,0.0,0.0,0.0,0.0,0.0,0.0,0.0,0.0,0.0,0.0,0.0,0.0,0.0,0.0,0.0,0.0,0.0,0.0,0.0,0.0,0.0,0.0,0.0,0.0,0.0,0.0,0.0,0.0,0.0,0.0,0.0,0.0,0.0,0.0,0.0,0.0,0.0,0.0,0.0,0.0,0.0,0.0,0.0,0.0,0.0,0.0,0.0,0.0,0.0,0.0,0.0,0.0,0.0,0.0,0.0,0.0,0.0,0.0,0.0,0.0,0.0,0.0,0.0,0.0,0.0,0.0,0.0,0.0,0.0,0.0,0.0,0.0,0.0,0.0,0.0,0.0,0.0,0.0,0.0,0.0,0.0,0.0,0.0,0.0,0.0,0.0,0.0,0.0,0.0,0.0,0.0,0.0,0.0,0.0,0.0,0.0,0.0,0.0,0.0,0.0,0.0,0.0,0.0,0.0,0.0,0.0,0.0,0.0,0.0,0.0,0.0,0.0,0.0,0.0,0.0,0.0,0.0,0.0,0.0,0.0,0.0,0.0,0.0,0.0,0.0,0.0,0.0,0.0,0.0,0.0,0.0,0.0,0.0,0.0,0.0,0.0,0.0,0.0,0.0,0.0,0.0,0.0,0.0,0.0,0.0,0.0,0.0,0.0,0.0,0.0,0.0,0.0,0.0,0.0,0.0,0.0,0.0,0.0,0.0,0.0,0.0,0.0,0.0,5.2646,0.0,0.0,0.0,0.0,0.0,0.0,0.0,0.0,0.0,0.0,0.0,0.0,0.0,0.0,0.0,0.0,0.0,0.0,0.0,0.0,0.0,0.0,0.0,0.0,0.0,0.0,0.0,0.0,0.0,0.0,0.0,0.0,0.0,0.0,0.0,0.0,0.0,0.0,0.0,0.0,0.0,0.0,0.0,0.0,0.0,0.0,0.0,0.0,0.0,0.0,0.0,0.0,0.0,0.0,0.0,0.0,0.0,0.0,0.0,0.0,0.0,0.0,0.0,0.0,0.0,0.0,0.0,0.0,0.0,0.0,0.0,0.0,0.0,0.0,0.0,0.0,0.0,0.0,0.0,0.0,0.0,0.0,0.0,0.0,0.0,0.0,0.0,0.0,0.0,0.0,0.0,0.0,0.0,0.0,0.0,0.0,0.0,0.0,0.0,0.0,0.0,0.0,0.0,0.0,0.0,0.0,0.0,0.0,0.0,0.0,5.6384,5.6989,5.5004,5.385,5.3612,0.0,0.0,0.0,0.0,0.0,0.0,0.0,0.0,0.0,0.0,0.0,0.0,0.0,0.0,0.0,0.0,0.0,0.0,0.0,0.0,0.0,0.0,0.0,0.0,0.0,0.0,0.0,0.0,0.0,0.0,0.0,0.0,0.0,0.0,0.0,0.0,0.0,0.0,0.0,0.0,0.0,0.0,0.0,0.0,0.0,0.0,0.0,0.0,0.0,0.0,0.0,0.0,0.0,0.0,0.0,0.0,0.0,0.0,0.0,0.0,0.0,0.0,0.0,0.0,0.0,0.0,0.0,0.0,0.0,0.0,0.0,0.0,0.0,0.0,0.0,0.0,0.0,0.0,0.0,0.0,0.0,0.0,0.0,0.0,0.0,0.0,0.0,0.0,0.0,0.0,0.0,0.0,0.0,0.0,0.0,0.0,0.0,0.0,0.0,0.0,0.0,0.0,0.0,0.0,0.0,0.0,0.0,0.0,0.0,0.0,0.0,0.0,5.5718,5.4119,5.3838,0.0,0.0,0.0,0.0,0.0,0.0,0.0,0.0,0.0,0.0,0.0,0.0,0.0,0.0,0.0,0.0,0.0,0.0,0.0,0.0,0.0,0.0,0.0,0.0,0.0,0.0,0.0,0.0,0.0,0.0,0.0,0.0,0.0,0.0,0.0,0.0,0.0,0.0,0.0,0.0,0.0,0.0,0.0,0.0,0.0,0.0,0.0,0.0,0.0,0.0,0.0,0.0,0.0,0.0,0.0,0.0,0.0,0.0,0.0,0.0,0.0,0.0,0.0,0.0,0.0,0.0,0.0,0.0,0.0,0.0,0.0,0.0,0.0,0.0,0.0,0.0,0.0,0.0,0.0,0.0,0.0,0.0,0.0,0.0,0.0,0.0,0.0,0.0,0.0,0.0,0.0,0.0,0.0,0.0,0.0,0.0,0.0,0.0,0.0,0.0,0.0,0.0,0.0,0.0,0.0,0.0,0.0,0.0,0.0,0.0,5.9439,5.8832,5.7682,0.0,5.3635,0.0,0.0,0.0,0.0,0.0,0.0,0.0,0.0,0.0,0.0,0.0,0.0,0.0,0.0,0.0,0.0,0.0,0.0,0.0,0.0,0.0,0.0,0.0,0.0,0.0,0.0,0.0,0.0,0.0,0.0,0.0,0.0,0.0,0.0,0.0,0.0,0.0,0.0,0.0,0.0,0.0,0.0,0.0,0.0,0.0,0.0,0.0,0.0,0.0,0.0,0.0,0.0,0.0,0.0,0.0,0.0,0.0,0.0,0.0,0.0,0.0,0.0,0.0,0.0,0.0,0.0,0.0,0.0,0.0,0.0,0.0,0.0,0.0,0.0,0.0,0.0,0.0,0.0,0.0,0.0,0.0,0.0,0.0,0.0,0.0,0.0,0.0,0.0,0.0,0.0,0.0,0.0,0.0,0.0,0.0,0.0,0.0,0.0,0.0,0.0,0.0,0.0,0.0,0.0,0.0,0.0,0.0,0.0,0.0,0.0,6.0145,5.9471,5.7973,5.6025,0.0,0.0,0.0,0.0,0.0,0.0,0.0,0.0,0.0,0.0,0.0,0.0,0.0,0.0,0.0,0.0,0.0,0.0,0.0,0.0,0.0,0.0,0.0,0.0,0.0,0.0,0.0,0.0,0.0,0.0,0.0,0.0,0.0,0.0,0.0,0.0,0.0,0.0,0.0,0.0,0.0,0.0,0.0,0.0,0.0,0.0,0.0,0.0,0.0,0.0,0.0,0.0,0.0,0.0,0.0,0.0,0.0,0.0,0.0,0.0,0.0,0.0,0.0,0.0,0.0,0.0,0.0,0.0,0.0,0.0,0.0,0.0,0.0,0.0,0.0,0.0,0.0,0.0,0.0,0.0,0.0,0.0,0.0,0.0,0.0,0.0,0.0,0.0,0.0,0.0,0.0,0.0,0.0,0.0,0.0,0.0,0.0,0.0,0.0,0.0,0.0,0.0,0.0,0.0,0.0,0.0,0.0,0.0,0.0,0.0,6.0393,6.0137,5.9386,5.8368,5.6555,5.3942,0.0,0.0,0.0,0.0,0.0,0.0,0.0,0.0,0.0,0.0,0.0,0.0,0.0,0.0,0.0,0.0,0.0,0.0,0.0,0.0,0.0,0.0,0.0,0.0,0.0,0.0,0.0,0.0,0.0,0.0,0.0,0.0,0.0,0.0,0.0,0.0,0.0,0.0,0.0,0.0,0.0,0.0,0.0,0.0,0.0,0.0,0.0,0.0,0.0,0.0,0.0,0.0,0.0,0.0,0.0,0.0,0.0,0.0,0.0,0.0,0.0,0.0,0.0,0.0,0.0,0.0,0.0,0.0,0.0,0.0,0.0,0.0,0.0,0.0,0.0,0.0,0.0,0.0,0.0,0.0,0.0,0.0,0.0,0.0,0.0,0.0,0.0,0.0,0.0,0.0,0.0,0.0,0.0,0.0,0.0,0.0,0.0,0.0,0.0,0.0,0.0,0.0,0.0,0.0,0.0,0.0,0.0,0.0,5.9039,5.9532,5.9375,5.8386,5.919,5.8126,0.0,0.0,0.0,0.0,0.0,0.0,0.0,0.0,0.0,0.0,0.0,0.0,0.0,0.0,0.0,0.0,0.0,0.0,0.0,0.0,0.0,0.0,0.0,0.0,0.0,0.0,0.0,0.0,0.0,0.0,0.0,0.0,0.0,0.0,0.0,0.0,0.0,0.0,0.0,0.0,0.0,0.0,0.0,0.0,0.0,0.0,0.0,0.0,0.0,0.0,0.0,0.0,0.0,0.0,0.0,0.0,0.0,0.0,0.0,0.0,0.0,0.0,0.0,0.0,0.0,0.0,0.0,0.0,0.0,0.0,0.0,0.0,0.0,0.0,0.0,0.0,0.0,0.0,0.0,0.0,0.0,0.0,0.0,0.0,0.0,0.0,0.0,0.0,0.0,0.0,0.0,0.0,0.0,0.0,0.0,0.0,0.0,0.0,0.0,0.0,0.0,0.0,0.0,0.0,0.0,0.0,0.0,0.0,0.0,6.1317,6.0763,5.993,5.8882,5.9066,5.7911,0.0,0.0,0.0,0.0,0.0,0.0,0.0,0.0,0.0,0.0,0.0,0.0,0.0,0.0,0.0,0.0,0.0,0.0,0.0,0.0,0.0,0.0,0.0,0.0,0.0,0.0,0.0,0.0,0.0,0.0,0.0,0.0,0.0,0.0,0.0,0.0,0.0,0.0,0.0,0.0,0.0,0.0,0.0,0.0,0.0,0.0,0.0,0.0,0.0,0.0,0.0,0.0,0.0,0.0,0.0,0.0,0.0,0.0,0.0,0.0,0.0,0.0,0.0,0.0,0.0,0.0,0.0,0.0,0.0,0.0,0.0,0.0,0.0,0.0,0.0,0.0,0.0,0.0,0.0,0.0,0.0,0.0,0.0,0.0,0.0,0.0,0.0,0.0,0.0,0.0,0.0,0.0,0.0,0.0,0.0,0.0,0.0,0.0,0.0,0.0,0.0,0.0,0.0,0.0,0.0,0.0,0.0,0.0,0.0,6.1809,0.0,5.9823,5.9402,5.9142,5.8151,0.0,0.0,0.0,0.0,0.0,0.0,0.0,0.0,0.0,0.0,0.0,0.0,0.0,0.0,0.0,0.0,0.0,0.0,0.0,0.0,0.0,0.0,0.0,0.0,0.0,0.0,0.0,0.0,0.0,0.0,0.0,0.0,0.0,0.0,0.0,0.0,0.0,0.0,0.0,0.0,0.0,0.0,0.0,0.0,0.0,0.0,0.0,0.0,0.0,0.0,0.0,0.0,0.0,0.0,0.0,0.0,0.0,0.0,0.0,0.0,0.0,0.0,0.0,0.0,0.0,0.0,0.0,0.0,0.0,0.0,0.0,0.0,0.0,0.0,0.0,0.0,0.0,0.0,0.0,0.0,0.0,0.0,0.0,0.0,0.0,0.0,0.0,0.0,0.0,0.0,0.0,0.0,0.0,0.0,0.0,0.0,0.0,0.0,0.0,0.0,0.0,0.0,0.0,0.0,0.0,0.0,0.0,0.0,6.1818,5.9963,5.9117,5.9003,5.9634,5.955,5.8981,0.0,0.0,0.0,0.0,0.0,0.0,0.0,0.0,0.0,0.0,0.0,0.0,0.0,0.0,0.0,0.0,0.0,0.0,0.0,0.0,0.0,0.0,0.0,0.0,0.0,0.0,0.0,0.0,0.0,0.0,0.0,0.0,0.0,0.0,0.0,0.0,0.0,0.0,0.0,0.0,0.0,0.0,0.0,0.0,0.0,0.0,0.0,0.0,0.0,0.0,0.0,0.0,0.0,0.0,0.0,0.0,0.0,0.0,0.0,0.0,0.0,0.0,0.0,0.0,0.0,0.0,0.0,0.0,0.0,0.0,0.0,0.0,0.0,0.0,0.0,0.0,0.0,0.0,0.0,0.0,0.0,0.0,0.0,0.0,0.0,0.0,0.0,0.0,0.0,0.0,0.0,0.0,0.0,0.0,0.0,0.0,0.0,0.0,0.0,0.0,0.0,0.0,0.0,0.0,0.0,0.0,0.0,0.0,0.0,6.2573,6.0916,6.0418,6.1344,6.0111,5.9152,0.0,0.0,0.0,0.0,0.0,0.0,0.0,0.0,0.0,0.0,0.0,0.0,0.0,0.0,0.0,0.0,0.0,0.0,0.0,0.0,0.0,0.0,0.0,0.0,0.0,0.0,0.0,0.0,0.0,0.0,0.0,0.0,0.0,0.0,0.0,0.0,0.0,0.0,0.0,0.0,0.0,0.0,0.0,0.0,0.0,0.0,0.0,0.0,0.0,0.0,0.0,0.0,0.0,0.0,0.0,0.0,0.0,0.0,0.0,0.0,0.0,0.0,0.0,0.0,0.0,0.0,0.0,0.0,0.0,0.0,0.0,0.0,0.0,0.0,0.0,0.0,0.0,0.0,0.0,0.0,0.0,0.0,0.0,0.0,0.0,0.0,0.0,0.0,0.0,0.0,0.0,0.0,0.0,0.0,0.0,0.0,0.0,0.0,0.0,0.0,0.0,0.0,0.0,0.0,0.0,0.0,0.0,0.0,0.0,6.3265,6.0894,5.9763,6.0206,5.9259,5.8631,5.8243,0.0,0.0,0.0,0.0,0.0,0.0,0.0,0.0,0.0,0.0,0.0,0.0,0.0,0.0,0.0,0.0,0.0,0.0,0.0,0.0,0.0,0.0,0.0,0.0,0.0,0.0,0.0,0.0,0.0,0.0,0.0,0.0,0.0,0.0,0.0,0.0,0.0,0.0,0.0,0.0,0.0,0.0,0.0,0.0,0.0,0.0,0.0,0.0,0.0,0.0,0.0,0.0,0.0,0.0,0.0,0.0,0.0,0.0,0.0,0.0,0.0,0.0,0.0,0.0,0.0,0.0,0.0,0.0,0.0,0.0,0.0,0.0,0.0,0.0,0.0,0.0,0.0,0.0,0.0,0.0,0.0,0.0,0.0,0.0,0.0,0.0,0.0,0.0,0.0,0.0,0.0,0.0,0.0,0.0,0.0,0.0,0.0,0.0,0.0,0.0,0.0,0.0,0.0,0.0,0.0,0.0,0.0,0.0,6.2443,5.9393,5.7594,5.7195,5.753,5.7786,0.0,0.0,0.0,0.0,0.0,0.0,0.0,0.0,0.0,0.0,0.0,0.0,0.0,0.0,0.0,0.0,0.0,0.0,0.0,0.0,0.0,0.0,0.0,0.0,0.0,0.0,0.0,0.0,0.0,0.0,0.0,0.0,0.0,0.0,0.0,0.0,0.0,0.0,0.0,0.0,0.0,0.0,0.0,0.0,0.0,0.0,0.0,0.0,0.0,0.0,0.0,0.0,0.0,0.0,0.0,0.0,0.0,0.0,0.0,0.0,0.0,0.0,0.0,0.0,0.0,0.0,0.0,0.0,0.0,0.0,0.0,0.0,0.0,0.0,0.0,0.0,0.0,0.0,0.0,0.0,0.0,0.0,0.0,0.0,0.0,0.0,0.0,0.0,0.0,0.0,0.0,0.0,0.0,0.0,0.0,0.0,0.0,0.0,0.0,0.0,0.0,0.0,0.0,0.0,0.0,0.0,0.0,0.0,0.0,6.2369,6.0003,5.9016,5.9575,5.8461,5.7705,0.0,0.0,0.0,0.0,0.0,0.0,0.0,0.0,0.0,0.0,0.0,0.0,0.0,0.0,0.0,0.0,0.0,0.0,0.0,0.0,0.0,0.0,0.0,0.0,0.0,0.0,0.0,0.0,0.0,0.0,0.0,0.0,0.0,0.0,0.0,0.0,0.0,0.0,0.0,0.0,0.0,0.0,0.0,0.0,0.0,0.0,0.0,0.0,0.0,0.0,0.0,0.0,0.0,0.0,0.0,0.0,0.0,0.0,0.0,0.0,0.0,0.0,0.0,0.0,0.0,0.0,0.0,0.0,0.0,0.0,0.0,0.0,0.0,0.0,0.0,0.0,0.0,0.0,0.0,0.0,0.0,0.0,0.0,0.0,0.0,0.0,0.0,0.0,0.0,0.0,0.0,0.0,0.0,0.0,0.0,0.0,0.0,0.0,0.0,0.0,0.0,0.0,0.0,0.0,0.0,0.0,0.0,0.0,6.2642,6.2326,6.0362,5.9367,5.9448,5.8786,5.7917,0.0,0.0,0.0,0.0,0.0,0.0,0.0,0.0,0.0,0.0,0.0,0.0,0.0,0.0,0.0,0.0,0.0,0.0,0.0,0.0,0.0,0.0,0.0,0.0,0.0,0.0,0.0,0.0,0.0,0.0,0.0,0.0,0.0,0.0,0.0,0.0,0.0,0.0,0.0,0.0,0.0,0.0,0.0,0.0,0.0,0.0,0.0,0.0,0.0,0.0,0.0,0.0,0.0,0.0,0.0,0.0,0.0,0.0,0.0,0.0,0.0,0.0,0.0,0.0,0.0,0.0,0.0,0.0,0.0,0.0,0.0,0.0,0.0,0.0,0.0,0.0,0.0,0.0,0.0,0.0,0.0,0.0,0.0,0.0,0.0,0.0,0.0,0.0,0.0,0.0,0.0,0.0,0.0,0.0,0.0,0.0,0.0,0.0,0.0,0.0,0.0,0.0,0.0,0.0,0.0,0.0,0.0,0.0,6.3101,6.2611,6.0756,5.9307,5.8228,5.8795,5.8371,0.0,0.0,0.0,0.0,0.0,0.0,0.0,0.0,0.0,0.0,0.0,0.0,0.0,0.0,0.0,0.0,0.0,0.0,0.0,0.0,0.0,0.0,0.0,0.0,0.0,0.0,0.0,0.0,0.0,0.0,0.0,0.0,0.0,0.0,0.0,0.0,0.0,0.0,0.0,0.0,0.0,0.0,0.0,0.0,0.0,0.0,0.0,0.0,0.0,0.0,0.0,0.0,0.0,0.0,0.0,0.0,0.0,0.0,0.0,0.0,0.0,0.0,0.0,0.0,0.0,0.0,0.0,0.0,0.0,0.0,0.0,0.0,0.0,0.0,0.0,0.0,0.0,0.0,0.0,0.0,0.0,0.0,0.0,0.0,0.0,0.0,0.0,0.0,0.0,0.0,0.0,0.0,0.0,0.0,0.0,0.0,0.0,0.0,0.0,0.0,0.0,0.0,0.0,0.0,0.0,0.0,0.0,0.0,6.4273,6.3959,6.2736,6.1366,5.9859,5.9502,5.8304,0.0,0.0,0.0,0.0,0.0,0.0,0.0,0.0,0.0,0.0,0.0,0.0,0.0,0.0,0.0,0.0,0.0,0.0,0.0,0.0,0.0,0.0,0.0,0.0,0.0,0.0,0.0,0.0,0.0,0.0,0.0,0.0,0.0,0.0,0.0,0.0,0.0,0.0,0.0,0.0,0.0,0.0,0.0,0.0,0.0,0.0,0.0,0.0,4.571,0.0,0.0,0.0,0.0,0.0,0.0,0.0,0.0,0.0,0.0,0.0,0.0,0.0,0.0,0.0,0.0,0.0,0.0,0.0,0.0,0.0,0.0,0.0,0.0,0.0,0.0,0.0,0.0,0.0,0.0,0.0,0.0,0.0,0.0,0.0,0.0,0.0,0.0,0.0,0.0,0.0,0.0,0.0,0.0,0.0,0.0,0.0,0.0,0.0,0.0,0.0,0.0,0.0,0.0,0.0,0.0,0.0,0.0,0.0,6.5282,6.4532,6.3695,6.232,6.0362,6.0153,5.9167,0.0,0.0,0.0,0.0,0.0,0.0,0.0,0.0,0.0,0.0,0.0,0.0,0.0,0.0,0.0,0.0,0.0,0.0,0.0,0.0,0.0,0.0,0.0,0.0,0.0,0.0,0.0,0.0,0.0,0.0,0.0,0.0,0.0,0.0,0.0,0.0,0.0,0.0,0.0,0.0,0.0,0.0,0.0,0.0,0.0,0.0,0.0,0.0,0.0,0.0,0.0,0.0,0.0,0.0,0.0,0.0,0.0,0.0,0.0,0.0,0.0,0.0,0.0,0.0,0.0,0.0,0.0,0.0,0.0,0.0,0.0,0.0,0.0,0.0,0.0,0.0,0.0,0.0,0.0,0.0,0.0,0.0,0.0,0.0,0.0,0.0,0.0,0.0,0.0,0.0,0.0,0.0,0.0,0.0,0.0,0.0,0.0,0.0,0.0,0.0,0.0,0.0,0.0,0.0,0.0,0.0,0.0,6.5943,6.5887,6.4572,6.4102,6.2722,6.0512,6.0735,6.0242,5.8865,0.0,0.0,0.0,0.0,0.0,0.0,0.0,0.0,0.0,0.0,0.0,0.0,0.0,0.0,0.0,0.0,0.0,0.0,0.0,0.0,0.0,0.0,0.0,0.0,0.0,0.0,0.0,0.0,0.0,0.0,0.0,0.0,0.0,0.0,0.0,0.0,0.0,0.0,4.7223,4.6674,0.0,0.0,0.0,0.0,0.0,0.0,0.0,0.0,4.4889,0.0,0.0,0.0,0.0,0.0,0.0,0.0,0.0,0.0,0.0,0.0,0.0,0.0,0.0,0.0,0.0,0.0,0.0,0.0,0.0,0.0,0.0,0.0,0.0,0.0,0.0,0.0,0.0,0.0,0.0,0.0,0.0,0.0,0.0,0.0,0.0,0.0,0.0,0.0,0.0,0.0,0.0,0.0,0.0,0.0,0.0,0.0,0.0,0.0,0.0,0.0,0.0,0.0,0.0,0.0,0.0,6.4341,6.5498,6.537,6.3937,6.4244,6.3274,6.1115,6.107,6.0866,6.0275,0.0,0.0,0.0,0.0,0.0,0.0,0.0,0.0,0.0,0.0,0.0,0.0,0.0,0.0,0.0,0.0,0.0,0.0,0.0,0.0,0.0,0.0,0.0,0.0,0.0,0.0,0.0,0.0,0.0,0.0,0.0,0.0,0.0,0.0,0.0,0.0,0.0,0.0,0.0,4.6311,4.6217,0.0,0.0,0.0,0.0,0.0,0.0,0.0,0.0,4.341,0.0,0.0,0.0,0.0,0.0,0.0,0.0,0.0,0.0,0.0,0.0,0.0,0.0,0.0,0.0,0.0,0.0,0.0,0.0,0.0,0.0,0.0,0.0,0.0,0.0,0.0,0.0,0.0,0.0,0.0,0.0,0.0,0.0,0.0,0.0,0.0,0.0,0.0,0.0,0.0,0.0,0.0,0.0,0.0,0.0,0.0,0.0,0.0,0.0,0.0,0.0,0.0,0.0,0.0,0.0,6.4289,6.5382,6.5519,6.4563,6.4731,6.3924,6.2069,6.1736,6.1223,0.0,0.0,0.0,0.0,0.0,0.0,0.0,0.0,0.0,0.0,0.0,0.0,0.0,0.0,0.0,0.0,0.0,0.0,0.0,0.0,0.0,0.0,0.0,0.0,0.0,0.0,0.0,0.0,0.0,0.0,0.0,0.0,0.0,0.0,0.0,0.0,0.0,0.0,0.0,0.0,4.6145,4.6381,4.63,0.0,0.0,0.0,0.0,0.0,0.0,4.4485,4.345,0.0,0.0,0.0,0.0,0.0,0.0,0.0,0.0,0.0,0.0,0.0,0.0,0.0,0.0,0.0,0.0,0.0,0.0,0.0,0.0,0.0,0.0,0.0,0.0,0.0,0.0,0.0,0.0,0.0,0.0,0.0,0.0,0.0,0.0,0.0,0.0,0.0,0.0,0.0,0.0,0.0,0.0,0.0,0.0,0.0,0.0,0.0,0.0,0.0,0.0,0.0,0.0,0.0,0.0,0.0,6.4236,6.545,6.5943,6.5436,6.5318,6.4456,6.2834,6.2509,6.1826,0.0,0.0,0.0,0.0,0.0,0.0,0.0,0.0,0.0,0.0,0.0,0.0,0.0,0.0,0.0,0.0,0.0,0.0,0.0,0.0,0.0,0.0,0.0,0.0,0.0,0.0,0.0,0.0,0.0,0.0,0.0,0.0,0.0,0.0,0.0,0.0,0.0,0.0,0.0,0.0,0.0,4.6838,4.7409,4.699,0.0,0.0,0.0,0.0,4.633,4.5166,0.0,0.0,0.0,0.0,0.0,0.0,0.0,0.0,0.0,0.0,0.0,0.0,0.0,0.0,0.0,0.0,0.0,0.0,0.0,0.0,0.0,0.0,0.0,0.0,0.0,0.0,0.0,0.0,0.0,0.0,0.0,0.0,0.0,0.0,0.0,0.0,0.0,0.0,0.0,0.0,0.0,0.0,0.0,0.0,0.0,0.0,0.0,0.0,0.0,0.0,0.0,0.0,0.0,0.0,0.0,0.0,6.4364,6.5815,6.6351,6.5942,6.5735,6.4715,6.2683,6.3536,6.3031,0.0,0.0,0.0,0.0,0.0,0.0,0.0,0.0,0.0,0.0,0.0,0.0,0.0,0.0,0.0,0.0,0.0,0.0,0.0,0.0,0.0,0.0,0.0,0.0,0.0,0.0,0.0,0.0,0.0,0.0,0.0,0.0,0.0,0.0,0.0,0.0,0.0,0.0,0.0,0.0,0.0,4.8007,4.7594,4.7454,4.6996,0.0,0.0,4.6514,4.612,4.6703,0.0,0.0,0.0,0.0,0.0,0.0,0.0,0.0,0.0,0.0,0.0,0.0,0.0,0.0,0.0,0.0,0.0,0.0,0.0,0.0,0.0,0.0,0.0,0.0,0.0,0.0,0.0,0.0,0.0,0.0,0.0,0.0,0.0,0.0,0.0,0.0,0.0,0.0,0.0,0.0,0.0,0.0,0.0,0.0,0.0,0.0,0.0,0.0,0.0,0.0,0.0,0.0,0.0,0.0,0.0,6.4926,6.5429,6.6021,6.6342,6.653,6.6314,6.5429,6.3754,6.3726,6.3011,0.0,0.0,0.0,0.0,0.0,0.0,0.0,0.0,0.0,0.0,0.0,0.0,0.0,0.0,0.0,0.0,0.0,0.0,0.0,0.0,0.0,0.0,0.0,0.0,0.0,0.0,0.0,0.0,0.0,0.0,0.0,0.0,0.0,0.0,0.0,0.0,0.0,0.0,0.0,0.0,0.0,0.0,4.8531,4.8877,0.0,0.0,0.0,4.8237,4.7784,0.0,0.0,0.0,0.0,0.0,0.0,0.0,0.0,0.0,0.0,0.0,0.0,0.0,0.0,0.0,0.0,0.0,0.0,0.0,0.0,0.0,0.0,0.0,0.0,0.0,0.0,0.0,0.0,0.0,0.0,0.0,0.0,0.0,0.0,0.0,0.0,0.0,0.0,0.0,0.0,0.0,0.0,0.0,0.0,0.0,0.0,0.0,0.0,0.0,0.0,0.0,0.0,0.0,0.0,0.0,0.0,0.0,6.6445,6.6408,6.672,6.7352,6.7027,6.611,6.468,6.3932,0.0,0.0,0.0,0.0,0.0,0.0,0.0,0.0,0.0,0.0,0.0,0.0,0.0,0.0,0.0,0.0,0.0,0.0,0.0,0.0,0.0,0.0,0.0,0.0,0.0,0.0,0.0,4.3863,0.0,0.0,0.0,0.0,0.0,0.0,0.0,0.0,0.0,0.0,0.0,0.0,0.0,0.0,4.9342,4.954,5.024,5.0749,0.0,0.0,4.998,4.9606,4.9438,4.8765,0.0,0.0,0.0,0.0,0.0,0.0,0.0,0.0,0.0,0.0,0.0,0.0,0.0,0.0,0.0,0.0,0.0,0.0,0.0,0.0,0.0,0.0,0.0,0.0,0.0,0.0,0.0,0.0,0.0,0.0,0.0,0.0,0.0,0.0,0.0,0.0,0.0,0.0,0.0,0.0,0.0,0.0,0.0,0.0,0.0,0.0,0.0,0.0,0.0,0.0,0.0,0.0,0.0,0.0,0.0,6.6888,6.7234,6.7673,6.8344,6.7809,6.6686,6.5148,6.4629,6.3774,0.0,0.0,0.0,0.0,0.0,0.0,0.0,0.0,0.0,0.0,0.0,0.0,0.0,0.0,0.0,0.0,0.0,0.0,0.0,0.0,0.0,0.0,0.0,0.0,0.0,0.0,0.0,0.0,0.0,0.0,0.0,0.0,0.0,0.0,0.0,0.0,0.0,0.0,0.0,0.0,0.0,5.0196,5.0234,5.113,5.2044,0.0,0.0,5.1011,5.1011,5.1701,5.1017,4.7515,0.0,0.0,0.0,0.0,0.0,0.0,0.0,0.0,0.0,0.0,0.0,0.0,0.0,0.0,0.0,0.0,0.0,0.0,0.0,0.0,0.0,0.0,0.0,0.0,0.0,0.0,0.0,0.0,0.0,0.0,0.0,0.0,0.0,0.0,0.0,0.0,0.0,0.0,0.0,0.0,0.0,0.0,0.0,0.0,0.0,0.0,0.0,0.0,0.0,0.0,0.0,0.0,0.0,6.5778,6.7588,6.7938,6.8243,6.8512,6.7887,6.6974,6.5739,6.4674,6.37,0.0,0.0,0.0,0.0,0.0,0.0,0.0,0.0,0.0,0.0,0.0,0.0,0.0,0.0,0.0,0.0,0.0,0.0,0.0,0.0,0.0,0.0,0.0,0.0,0.0,0.0,0.0,0.0,4.5134,4.4613,4.4326,0.0,0.0,0.0,0.0,0.0,0.0,0.0,0.0,0.0,0.0,5.1142,5.1958,5.2906,0.0,0.0,5.3472,5.2649,5.2088,5.1617,5.0294,4.761,4.592,0.0,0.0,0.0,0.0,0.0,0.0,0.0,0.0,0.0,0.0,0.0,0.0,0.0,0.0,0.0,0.0,0.0,0.0,0.0,0.0,0.0,0.0,0.0,0.0,0.0,0.0,0.0,0.0,0.0,0.0,0.0,0.0,0.0,0.0,0.0,0.0,0.0,0.0,0.0,0.0,0.0,0.0,0.0,0.0,0.0,0.0,0.0,0.0,0.0,0.0,0.0,0.0,6.6607,6.8516,6.8494,6.8751,6.91,6.826,6.7439,6.6338,6.488,6.3652,0.0,0.0,0.0,0.0,0.0,0.0,0.0,0.0,0.0,0.0,0.0,0.0,0.0,0.0,0.0,0.0,0.0,0.0,0.0,0.0,0.0,0.0,0.0,0.0,0.0,0.0,0.0,0.0,4.5562,4.4939,4.4261,0.0,0.0,0.0,0.0,0.0,0.0,0.0,0.0,0.0,0.0,5.2215,5.3079,5.3883,5.4427,5.4305,5.3703,5.2966,5.204,5.1082,4.9779,4.7845,0.0,0.0,0.0,0.0,0.0,0.0,0.0,0.0,0.0,0.0,0.0,0.0,0.0,0.0,0.0,0.0,0.0,0.0,0.0,0.0,0.0,0.0,0.0,0.0,0.0,0.0,0.0,0.0,0.0,0.0,6.4875,0.0,0.0,0.0,0.0,0.0,0.0,0.0,0.0,0.0,0.0,0.0,0.0,0.0,0.0,0.0,0.0,0.0,0.0,0.0,0.0,0.0,0.0,6.7403,6.9683,6.9004,6.915,7.0154,6.915,6.8045,6.699,6.5333,6.3874,6.2611,0.0,0.0,0.0,0.0,0.0,0.0,0.0,0.0,0.0,0.0,0.0,0.0,0.0,0.0,0.0,0.0,0.0,0.0,0.0,0.0,0.0,0.0,0.0,0.0,0.0,0.0,4.5859,4.5549,4.5277,0.0,0.0,0.0,0.0,0.0,0.0,0.0,0.0,0.0,0.0,5.0676,5.3639,5.3251,5.3626,5.3801,5.3352,5.2421,5.1552,5.0583,5.0358,4.9956,0.0,0.0,0.0,0.0,0.0,0.0,0.0,0.0,0.0,0.0,0.0,0.0,0.0,0.0,0.0,0.0,0.0,0.0,0.0,0.0,0.0,0.0,0.0,0.0,0.0,0.0,0.0,6.4581,6.4325,0.0,0.0,0.0,0.0,0.0,0.0,0.0,0.0,0.0,0.0,0.0,6.4971,6.4279,0.0,0.0,0.0,0.0,0.0,0.0,0.0,0.0,0.0,0.0,0.0,0.0,6.7584,6.982,6.9801,7.0054,7.0757,6.9389,6.831,6.7652,6.5657,6.3672,6.1696,0.0,0.0,0.0,0.0,0.0,0.0,0.0,0.0,0.0,0.0,0.0,0.0,0.0,0.0,0.0,0.0,0.0,0.0,0.0,0.0,0.0,0.0,0.0,0.0,0.0,4.6887,0.0,0.0,0.0,0.0,0.0,0.0,0.0,0.0,0.0,0.0,0.0,4.7809,4.8803,5.0055,5.1343,5.2775,5.2498,5.2615,0.0,0.0,0.0,0.0,0.0,0.0,0.0,0.0,0.0,0.0,0.0,0.0,0.0,0.0,4.6304,4.2831,4.3054,4.3568,4.2829,0.0,0.0,0.0,0.0,0.0,0.0,0.0,0.0,0.0,0.0,0.0,0.0,0.0,0.0,6.5181,0.0,6.5152,0.0,0.0,0.0,0.0,0.0,0.0,0.0,0.0,6.6146,6.5923,6.6341,6.567,6.5051,0.0,6.4801,6.4456,0.0,0.0,0.0,0.0,0.0,0.0,0.0,0.0,6.8737,7.0514,7.0401,7.063,7.1281,6.9869,6.8559,6.7637,6.5242,6.3029,6.114,5.9414,5.8615,0.0,0.0,0.0,0.0,0.0,0.0,0.0,0.0,0.0,0.0,0.0,0.0,0.0,0.0,0.0,0.0,0.0,0.0,0.0,0.0,0.0,0.0,0.0,4.7197,0.0,0.0,0.0,0.0,0.0,0.0,0.0,0.0,0.0,4.5227,4.6947,4.8702,5.0262,5.1007,5.1626,5.2248,0.0,0.0,0.0,0.0,0.0,0.0,0.0,4.6072,4.6539,4.6653,4.7045,4.8512,4.9023,4.8978,4.8391,0.0,0.0,4.5385,4.5261,4.537,4.4635,4.4398,4.3938,4.2743,4.1992,4.152,0.0,0.0,0.0,0.0,0.0,0.0,0.0,0.0,6.6711,6.6624,0.0,6.6074,0.0,0.0,0.0,0.0,0.0,6.6875,0.0,0.0,6.6836,6.6711,6.7562,6.7526,6.6963,6.5978,6.6246,6.6026,6.5346,6.3276,0.0,0.0,0.0,0.0,0.0,0.0,7.0598,7.1686,7.0761,7.0819,7.1861,7.0397,6.8754,6.712,6.4182,6.2119,6.1074,6.0323,5.9523,5.855,5.7411,0.0,0.0,0.0,0.0,0.0,0.0,0.0,0.0,0.0,0.0,0.0,0.0,0.0,0.0,0.0,0.0,0.0,0.0,0.0,0.0,4.749,0.0,0.0,0.0,0.0,0.0,0.0,0.0,0.0,0.0,0.0,4.5016,4.745,4.9781,5.0724,0.0,0.0,0.0,0.0,5.1056,4.6879,4.6377,4.6286,4.5441,4.6346,4.7218,4.7712,0.0,0.0,5.12,4.9932,4.8367,4.6509,4.7166,4.7747,4.9314,4.8058,4.6834,4.6673,4.5421,4.4093,4.3549,4.3375,4.3072,7.0231,0.0,0.0,0.0,0.0,6.7598,6.7398,6.727,6.6688,6.6529,6.6556,6.5818,0.0,0.0,0.0,0.0,0.0,0.0,7.016,7.1043,7.0274,7.0245,7.0545,7.0223,6.9461,6.8597,6.8955,6.832,6.6749,6.6463,6.6329,6.6345,0.0,0.0,0.0,0.0,7.0014,7.149,7.0779,7.0905,7.1932,7.0034,6.8109,6.6109,6.4272,6.2684,6.1655,6.0123,5.9084,5.8648,5.7054,0.0,0.0,0.0,0.0,0.0,0.0,0.0,0.0,0.0,0.0,0.0,0.0,0.0,0.0,0.0,0.0,0.0,0.0,0.0,5.0674,5.0249,4.9281,0.0,0.0,0.0,0.0,0.0,0.0,0.0,0.0,0.0,4.7167,4.8293,4.9141,0.0,0.0,4.8788,4.8621,4.8184,4.8233,4.9361,4.7651,0.0,4.94,4.7513,4.6404,4.8176,5.047,5.1907,5.1621,5.2016,5.2119,5.1333,5.1397,5.1591,5.1467,4.9832,4.8141,4.7367,4.6897,4.6332,4.5279,4.4996,4.4774,7.2719,7.0505,6.8805,6.8586,6.9316,6.9181,6.9072,6.8853,6.822,6.7912,6.7704,6.6803,6.6738,6.7308,6.8685,0.0,0.0,0.0,7.2112,7.2343,7.2313,7.2403,7.2518,7.1981,7.1345,7.0664,7.0421,6.9549,6.8154,6.8349,6.8367,6.8209,0.0,0.0,6.9386,6.979,7.0606,7.1753,7.0859,7.09,7.1911,6.9528,6.7657,6.633,6.4733,6.3429,6.2503,6.1027,5.9873,5.9151,5.7785,5.6851,0.0,0.0,0.0,0.0,0.0,0.0,0.0,0.0,0.0,0.0,0.0,4.8561,4.8239,0.0,0.0,0.0,5.0165,5.1014,5.1383,5.0697,0.0,0.0,0.0,0.0,0.0,0.0,0.0,4.8146,4.8303,4.8522,4.9049,4.9329,4.9581,4.9954,4.94,4.8877,4.8666,0.0,4.8797,4.9849,4.8203,4.7816,5.0067,4.8557,4.7835,4.9977,5.1591,5.2409,5.1852,5.2533,5.2615,5.1556,5.1224,5.1023,5.027,4.9178,4.8397,4.7927,4.7625,4.6985,4.6153,4.6105,4.6111,7.5075,7.4062,7.2833,7.1905,7.1054,7.1145,7.1174,7.1309,7.0757,7.0407,7.0107,6.8751,6.8082,6.7997,7.0075,0.0,6.9912,7.2986,7.3597,7.2323,7.3304,7.3839,7.3773,7.326,7.2665,7.2287,7.1122,7.0227,6.9758,6.9591,6.9462,6.9372,6.9546,6.9628,6.9571,7.1012,7.1923,7.2272,7.099,7.0852,7.1547,6.88,6.723,6.7091,6.5265,6.4059,6.3508,6.2498,6.1304,5.9835,5.9265,5.8293,5.6843,0.0,0.0,0.0,0.0,0.0,0.0,0.0,0.0,0.0,0.0,0.0,0.0,0.0,0.0,0.0,5.053,0.0,5.1149,4.9932,0.0,0.0,0.0,4.8329,5.0274,4.9629,4.9698,5.1215,0.0,0.0,5.0546,5.0463,5.0912,5.2092,5.2597,5.2271,5.0678,5.118,5.1128,4.9182,4.8875,4.8729,4.9202,4.9516,5.0343,5.2026,5.2962,5.2805,5.2083,5.186,5.0653,4.8759,4.8161,4.8075,4.71,4.7498,4.7926,4.8459,4.772,4.6857,4.6737,4.695,4.7072,7.9505,7.9247,7.8884,7.6551,7.3005,7.3005,7.3212,7.3569,7.3016,7.2759,7.2645,7.1905,7.1754,7.2091,7.1337,7.2051,7.3793,7.4192,7.4887,7.5662,7.5473,7.5444,7.5379,7.4811,7.4184,7.3711,7.2921,7.2321,7.175,7.2089,7.1704,7.0646,7.1804,7.1701,7.0131,7.154,7.2308,7.2005,7.0948,6.9767,6.8851,6.7766,6.6769,6.6084,6.4846,6.3993,6.3508,6.2498,6.1442,6.034,5.9786,5.8821,5.7355,5.6685,0.0,0.0,0.0,0.0,0.0,0.0,0.0,0.0,0.0,4.93,4.9606,0.0,5.0384,0.0,5.1388,5.2052,5.2704,5.1897,0.0,0.0,4.9813,5.0176,5.0577,5.0785,5.1046,5.1618,5.1298,5.114,5.1498,5.1346,5.1585,5.2684,5.1599,5.0413,4.9892,5.0482,5.0903,5.0787,5.0869,5.1101,5.1023,5.087,5.107,5.1741,5.1908,5.1934,5.1833,5.1318,5.0644,4.9719,4.9189,4.8719,4.7972,4.8027,4.7901,4.7691,4.7886,4.7922,4.7216,4.7396,4.7267,8.1922,8.1742,8.1742,8.0214,7.7637,7.7366,7.726,7.7325,7.6466,7.5916,7.5377,7.4379,7.4135,7.4634,7.3947,7.4387,7.5567,7.6241,7.6718,7.6793,7.6717,7.6623,7.6623,7.5477,7.529,7.5931,7.4087,7.3307,7.3481,7.2985,7.2049,7.0776,7.2562,7.26,7.0785,7.171,7.2257,7.2219,7.1096,6.9867,6.8471,6.7798,6.7034,6.6403,6.4974,6.4033,6.3794,6.2408,6.1396,6.0845,5.9929,5.897,5.8227,5.7114,5.5869,0.0,0.0,0.0,0.0,0.0,0.0,0.0,0.0,0.0,0.0,0.0,5.1137,5.1343,5.1881,5.2522,5.2862,5.2251,5.1534,5.08,5.1147,5.1572,5.1836,5.2229,5.2451,5.25,5.2487,5.2496,5.2776,5.2456,5.2555,5.3423,5.23,5.1306,5.0955,5.1139,5.1355,5.2008,5.2315,5.2468,5.2288,5.2046,5.1781,5.1702,5.1744,5.1759,5.1155,5.0719,5.0156,4.946,4.8985,4.8605,4.797,4.7716,4.7588,4.7461,4.7716,4.7918,4.7398,4.7331,4.7264,8.3721,8.3326,8.3326,8.3434,8.3554,8.2827,8.2097,8.1137,8.0165,7.9252,7.8289,7.6631,7.628,7.6724,7.6998,7.692,7.659,7.8387,7.8451,7.7294,7.7504,7.7649,7.7681,7.5988,7.6156,7.7896,7.4922,7.3949,7.4811,7.333,7.2075,7.1062,7.2941,7.3085,7.1666,7.1963,7.2265,7.2404,7.1462,7.0366,6.9195,6.8168,6.7335,6.6869,6.5111,6.4079,6.4172,6.2363,6.1442,6.1304,6.0023,5.9248,5.9194,5.7397,5.5974,0.0,5.4128,0.0,0.0,0.0,0.0,0.0,0.0,0.0,0.0,5.2857,5.2159,5.1965,5.2361,5.2577,5.2515,5.2107,5.1917,5.2121,5.2345,5.2774,5.3417,5.3671,5.3695,5.3426,5.3726,5.4127,5.3956,5.3573,5.3477,5.3768,5.3174,5.253,5.2554,5.2311,5.2332,5.2761,5.2934,5.2802,5.2638,5.2514,5.2176,5.1745,5.1689,5.1602,5.0373,5.0151,4.9644,4.8628,4.8373,4.7991,4.748,4.7353,4.7353,4.7382,4.7587,4.7744,4.7294,4.7235,4.7265,8.6379,8.6643,8.6643,8.7191,8.7905,8.6984,8.4945,8.2325,8.2123,8.1916,8.1704,7.9943,7.978,8.0488,7.8846,7.8559,7.9213,7.9163,7.9281,7.9411,7.8439,7.8396,7.9082,7.7424,7.7002,7.7622,7.6072,7.5317,7.5524,7.5168,7.4488,7.3531,7.45,7.4332,7.3305,0.0,0.0,0.0,7.1428,7.0314,6.8526,6.7165,6.6121,6.5282,6.4113,0.0,6.3526,6.286,6.2358,6.2406,6.1395,0.0,0.0,0.0,0.0,0.0,0.0,0.0,0.0,0.0,0.0,0.0,5.4003,5.4165,5.3508,5.3113,5.291,5.2991,5.3372,5.3568,5.3472,5.3695,5.3732,5.3649,5.3895,5.405,5.3906,5.429,5.4574,5.4009,5.4507,5.4605,5.3857,5.3612,5.3534,5.3439,5.2358,5.1824,5.2182,5.2587,5.2934,5.3033,5.2758,5.2383,5.2285,5.1943,5.1538,5.113,5.1003,5.0905,5.0356,4.9775,4.9388,4.9001,4.8614,4.8226,4.7967,4.7996,4.7938,4.7967,4.8026,4.7909,4.7353,4.744,4.7557,8.7769,8.8081,8.7665,8.796,0.0,8.7791,8.6678,8.5019,8.4205,8.3686,8.3427,8.2768,8.2327,8.2045,8.1107,8.0404,7.9876,8.0419,8.0431,7.9786,7.9231,7.9301,7.9765,7.827,7.7899,7.8592,7.6937,7.6231,7.6473,7.5869,7.5275,7.4528,7.5251,7.5226,7.4296,7.4031,7.3173,7.1828,7.1483,7.0205,6.813,6.7224,6.6126,6.4997,6.3829,0.0,0.0,0.0,0.0,0.0,0.0,0.0,0.0,5.9466,0.0,5.7729,5.6904,5.6272,5.5971,5.57,5.573,5.6066,5.6212,5.5727,5.4351,5.4532,5.4553,5.4099,5.469,5.5133,5.5199,5.526,5.5395,5.5446,5.488,5.429,5.4215,5.3854,5.3573,5.3499,5.3578,5.3624,5.3578,5.3116,5.3099,5.3183,5.2359,5.1853,5.2142,5.2233,5.2355,5.2711,5.2523,5.227,5.227,5.2049,5.1541,5.1252,5.1027,5.0705,4.9828,4.947,4.9081,4.8822,4.8432,4.8172,4.8172,4.8172,4.8172,4.8172,4.8172,4.8143,4.7938,4.7938,4.7909,8.892,8.8986,8.8433,8.8182,8.8182,8.8082,8.7981,8.7844,0.0,0.0,0.0,8.5012,8.4285,8.2921,8.3195,8.2267,8.0518,8.1755,8.1595,8.0212,8.015,8.024,8.0273,7.8965,7.8822,7.9718,7.7851,7.7128,7.7617,7.6638,7.5928,7.5535,7.6234,7.6102,7.5229,7.4584,7.3548,7.2081,7.1458,7.0128,6.808,6.7441,6.6498,6.5303,6.4052,6.3196,6.2744,6.1764,6.1154,6.1066,6.1118,6.1082,6.1052,6.0004,5.9157,5.8647,5.7697,5.7344,5.784,5.7433,5.7607,5.9045,5.8363,5.7333,5.5729,5.6328,5.6403,5.557,5.6038,5.6587,5.6916,5.6729,5.6614,5.6698,5.5287,5.4332,5.4081,5.3177,5.253,5.2605,5.2596,5.2629,5.3132,5.2665,5.2391,5.2878,5.2432,5.2145,5.2145,5.1922,5.1795,5.2273,5.2208,5.2144,5.2047,5.1887,5.1662,5.0859,5.0859,5.0504,4.947,4.9081,4.8822,4.8302,4.8172,4.8172,4.8172,4.8172,4.8172,4.8172,4.8172,4.826,4.8523,4.8275,4.8042,9.082,9.1296,9.0693,9.0442,9.0442,8.994,8.9488,8.8935,8.7693,8.6901,8.6367,8.5844,8.5268,8.441,8.3993,8.3361,8.2563,8.2801,8.2564,8.202,8.1109,8.1096,8.1661,8.0005,7.9467,7.991,7.9144,7.872,7.8847,7.872,7.8374,7.7937,7.8025,7.7588,7.6714,7.5696,7.4345,7.2784,7.159,7.0183,6.8548,6.7314,6.6293,6.5747,6.5218,6.4752,6.4307,6.4619,6.4594,6.4147,6.379,6.3479,6.3419,6.2567,6.1914,6.1296,6.0931,6.0286,5.933,5.9432,5.9474,5.9447,5.9174,5.84,5.723,5.7194,5.7415,5.751,5.7474,5.7406,5.7514,5.7198,5.6595,5.5685,5.5193,5.4364,5.2941,5.2876,5.2843,5.2285,5.2784,5.2974,5.2833,5.2452,5.2298,5.2304,5.2081,5.1605,5.1922,5.2049,5.2177,5.2144,5.1791,5.1534,5.1436,5.089,5.0375,4.9599,4.9599,4.947,4.8562,4.8432,4.8302,4.8172,4.8172,4.8172,4.8172,4.8172,4.8172,4.8172,4.8172,4.8318,4.8611,4.7912,4.7636,9.2048,9.2601,9.2049,9.1848,9.1798,9.0889,9.0221,8.9603,8.8703,8.7873,8.7029,8.6445,8.5664,8.4718,8.4417,8.3633,8.2447,8.253,8.2195,8.1401,8.1004,8.1009,8.1256,8.0408,7.9895,7.9895,7.9639,7.9379,7.9161,7.9117,7.8855,7.8418,7.8156,7.7642,7.7046,7.6103,7.479,7.3074,7.1498,6.998,6.8346,6.7508,6.6712,6.6,6.5524,6.5289,6.5149,6.5219,6.5279,6.5541,6.4845,6.4507,6.4467,6.3426,6.2721,6.2354,6.1494,6.1055,6.0902,6.0997,6.0829,6.0348,6.0014,5.9642,5.9097,5.8626,5.838,5.842,5.8273,5.8015,5.7281,5.6894,5.6357,5.5324,5.453,5.362,5.287,5.2327,5.2104,5.1981,5.2136,5.2262,5.2238,5.2142,5.2112,5.2208,5.2113,5.2177,5.2335,5.2266,5.2263,5.1976,5.1659,5.1241,5.0977,5.0596,5.0017,4.934,4.9211,4.8951,4.8302,4.8172,4.8172,4.8172,4.8172,4.8172,4.8172,4.8172,4.8172,4.8172,4.7956,4.8028,4.8127,4.7713,4.7448,9.3398,9.3863,9.3706,9.3355,9.2861,9.1684,9.0996,9.038,8.953,8.8701,8.7916,8.7196,8.6093,8.504,8.4703,8.3743,8.2336,8.226,8.1638,8.0675,8.0741,8.085,8.0812,8.0819,8.0559,8.034,8.034,8.0078,7.9641,7.9597,7.9207,7.8643,7.8251,7.7826,7.7403,7.6331,7.5015,7.3459,7.1699,6.9953,6.8517,6.7937,6.7233,6.6447,6.6065,6.5951,6.6171,6.5693,6.5916,6.6597,6.5762,6.5329,6.5412,6.4047,6.3113,6.3,6.1874,6.1349,6.1956,6.1992,6.1591,6.1016,6.075,6.0585,6.035,5.9522,5.896,5.8753,5.8576,5.7954,5.6863,5.6314,5.5851,5.5054,5.3866,5.3165,5.3071,5.224,5.1573,5.1827,5.1605,5.1635,5.1795,5.1827,5.1954,5.2367,5.2556,5.2585,5.2581,5.228,5.1918,5.1632,5.1193,5.094,5.0473,5.0121,4.971,4.923,4.9159,4.8899,4.8478,4.8289,4.823,4.8201,4.8172,4.8172,4.8172,4.7912,4.7811,4.7898,4.7576,4.7117,4.7315,4.7197,4.6963,9.5301,9.5538,9.6017,9.5391,9.3945,9.31,9.2382,9.1841,9.0293,8.9609,8.9243,8.8319,8.7156,8.6014,8.528,8.4203,8.2873,8.2354,8.1621,8.0836,8.0801,8.0945,8.117,8.117,8.1432,8.1694,8.1738,8.1432,8.0995,8.0995,8.0516,7.9471,7.9385,7.8735,7.7656,7.6159,7.5056,7.4466,7.2454,7.0834,6.9428,6.8558,6.7854,6.7358,6.7485,6.7603,6.7681,6.7476,6.7706,6.835,6.7089,6.6537,6.6751,6.5225,6.4154,6.4066,6.281,6.206,6.2055,6.2123,6.1657,6.0731,6.0929,6.0725,6.0176,5.911,5.8447,5.8319,5.7808,5.7228,5.6431,5.5916,5.527,5.4591,5.4071,5.3523,5.2975,5.2463,5.224,5.224,5.1986,5.1859,5.2145,5.1986,5.2081,5.2524,5.2164,5.2092,5.2211,5.1841,5.1304,5.0865,5.0582,5.0281,4.9868,4.9431,4.924,4.8801,4.8977,4.8977,4.8699,4.8582,4.8523,4.7898,4.7941,4.7941,4.7651,4.726,4.6561,4.705,4.6532,4.5792,4.5847,4.6016,4.6208,9.6704,9.7101,9.7569,9.6492,9.4541,9.3436,9.2637,9.1926,9.0696,8.98,8.9189,8.8521,8.7147,8.5394,8.4034,8.2991,8.2537,8.1674,8.118,8.0761,8.0639,8.0863,8.1214,8.1301,8.1563,8.2,8.2,8.1913,8.1562,8.1037,8.0119,7.9031,7.8814,7.8334,7.7464,7.657,7.5759,7.5159,7.3613,7.2241,7.0956,6.9845,6.9138,6.8724,6.8356,6.8429,6.8738,6.803,6.8071,6.8933,6.7073,6.615,6.6834,6.501,6.3861,6.3806,6.2791,6.2012,6.1565,6.1346,6.1083,6.0647,6.0225,5.9679,5.9209,5.8165,5.7345,5.6849,5.6706,5.6342,5.5436,5.4916,5.4526,5.4005,5.3746,5.352,5.326,5.3003,5.2844,5.2653,5.2494,5.2367,5.2175,5.1793,5.1791,5.2102,5.18,5.1555,5.1863,5.1445,5.1226,5.0945,5.0587,4.9978,4.9683,4.9403,4.9079,4.8991,4.9021,4.905,4.8859,4.8536,4.8156,4.7445,4.7022,4.6383,4.5691,4.5428,4.5116,4.5577,4.5883,4.5401,4.5563,4.5725,4.586,9.8185,9.8691,9.8484,9.7208,9.5181,9.3651,9.2542,9.1676,9.0637,8.9517,8.8627,8.7783,8.6493,8.4757,8.323,8.2596,8.2259,8.1546,8.1077,8.1121,8.0908,8.1214,8.1607,8.152,8.1825,8.2306,8.2262,8.1998,8.1558,8.0462,7.9284,7.8241,7.8198,7.7802,7.7097,7.6679,7.6075,7.5291,7.4259,7.3088,7.2001,7.099,7.0217,6.9354,6.8782,6.8986,6.9554,6.8454,6.8288,6.9353,6.7254,6.5999,6.625,6.4426,6.3066,6.2538,6.2168,6.1691,6.1105,6.1017,6.0743,6.0246,5.9571,5.8813,5.808,5.7221,5.6355,5.6023,5.5899,5.5374,5.4688,5.4458,5.4163,5.377,5.3575,5.3511,5.3479,5.3511,5.3352,5.3066,5.3066,5.2873,5.2297,5.1624,5.12,5.1371,5.1253,5.11,5.1136,5.1004,5.0914,5.0914,5.0374,4.9957,4.9665,4.9547,4.9372,4.9151,4.9209,4.9001,4.8885,4.8189,4.7542,4.6595,4.5769,4.5288,4.4914,4.4435,4.3638,4.3819,4.4239,4.4853,4.5042,4.5201,4.5338,9.9863,10.0198,9.8679,9.7282,9.6038,9.3901,9.2429,9.1203,8.9944,8.8867,8.7577,8.6296,8.5048,8.4106,8.393,8.3537,8.2837,8.2178,8.1914,8.1914,8.1869,8.2175,8.2568,8.2219,8.2437,8.3092,8.2696,8.2037,8.0936,7.9798,7.8532,7.7579,7.7405,7.7139,7.6433,7.606,7.5415,7.4711,7.422,7.3336,7.2145,7.1622,7.0664,6.9168,6.8846,6.9143,6.9723,6.9007,6.8745,6.9637,6.7755,6.668,6.5957,6.4026,6.1876,6.0218,6.0744,6.104,6.0863,6.1228,6.0947,5.9611,5.9013,5.8517,5.7254,5.6257,5.5821,5.6372,5.519,5.454,5.4439,5.4375,5.4439,5.4306,5.4051,5.3892,5.3892,5.3924,5.3702,5.3479,5.328,5.2986,5.2242,5.1309,5.0676,5.0539,5.0646,5.0527,5.0315,5.0133,5.0133,5.0133,4.9968,4.9986,4.9723,4.9618,4.9676,4.9454,4.8917,4.8819,4.8108,4.7534,4.656,4.5751,4.4863,4.4407,4.4407,4.376,4.2731,4.2662,4.3052,4.3555,4.4601,4.4308,4.4607,10.0258,10.0446,9.885,9.7158,9.5282,9.3064,9.1712,9.0977,8.98,8.8593,8.7698,8.6754,8.5767,8.4647,8.4647,8.3807,8.2442,8.2133,8.2,8.2,8.2,8.2262,8.2656,8.2524,8.2568,8.2783,8.2554,8.1572,8.0157,7.9286,7.8286,7.7291,7.6866,7.6341,7.5766,7.591,7.5561,7.4452,7.4313,7.3722,7.2327,7.1968,7.1147,7.012,6.9439,6.9184,6.953,6.8285,6.7723,6.8079,6.6201,6.4919,6.4583,6.28,6.1598,6.1076,6.0658,6.0667,6.0675,5.9882,5.9218,5.8551,5.7587,5.7086,5.6385,5.5619,5.5345,5.5466,5.4948,5.4528,5.4655,5.456,5.4496,5.4687,5.4623,5.4592,5.4782,5.4687,5.4268,5.3388,5.2313,5.1212,5.0948,4.9992,4.9297,4.9378,4.9118,4.9077,4.9175,4.9175,4.9061,4.9061,4.9033,4.8947,4.8498,4.904,4.9233,4.8905,4.8498,4.7684,4.7057,4.5913,4.4989,4.3691,4.2934,4.2203,4.1906,4.1683,4.0985,4.1881,4.2266,4.2641,4.4105,4.3616,4.4164,9.9721,9.9694,9.83,9.663,9.4635,9.2651,9.1286,9.0372,8.9237,8.8149,8.7191,8.6876,8.6107,8.5065,8.5015,8.4359,8.3049,8.2918,8.2874,8.2699,8.2699,8.2787,8.2874,8.2519,8.2384,8.2424,8.1873,8.0836,7.9461,7.8447,7.7406,7.633,7.5464,7.4857,7.4467,7.4736,7.4292,7.3443,7.3338,7.2736,7.1597,7.0937,7.0569,7.0013,6.919,6.9049,6.9438,6.7877,6.6961,6.6699,6.5229,6.3998,6.3213,6.214,6.1333,6.1095,6.0661,6.0296,6.0167,5.9261,5.8355,5.7819,5.6879,5.634,5.607,5.5434,5.5322,5.5481,5.5164,5.4878,5.51,5.4973,5.475,5.4814,5.4878,5.4838,5.4798,5.4569,5.3944,5.2632,5.1196,5.0156,4.9756,4.8917,4.8498,4.8453,4.8156,4.8298,4.8439,4.8549,4.8548,4.8548,4.8573,4.8461,4.81,4.8288,4.8504,4.8176,4.6894,4.6376,4.5581,4.4345,4.3055,4.1779,4.0718,3.982,3.9406,3.9315,3.9914,4.0903,4.0885,4.1005,4.1975,4.2553,4.3055,9.8435,9.8213,9.6854,9.5428,9.4089,9.2485,9.1012,8.9267,8.8388,8.73,8.6122,8.6202,8.594,8.5277,8.5626,8.5364,8.4971,8.484,8.431,8.383,8.383,8.3569,8.3085,8.2155,8.175,8.2094,8.0776,7.9881,7.9136,7.7328,7.5783,7.473,7.3575,7.2793,7.2031,7.2303,7.1856,7.1311,7.1272,7.0534,6.9335,6.9129,6.8842,6.8766,6.8176,6.8445,6.968,6.7911,6.6765,6.6533,6.5649,6.4216,6.2356,6.1609,6.1028,6.0239,6.0413,6.0177,5.9465,5.9328,5.8308,5.726,5.6988,5.6514,5.5999,5.5608,5.5672,5.618,5.5799,5.5513,5.5736,5.5409,5.4997,5.4623,5.4711,5.4474,5.3779,5.3675,5.3167,5.1543,5.0345,4.9697,4.9077,4.8457,4.7995,4.7664,4.7967,4.83,4.7992,4.8243,4.8578,4.8661,4.83,4.8023,4.7829,4.7635,4.7497,4.7277,4.5718,4.4483,4.3657,4.2553,4.1307,4.0078,3.9384,3.8644,3.8922,3.8806,3.8968,3.9709,3.9523,3.9662,4.0613,4.1307,4.1307,9.7148,9.6508,9.5124,9.4149,9.3085,9.0954,8.9291,8.8338,8.733,8.678,8.6587,8.6718,8.6762,8.6849,8.7024,8.6981,8.6806,8.6036,8.4889,8.3539,8.3366,8.2833,8.1994,8.1508,8.11,8.0733,8.007,7.8934,7.764,7.6567,7.5237,7.3576,7.289,7.2029,7.0911,7.1602,7.1447,7.0354,7.0628,7.0414,6.9615,6.8917,6.8704,6.853,6.7237,6.6853,6.7522,6.6905,6.6239,6.5659,6.44,6.3161,6.192,6.1269,6.0892,6.0449,5.9499,5.9089,5.861,5.7312,5.6286,5.5546,5.5357,5.5346,5.5491,5.5526,5.5789,5.6593,5.6021,5.544,5.5283,5.4821,5.4633,5.4665,5.4707,5.4267,5.3449,5.2599,5.1705,5.0786,4.9369,4.841,4.8051,4.7688,4.746,4.7321,4.7569,4.7537,4.7699,4.7732,4.765,4.7596,4.7488,4.7492,4.7162,4.6365,4.5763,4.5217,4.3897,4.2691,4.1861,4.0752,3.95,3.8803,3.8127,3.7987,3.8267,3.8406,3.8546,3.8686,3.8686,3.9244,3.9918,4.0057,3.9918,9.4893,9.452,9.3397,9.2554,9.1814,9.0086,8.8979,8.8255,8.7481,8.7155,8.7286,8.7286,8.7417,8.7538,8.687,8.6399,8.6213,8.4771,8.2987,8.1868,8.2781,8.2482,8.1368,8.0882,8.0109,7.9239,7.8853,7.7689,7.595,7.5009,7.3685,7.2143,7.1434,7.0597,6.971,7.0348,7.0297,6.9567,6.9731,6.9405,6.8565,6.8003,6.7515,6.7063,6.6154,6.5569,6.5715,6.56,6.5349,6.4796,6.3687,6.268,6.1886,6.1646,6.1165,6.0308,5.9453,5.8594,5.7756,5.6442,5.5142,5.4971,5.4817,5.4879,5.5188,5.5295,5.576,5.6105,5.5559,5.4984,5.4894,5.4539,5.417,5.377,5.3772,5.3405,5.2559,5.1245,5.0045,4.935,4.855,4.7825,4.7267,4.7423,4.7161,4.7108,4.7161,4.7268,4.7428,4.7322,4.7126,4.702,4.7054,4.6921,4.6366,4.5263,4.4028,4.318,4.2106,4.1125,4.0196,3.9105,3.7987,3.7847,3.7427,3.7427,3.7567,3.7567,3.7707,3.7847,3.7987,3.8127,3.8406,3.8406,3.8406,9.2045,9.2408,9.1601,9.103,9.0414,9.0182,8.9444,8.8565,8.8291,8.8029,8.7811,8.7767,8.7668,8.7099,8.561,8.4601,8.3711,8.2072,8.0354,8.0022,8.1209,8.184,8.0834,8.0041,7.8899,7.7919,7.7497,7.6385,7.4661,7.3327,7.1735,7.0531,6.9551,6.8685,6.8467,6.8675,6.8948,6.877,6.844,6.7794,6.6804,6.6165,6.5708,6.5187,6.4909,6.4806,6.4526,6.4456,6.4386,6.4105,6.3473,6.2879,6.2639,6.257,6.1599,5.9974,5.9621,5.8154,5.6778,5.5868,5.5443,5.4816,5.4927,5.514,5.5049,5.5241,5.5351,5.5536,5.5057,5.4702,5.4531,5.4148,5.3297,5.2087,5.2073,5.1647,5.0505,4.9441,4.88,4.8243,4.8017,4.7845,4.6927,4.7188,4.7268,4.7241,4.7322,4.7286,4.7197,4.7028,4.6912,4.6833,4.6533,4.6118,4.5396,4.4113,4.2711,4.1276,4.0338,3.9496,3.8894,3.7891,3.7287,3.7147,3.7007,3.7007,3.7007,3.7147,3.7147,3.7287,3.7147,3.6888,3.7007,3.7287,3.7567,9.1324,9.0888,9.0172,9.0028,9.0127,8.9389,8.8883,8.8422,8.8073,8.8116,8.8204,8.8247,8.7419,8.6128,8.5504,8.4335,8.2448,8.0916,8.0125,7.962,7.9052,7.925,7.9011,7.8727,7.8263,7.7696,7.6639,7.5312,7.3806,7.2614,7.1191,6.9289,6.8821,6.8134,6.763,6.8074,6.8287,6.8357,6.8031,6.7813,6.7245,6.6148,6.5545,6.5262,6.48,6.4408,6.4226,6.3985,6.371,6.3435,6.3294,6.2981,6.2639,6.2044,6.1033,5.9645,5.8335,5.7092,5.5658,5.4782,5.4096,5.3745,5.4203,5.4519,5.4759,5.4977,5.5262,5.5353,5.4916,5.4278,5.3964,5.2987,5.145,4.9893,5.0118,5.0003,4.9386,4.8689,4.8212,4.8099,4.778,4.741,4.7295,4.7206,4.7313,4.726,4.7002,4.6627,4.6601,4.6316,4.5861,4.5744,4.5382,4.4969,4.4273,4.2844,4.142,3.9671,3.8564,3.7766,3.7429,3.7255,3.6931,3.6866,3.6866,3.6866,3.6866,3.7028,3.6888,3.6888,3.6888,3.6888,3.6888,3.7028,3.7147,9.0481,9.0049,8.9834,8.9935,9.0049,8.9309,8.8803,8.8297,8.8036,8.7749,8.7865,8.7721,8.6837,8.515,8.3972,8.249,8.051,7.8662,7.7868,7.7561,7.7282,7.7275,7.7468,7.7375,7.6878,7.6312,7.5586,7.3986,7.2181,7.1331,7.0219,6.8956,6.8351,6.814,6.7984,6.8568,6.872,6.854,6.8361,6.8074,6.7213,6.6175,6.5635,6.5312,6.4633,6.4283,6.4249,6.4043,6.3701,6.329,6.3153,6.2909,6.2282,6.1509,6.0421,5.8811,5.7294,5.6067,5.506,5.4108,5.3674,5.3586,5.3931,5.4076,5.4224,5.4453,5.4542,5.4338,5.3643,5.3208,5.3033,5.1883,5.0454,4.932,4.8925,4.8705,4.8321,4.8008,4.7949,4.772,4.7375,4.7081,4.7081,4.6796,4.6653,4.6484,4.6056,4.5836,4.5616,4.5188,4.4592,4.4138,4.3803,4.3178,4.2179,4.0804,4.0281,3.8599,3.7612,3.6714,3.6403,3.6616,3.6855,3.6953,3.6909,3.705,3.7234,3.7234,3.6888,3.6888,3.6888,3.6888,3.6888,3.7115,3.7093,8.9951,8.9995,9.0285,9.0052,8.9704,8.9617,8.8585,8.7992,8.782,8.7486,8.6905,8.6656,8.5443,8.3972,8.1746,7.9648,7.8025,7.6315,7.5024,7.5032,7.5191,7.5824,7.614,7.6095,7.5365,7.4406,7.3922,7.257,7.1097,7.0082,6.9253,6.8672,6.8453,6.8533,6.8613,6.9346,6.9392,6.9067,6.9003,6.839,6.7123,6.6185,6.5748,6.5525,6.5079,6.4557,6.4454,6.4317,6.4043,6.3182,6.2938,6.2513,6.1912,6.1059,5.9599,5.7877,5.6785,5.5746,5.4698,5.42,5.4084,5.4142,5.4025,5.3996,5.3967,5.3616,5.3353,5.318,5.2067,5.1695,5.1559,5.1016,5.0188,4.9104,4.8636,4.8241,4.7722,4.7562,4.7535,4.7366,4.6796,4.6511,4.6082,4.5653,4.5198,4.577,4.5459,4.5071,4.4541,4.3803,4.2966,4.2108,4.1586,4.1042,3.979,3.8422,3.8269,3.7742,3.7042,3.6366,3.5814,3.6093,3.68,3.7039,3.7536,3.8002,3.8253,3.8068,3.7212,3.6769,3.679,3.6769,3.6909,3.7364,3.757,9.0126,9.0285,8.924,8.8607,8.8331,8.7548,8.6894,8.662,8.6972,8.6656,8.651,8.5443,8.3676,8.1596,7.9799,7.7722,7.6084,7.5012,7.4332,7.3356,7.3436,7.3748,7.4175,7.4705,7.4443,7.3652,7.2292,7.1605,7.0844,7.0445,6.9895,6.9218,6.8986,6.8777,6.9078,6.951,6.9524,6.9304,6.9133,6.8478,6.7305,6.6166,6.5688,6.5984,6.5756,6.5276,6.4797,6.4694,6.42,6.3216,6.2162,6.1599,6.1169,5.9698,5.8108,5.7154,5.6431,5.5522,5.4493,5.4259,5.4259,5.4142,5.3938,5.3996,5.3996,5.3178,5.2885,5.2478,5.1599,5.0489,4.995,5.0105,4.965,4.9078,4.8723,4.8524,4.799,4.7829,4.7463,4.6849,4.6511,4.6225,4.551,4.5198,4.5055,4.5029,4.4667,4.4138,4.335,4.2443,4.13,4.0281,3.9379,3.8884,3.7919,3.6899,3.6862,3.6904,3.6471,3.6693,3.6119,3.6214,3.718,3.7861,3.8541,3.8771,3.8602,3.8209,3.7493,3.7093,3.6714,3.7158,3.7483,3.7777,3.8082,8.9074,8.8589,8.8054,8.7563,8.7311,8.6891,8.5813,8.4928,8.4958,8.4456,8.3569,8.249,8.0999,7.9235,7.8177,7.681,7.5166,7.4397,7.4134,7.3799,7.3609,7.3302,7.3266,7.3851,7.3894,7.3436,7.2401,7.1681,7.1279,7.0809,7.0222,7.0011,6.966,6.9589,6.966,6.9643,6.9502,6.9282,6.8956,6.8334,6.6817,6.6035,6.5499,6.5629,6.5574,6.5268,6.459,6.4488,6.3848,6.2673,6.128,6.0455,6.0391,5.8693,5.7346,5.6647,5.585,5.5496,5.4846,5.4493,5.4288,5.3965,5.3586,5.3266,5.2856,5.2327,5.1886,5.1536,5.0681,4.985,4.9393,4.9983,4.9847,4.9259,4.9245,4.8911,4.7929,4.7546,4.7243,4.6498,4.577,4.5198,4.4768,4.4506,4.4219,4.3932,4.3907,4.3354,4.1871,4.0941,3.9537,3.828,3.7276,3.6495,3.5961,3.5531,3.5529,3.5776,3.5919,3.6613,3.7262,3.7451,3.7795,3.826,3.8468,3.8513,3.8298,3.7883,3.7699,3.7364,3.7407,3.7733,3.8201,3.855,3.881,8.8073,8.665,8.6718,8.6636,8.6333,8.5987,8.4634,8.2838,8.2733,8.1786,7.9988,7.9537,7.8782,7.757,7.6962,7.6084,7.4859,7.409,7.3863,7.3899,7.3709,7.3401,7.3401,7.3365,7.3483,7.3437,7.2474,7.1987,7.1444,7.0632,7.0058,7.0314,6.9961,6.974,7.0067,7.0111,6.9564,6.9078,6.8742,6.7886,6.6291,6.5805,6.5169,6.4518,6.4817,6.4731,6.416,6.3846,6.3452,6.2161,6.0216,5.954,5.9065,5.8015,5.6889,5.6446,5.5643,5.5198,5.502,5.4638,5.4049,5.3864,5.3081,5.2474,5.1914,5.1381,5.0884,5.0441,4.9998,4.9566,4.9646,4.9958,5.0133,4.9768,4.9737,4.8998,4.7819,4.7213,4.674,4.5925,4.508,4.4506,4.3956,4.3693,4.3285,4.2997,4.2804,4.23,4.096,3.9672,3.8455,3.6785,3.5775,3.4474,3.3798,3.3634,3.375,3.4455,3.4873,3.5654,3.6777,3.6807,3.6757,3.7668,3.7993,3.8015,3.8015,3.7808,3.7668,3.7614,3.7494,3.7451,3.8223,3.9302,3.9234,8.8242,8.6912,8.562,8.5223,8.5121,8.3005,8.1959,8.1674,8.0636,8.0139,7.9537,7.8328,7.757,7.6962,7.5778,7.4705,7.4017,7.3591,7.3318,7.3318,7.3318,7.3318,7.3009,7.2855,7.3009,7.3009,7.2235,7.1558,7.1633,7.0632,7.0163,6.9743,6.9428,6.9474,6.9474,6.9183,6.9218,6.8731,6.8127,6.7185,6.6174,6.4858,6.4107,6.3486,6.3936,6.3872,6.3375,6.3029,6.2554,6.1158,5.9971,5.9088,5.8308,5.6774,5.6176,5.6023,5.5697,5.5342,5.5196,5.4368,5.3955,5.3481,5.2808,5.2167,5.1816,5.1086,5.0414,5.0212,4.9769,4.9379,4.9352,4.9729,4.9527,4.9364,4.9209,4.8813,4.7844,4.6923,4.5905,4.4882,4.4393,4.3837,4.343,4.3045,4.2659,4.2224,4.2032,4.1644,4.0581,3.9262,3.797,3.6124,3.4282,3.2827,3.1497,3.1643,3.1825,3.2846,3.3315,3.3577,3.4486,3.4859,3.5326,3.5894,3.6885,3.757,3.7548,3.7711,3.7755,3.7679,3.7516,3.7309,3.8245,3.916,3.8788,8.5916,8.4586,8.3815,8.3268,8.2678,8.1631,8.0131,7.9095,7.8672,7.8025,7.7114,7.639,7.6084,7.5704,7.5061,7.4259,7.3989,7.3247,7.3318,7.3473,7.3627,7.3437,7.3009,7.3009,7.3009,7.27,7.1769,7.1594,7.2283,7.1492,7.0679,7.0398,7.0117,6.9976,6.9684,6.9673,6.8892,6.8265,6.7507,6.6442,6.5242,6.3986,6.3292,6.3143,6.3185,6.2827,6.2009,6.1847,6.1106,5.9619,5.8723,5.8127,5.7522,5.6734,5.6103,5.6396,5.6132,5.584,5.5426,5.4652,5.3823,5.3168,5.2346,5.15,5.0917,5.0335,5.0025,4.9769,4.9594,4.9352,4.9513,4.9486,4.9418,4.9183,4.9048,4.829,4.7182,4.6459,4.5488,4.4356,4.4087,4.3626,4.3021,4.2659,4.215,4.1737,4.1278,4.074,4.01,3.8796,3.7455,3.5452,3.3581,3.2226,3.0907,3.076,3.076,3.1622,3.2153,3.2298,3.2403,3.3098,3.3269,3.3497,3.4758,3.5973,3.7297,3.7525,3.7788,3.8028,3.8475,3.8758,3.8855,3.8833,3.8461,8.385,8.2343,8.2109,8.1487,8.0751,8.0249,7.8905,7.7146,7.6808,7.6237,7.5012,7.4859,7.5012,7.4785,7.4449,7.4113,7.4113,7.3056,7.3318,7.3781,7.3781,7.3473,7.3164,7.2973,7.27,7.208,7.1614,7.1713,7.2166,7.1444,7.1114,7.0679,7.0762,7.0468,6.9801,6.8989,6.829,6.739,6.6285,6.5177,6.3873,6.3065,6.2778,6.2625,6.2497,6.1875,6.0883,6.0544,5.9768,5.8573,5.7704,5.7404,5.7219,5.6823,5.663,5.704,5.6718,5.6513,5.6068,5.4869,5.3799,5.3234,5.1902,5.0878,5.0266,5.0009,4.97,4.9432,4.9379,4.9258,4.9242,4.9349,4.9007,4.8689,4.8471,4.8121,4.6734,4.5785,4.5262,4.4525,4.4011,4.3793,4.343,4.2146,4.1678,4.1601,4.1307,4.0224,3.941,3.817,3.6575,3.4602,3.2906,3.1654,3.0752,3.0309,3.0587,3.1159,3.14,3.1715,3.1553,3.1518,3.1697,3.2018,3.2261,3.3522,3.549,3.7534,3.7711,3.8378,3.9744,3.9863,3.9019,3.832,3.7949,8.4329,8.2797,8.1635,8.1204,8.089,7.8484,7.7299,7.7075,7.5816,7.5166,7.4859,7.4859,7.4859,7.4668,7.4017,7.3673,7.3519,7.3247,7.3045,7.3081,7.339,7.2926,7.1805,7.1459,7.1684,7.1373,7.1182,7.1558,7.1431,7.0435,6.9953,7.0171,6.9522,6.8735,6.8427,6.7637,6.6232,6.5236,6.3836,6.2929,6.2428,6.264,6.2446,6.2034,6.1382,6.0613,5.9875,5.9625,5.8753,5.7554,5.7854,5.7554,5.6764,5.6519,5.6542,5.6776,5.6805,5.6659,5.6149,5.4851,5.3739,5.306,5.175,5.0858,5.0163,4.98,4.9588,4.97,4.9471,4.9094,4.8595,4.8551,4.8078,4.7634,4.7312,4.701,4.5983,4.5482,4.5108,4.474,4.43,4.4349,4.4252,4.2609,4.1343,4.1412,4.1116,4.0051,3.9138,3.8065,3.5732,3.3718,3.2648,3.1542,3.0934,3.0361,3.0508,3.0952,3.1047,3.1253,3.0913,3.0737,3.0794,3.1085,3.1174,3.1958,3.4328,3.6164,3.7405,3.8422,3.9341,3.9087,3.8528,3.7993,3.7158,8.2588,8.1486,8.0983,7.9903,7.8714,7.7296,7.6457,7.5853,7.5166,7.4859,7.4859,7.4859,7.4595,7.3872,7.3175,7.2866,7.2605,7.2438,7.2532,7.2674,7.302,7.266,7.2019,7.1601,7.134,7.0575,7.0124,6.9538,6.9644,7.0299,7.0299,6.9696,6.9041,6.8541,6.7562,6.6637,6.5535,6.4215,6.2836,6.1897,6.1931,6.1868,6.1711,6.1486,6.038,5.9584,5.8823,5.8307,5.7795,5.683,5.707,5.7067,5.6753,5.6805,5.701,5.7098,5.6868,5.6539,5.5798,5.4649,5.3658,5.2797,5.1637,5.0536,4.9816,4.9048,4.8461,4.8149,4.8123,4.7825,4.7728,4.7681,4.7334,4.6835,4.643,4.6004,4.5653,4.5424,4.5049,4.4832,4.4464,4.4141,4.3793,4.2615,4.1081,4.0547,4.0443,3.9932,3.9438,3.916,3.6174,3.2593,3.1985,3.1542,3.1082,3.0804,3.0952,3.1099,3.1229,3.1124,3.0527,3.0371,3.0685,3.0779,3.0835,3.1995,3.3756,3.5408,3.7141,3.8017,3.8893,3.8333,3.7635,3.6214,3.5445,8.04,7.9632,7.9672,7.8635,7.6839,7.6378,7.5768,7.4895,7.4705,7.4551,7.4551,7.4397,7.3791,7.3221,7.2783,7.2474,7.2177,7.1769,7.2051,7.2453,7.263,7.2264,7.1442,7.1023,7.0502,6.9579,6.8736,6.8086,6.8297,6.8866,6.9314,6.9002,6.8276,6.7807,6.7148,6.599,6.4538,6.2454,6.1668,6.1296,6.1304,6.0994,6.0907,6.0476,5.9739,5.8671,5.7853,5.7554,5.707,5.6582,5.6156,5.6149,5.6009,5.5565,5.5341,5.53,5.5187,5.4875,5.4384,5.3697,5.3239,5.2405,5.1269,5.0191,4.8985,4.7816,4.711,4.7083,4.6632,4.6558,4.6509,4.6459,4.6282,4.6128,4.602,4.5521,4.4898,4.4571,4.4197,4.3682,4.3217,4.294,4.257,4.1983,4.1158,4.0042,3.9723,3.9617,3.9147,3.8909,3.6047,3.2316,3.169,3.1542,3.1377,3.1229,3.1247,3.1578,3.156,3.169,3.1418,3.1024,3.1084,3.1014,3.0799,3.1958,3.3678,3.5368,3.6878,3.7602,3.8082,3.7537,3.6722,3.5041,3.3645,7.8135,7.7026,7.7454,7.7418,7.7038,7.5662,7.5049,7.4859,7.409,7.3745,7.3627,7.32,7.3379,7.3522,7.2758,7.2518,7.2731,7.2922,7.2211,7.188,7.2054,7.1072,7.0179,6.9467,6.869,6.7561,6.7115,6.6916,6.6529,6.6793,6.7006,6.6619,6.6736,6.6423,6.5703,6.4665,6.2912,6.123,6.0601,6.0491,6.0507,6.055,6.0499,6.0133,5.9306,5.8389,5.806,5.752,5.7097,5.6396,5.5605,5.5223,5.4919,5.3891,5.3324,5.3223,5.3204,5.2788,5.2341,5.2885,5.3297,5.2586,5.1181,4.9299,4.8377,4.741,4.6855,4.618,4.5283,4.4832,4.465,4.4643,4.4914,4.4906,4.4977,4.4634,4.4117,4.3579,4.3056,4.2466,4.1992,4.1691,4.139,4.0977,4.1061,4.0091,4.0406,4.0428,3.7959,3.7137,3.5034,3.2518,3.1873,3.156,3.1377,3.156,3.1779,3.2129,3.2165,3.2609,3.2869,3.2538,3.1862,3.1481,3.1299,3.2441,3.3277,3.4189,3.5184,3.6616,3.6996,3.5973,3.4798,3.3192,3.1963,7.7375,7.6643,7.608,7.5778,7.5778,7.4551,7.4397,7.4551,7.3473,7.2855,7.289,7.326,7.3163,7.2801,7.2543,7.2072,7.1738,7.1141,7.079,7.0507,6.9974,6.9362,6.8492,6.8126,6.7636,6.6925,6.6324,6.5881,6.562,6.5098,6.4375,6.4375,6.4977,6.5359,6.4696,6.3616,6.1952,6.0829,6.0229,6.0022,6.0233,5.9895,5.9914,5.9688,5.8736,5.7826,5.7354,5.7,5.6818,5.6237,5.5051,5.4441,5.4213,5.281,5.2002,5.1689,5.1507,5.1062,5.1036,5.1402,5.145,5.0358,4.8733,4.7427,4.7169,4.5571,4.46,4.3861,4.3626,4.3103,4.3452,4.3568,4.3661,4.3647,4.3601,4.3568,4.3055,4.2348,4.1736,4.1089,4.0765,4.0313,4.014,3.9989,4.0225,4.031,4.0777,4.0599,3.8149,3.6052,3.4428,3.3276,3.2479,3.2057,3.1891,3.2093,3.2479,3.2534,3.2755,3.2737,3.2979,3.3217,3.2552,3.2166,3.1336,3.1673,3.2044,3.2451,3.3566,3.5242,3.4859,3.3684,3.2479,3.1265,3.033,7.6387,7.5996,7.4969,7.4705,7.4705,7.3935,7.3935,7.409,7.27,7.2186,7.2292,7.2887,7.2822,7.2054,7.1842,7.163,7.1188,7.0621,6.9974,6.9588,6.9203,6.824,6.7625,6.7046,6.6849,6.6109,6.5828,6.5259,6.462,6.3558,6.3085,6.299,6.3049,6.3585,6.3554,6.2722,6.1502,6.0698,6.0186,5.9747,6.0093,5.9684,5.903,5.8917,5.7965,5.7118,5.6345,5.5845,5.5519,5.4721,5.3796,5.306,5.2734,5.2164,5.114,5.0693,5.0245,4.9771,4.9695,5.0249,4.9992,4.9187,4.7638,4.6484,4.5444,4.3879,4.2965,4.2516,4.1917,4.1525,4.2104,4.2279,4.2522,4.2613,4.2545,4.2386,4.1619,4.0964,4.0249,3.9558,3.9256,3.8781,3.8478,3.8499,3.9083,3.9192,3.9278,3.9129,3.7611,3.5952,3.4957,3.3947,3.3425,3.2979,3.2573,3.2385,3.2064,3.2082,3.2267,3.2082,3.2273,3.2685,3.2518,3.15,3.0834,3.0478,3.0567,3.0851,3.213,3.381,3.2981,3.1686,3.1084,3.0012,2.8965,7.5049,7.4895,7.409,7.4244,7.4705,7.3935,7.3627,7.3627,7.208,7.1478,7.1566,7.1234,7.1615,7.1996,7.154,7.1064,7.1007,7.1053,7.0268,6.8901,6.8751,6.7784,6.6631,6.5962,6.5707,6.447,6.4283,6.4347,6.387,6.2927,6.2388,6.1906,6.1671,6.1701,6.1906,6.1321,6.0508,5.9893,5.9732,5.9556,5.9512,5.9293,5.8638,5.8001,5.7338,5.6521,5.5753,5.4635,5.4285,5.3653,5.1473,5.0541,5.0564,4.9012,4.8112,4.799,4.7264,4.6808,4.6671,4.8909,4.8979,4.8049,4.6425,4.5882,4.4864,4.3358,4.1826,4.1537,4.0727,4.0163,4.0445,4.0859,4.1318,4.1406,4.134,4.0924,4.0184,3.9274,3.8541,3.8065,3.761,3.7134,3.683,3.685,3.7913,3.8044,3.7872,3.7165,3.6249,3.5417,3.4285,3.3872,3.3161,3.2602,3.2064,3.1854,3.1774,3.1792,3.1659,3.1624,3.1519,3.1868,3.1383,3.0737,3.0076,2.9633,2.9227,2.8983,3.014,3.1136,3.0813,2.9947,2.9359,2.8781,2.7748,7.4859,7.4859,7.4551,7.4244,7.3935,7.2545,7.2545,7.3318,7.239,7.1373,7.0766,7.0973,7.1215,7.1265,7.1188,7.078,7.0539,7.048,6.9597,6.7691,6.7823,6.625,6.5198,6.4691,6.4502,6.3872,6.3779,6.3715,6.3401,6.2199,6.177,6.1241,6.0698,6.0639,6.1001,6.0811,6.0531,6.0241,5.9878,5.9615,5.9352,5.8958,5.8475,5.7678,5.6886,5.6042,5.512,5.3844,5.3101,5.26,5.0384,4.9238,4.9177,4.7964,4.6784,4.6587,4.5998,4.575,4.5474,4.6016,4.6151,4.5535,4.5079,4.4356,4.3635,4.2025,4.1209,4.0815,4.0336,3.9946,4.0163,4.0358,4.0488,4.0005,3.9656,3.9223,3.8465,3.7539,3.683,3.6566,3.6281,3.5711,3.5327,3.5022,3.5882,3.5996,3.5652,3.5157,3.4264,3.3789,3.2992,3.2866,3.2456,3.1897,3.1544,3.1242,3.0975,3.069,3.0875,3.1044,3.104,3.0834,3.0247,2.9451,2.9121,2.8648,2.8133,2.7604,2.7811,2.8016,2.8346,2.8471,2.8192,2.7412,2.6451,7.4397,7.4397,7.3781,7.3473,7.3009,7.208,7.1854,7.2058,7.1558,7.0628,7.0109,7.0731,7.0851,7.0674,7.0721,7.0632,7.0234,6.9857,6.8743,6.6598,6.638,6.5227,6.4087,6.3807,6.3997,6.3684,6.3463,6.3208,6.3021,6.1345,6.0601,6.0449,6.0231,6.0011,6.0127,5.9832,5.9885,5.9655,5.9482,5.9366,5.9045,5.8544,5.8039,5.6975,5.5888,5.5048,5.3918,5.2906,5.2086,5.1245,5.0095,4.8587,4.829,4.7477,4.6254,4.5851,4.5107,4.4518,4.3792,4.3476,4.3635,4.3432,4.2758,4.2824,4.2755,4.1777,4.1118,4.0527,4.014,4.0097,4.014,4.0008,3.9613,3.9125,3.8468,3.7884,3.7404,3.6478,3.5979,3.5711,3.5289,3.4551,3.3885,3.355,3.3714,3.3659,3.3433,3.292,3.256,3.2389,3.2048,3.1944,3.1822,3.138,3.0875,3.0556,3.0136,2.973,2.9882,3.0169,2.98,2.9603,2.9026,2.8323,2.7838,2.7242,2.6742,2.6375,2.6703,2.677,2.6852,2.6868,2.677,2.6238,2.5399,7.3591,7.3282,7.1925,7.1734,7.2235,7.1974,7.1024,6.9352,6.9352,6.9352,6.9386,6.9797,7.0071,7.0345,7.0413,7.0119,6.9825,6.9399,6.7851,6.6406,6.5854,6.4459,6.3928,6.3807,6.3809,6.3653,6.3368,6.2701,6.2705,6.1088,5.9874,5.96,5.9717,5.9231,5.8809,5.8565,5.8783,5.8899,5.9133,5.8826,5.8268,5.8258,5.7041,5.576,5.4402,5.3512,5.2173,5.0844,5.0008,4.9119,4.821,4.749,4.6846,4.612,4.5804,4.5195,4.3974,4.2954,4.2275,4.2122,4.1632,4.1991,4.2592,4.2887,4.2351,4.1416,4.0603,4.0213,3.9958,4.0069,4.0069,3.9608,3.9167,3.8417,3.7644,3.7141,3.6696,3.6193,3.571,3.5109,3.4507,3.3957,3.3213,3.2796,3.2208,3.1708,3.164,3.1384,3.1162,3.1794,3.1624,3.1589,3.13,3.0708,3.0354,2.973,2.9291,2.8883,2.8923,2.9027,2.8693,2.8312,2.7746,2.7217,2.6503,2.5956,2.5545,2.5618,2.5837,2.5938,2.5908,2.5878,2.6054,2.5385,2.4844,7.3591,7.3437,7.1608,7.0884,7.0849,6.9524,6.9026,6.9162,6.873,6.873,6.9352,6.9728,6.9762,6.9694,6.966,6.9416,6.8981,6.8512,6.7504,6.639,6.5249,6.4716,6.4215,6.387,6.3715,6.3212,6.2705,6.1912,6.1156,5.9885,5.9381,5.8867,5.8907,5.8392,5.7678,5.7197,5.7678,5.8027,5.8314,5.786,5.727,5.6874,5.5488,5.4151,5.301,5.1986,5.1267,5.0027,4.9356,4.9071,4.8014,4.7087,4.6269,4.5905,4.561,4.4358,4.3037,4.1978,4.1798,4.1604,4.1231,4.0674,4.1518,4.1424,4.1074,4.0347,3.9782,3.9677,3.9552,3.9489,3.9292,3.9004,3.858,3.7845,3.7047,3.6717,3.625,3.5627,3.514,3.3946,3.3337,3.2796,3.2167,3.1908,3.1337,3.0521,2.9987,2.9859,2.9918,3.0424,3.0666,3.0633,3.0281,2.9692,2.9355,2.8883,2.8457,2.7999,2.818,2.8056,2.7541,2.7149,2.6534,2.6117,2.5554,2.5009,2.4453,2.4706,2.5295,2.5266,2.5223,2.534,2.5194,2.4664,2.4264,7.3164,7.2783,7.0574,6.9558,6.9232,6.7792,6.7604,6.8323,6.796,6.8149,6.8512,6.9128,6.9249,6.8941,6.8752,6.8512,6.7906,6.7473,6.6562,6.5268,6.4808,6.4179,6.3836,6.3555,6.3243,6.2616,6.186,6.095,5.9875,5.903,5.836,5.8067,5.8087,5.7693,5.6985,5.6683,5.6925,5.7031,5.7165,5.6595,5.6002,5.5325,5.3987,5.2673,5.1533,5.1079,5.0501,4.9403,4.9044,4.8736,4.7632,4.6754,4.568,4.5064,4.3586,4.2056,4.114,4.0516,4.0474,4.0822,4.0159,3.9919,4.0076,3.996,3.9845,3.9406,3.9126,3.8887,3.8941,3.8859,3.8527,3.8216,3.7693,3.7303,3.6774,3.6266,3.5778,3.5151,3.4089,3.2725,3.202,3.1485,3.1134,3.0846,3.0259,2.9391,2.8842,2.8719,2.8658,2.8908,2.9173,2.9157,2.8891,2.8503,2.8198,2.8029,2.7648,2.7465,2.7375,2.7254,2.6575,2.6201,2.5813,2.5292,2.461,2.4215,2.412,2.4323,2.462,2.4564,2.4199,2.389,2.4024,2.4065,2.381,7.2235,7.1819,6.9109,6.7772,6.7227,6.6542,6.6597,6.6946,6.7382,6.7435,6.7387,6.8359,6.8701,6.8257,6.8155,6.7593,6.6959,6.6409,6.557,6.4115,6.3827,6.3457,6.3207,6.2861,6.2305,6.1806,6.0994,5.9862,5.9232,5.8391,5.7724,5.7478,5.7608,5.7183,5.6225,5.6088,5.6115,5.5951,5.5597,5.5108,5.4673,5.3929,5.2791,5.1415,5.0818,5.0364,4.9264,4.8622,4.8356,4.7768,4.7182,4.644,4.4746,4.2954,4.1002,4.0122,3.9501,3.9399,3.9399,3.9633,3.9016,3.8894,3.8908,3.8363,3.8129,3.8423,3.8342,3.8049,3.7969,3.7969,3.7792,3.7636,3.7381,3.6949,3.6458,3.5847,3.5096,3.4042,3.2541,3.1298,3.0706,3.0289,2.9874,2.959,2.9322,2.8422,2.7986,2.7883,2.7568,2.7681,2.795,2.8077,2.7917,2.7845,2.7429,2.7215,2.6993,2.6752,2.6723,2.639,2.5769,2.5518,2.5118,2.4748,2.4379,2.4012,2.3958,2.3972,2.3795,2.3133,2.2797,2.2376,2.2538,2.2998,2.316,7.0973,6.9851,6.7382,6.5968,6.5439,6.5748,6.5856,6.5939,6.6817,6.7118,6.7469,6.8274,6.8239,6.7642,6.7372,6.6811,6.6044,6.5242,6.4845,6.4131,6.3453,6.2709,6.246,6.1682,6.1089,6.0152,5.9368,5.8397,5.7826,5.7323,5.6952,5.6378,5.6415,5.5979,5.5484,5.5484,5.5159,5.5242,5.4563,5.4402,5.4373,5.358,5.2509,5.1025,5.0174,4.9721,4.8863,4.8622,4.8356,4.7929,4.7022,4.5411,4.339,4.1032,3.9989,3.9389,3.8906,3.8745,3.8527,3.8348,3.7617,3.7381,3.7126,3.6515,3.6515,3.7244,3.7558,3.7322,3.7046,3.7046,3.7046,3.7046,3.7046,3.6573,3.6118,3.5261,3.4398,3.2601,3.093,3.0154,2.9538,2.8992,2.8579,2.8315,2.8066,2.7775,2.747,2.7081,2.6648,2.6648,2.7153,2.7367,2.7512,2.7349,2.6958,2.6519,2.6136,2.5759,2.5606,2.5273,2.4941,2.4514,2.4241,2.4365,2.4311,2.3779,2.3264,2.3225,2.2751,2.2116,2.1818,2.1681,2.1544,2.1842,2.2017,7.0299,6.9094,6.7006,6.5439,6.4756,6.5016,6.4996,6.4877,6.5038,6.5287,6.575,6.6996,6.7482,6.6751,6.6451,6.5791,6.4958,6.4123,6.3539,6.3139,6.277,6.1931,6.1184,6.0529,5.9658,5.869,5.7593,5.665,5.6421,5.6042,5.5635,5.5486,5.5352,5.5161,5.4937,5.483,5.4723,5.475,5.3961,5.4045,5.4373,5.3226,5.2077,5.076,5.0216,4.9575,4.8767,4.8525,4.7959,4.705,4.5503,4.3199,4.127,3.949,3.8727,3.8167,3.7792,3.7696,3.7537,3.7043,3.6213,3.5821,3.5765,3.5449,3.4974,3.5866,3.6811,3.6573,3.6707,3.6745,3.6649,3.663,3.6611,3.6295,3.5121,3.3955,3.2508,3.0718,2.9172,2.8223,2.7897,2.7691,2.7415,2.7273,2.7013,2.6873,2.6587,2.6559,2.6136,2.5817,2.6358,2.6693,2.6865,2.6608,2.6226,2.5704,2.5399,2.5065,2.4758,2.4439,2.4232,2.363,2.3374,2.3387,2.3335,2.2892,2.2541,2.2366,2.1892,2.1257,2.1107,2.0981,2.0831,2.0532,2.0232,6.9558,6.844,6.683,6.5293,6.4234,6.4343,6.3999,6.3527,6.3274,6.3114,6.3273,6.5324,6.5685,6.5537,6.5186,6.4464,6.3815,6.3111,6.2428,6.1682,6.1153,6.0594,5.9849,5.9136,5.8103,5.7164,5.6193,5.5694,5.5536,5.5267,5.5017,5.4942,5.4703,5.4532,5.491,5.4772,5.4692,5.4777,5.4506,5.4399,5.3908,5.2898,5.1913,5.109,5.0546,4.9805,4.8972,4.8079,4.754,4.5987,4.4168,4.1558,3.9793,3.8403,3.7764,3.7147,3.686,3.651,3.596,3.5327,3.4712,3.4377,3.4359,3.4341,3.3884,3.4518,3.5467,3.5839,3.5971,3.6148,3.6073,3.5774,3.5756,3.5298,3.383,3.2347,3.0588,2.895,2.7848,2.6741,2.6686,2.6645,2.6495,2.6196,2.6088,2.5952,2.5884,2.5898,2.5884,2.583,2.6081,2.613,2.6108,2.5751,2.5608,2.5192,2.5007,2.4465,2.4312,2.4005,2.3673,2.3098,2.2743,2.2463,2.2236,2.1974,2.1575,2.1226,2.089,2.0243,1.9632,1.9332,1.9171,1.8721,1.8431,6.6863,6.4808,6.4763,6.38,6.2334,6.3527,6.3495,6.2388,6.3142,6.3169,6.2599,6.2599,6.3083,6.3211,6.3086,6.271,6.2086,6.1711,6.1555,6.0964,6.0373,5.9412,5.8542,5.7576,5.655,5.5575,5.512,5.5351,5.5018,5.4797,5.486,5.4999,5.3807,5.4014,5.4719,5.4501,5.4014,5.4315,5.4643,5.4563,5.4236,5.339,5.257,5.1748,5.0925,4.992,4.8809,4.7849,4.7192,4.5595,4.3177,4.0564,3.8963,3.7596,3.7082,3.677,3.6307,3.5718,3.5188,3.4395,3.3778,3.2449,3.2415,3.2666,3.2649,3.3426,3.406,3.4219,3.4467,3.5103,3.5084,3.4452,3.4168,3.3294,3.1947,3.0782,2.9128,2.8069,2.7152,2.6768,2.67,2.64,2.6224,2.6115,2.6074,2.5952,2.583,2.583,2.5884,2.5844,2.5789,2.5694,2.5586,2.5518,2.545,2.5077,2.4653,2.4251,2.3698,2.3187,2.2715,2.2599,2.2267,2.1512,2.1465,2.1382,2.0984,1.996,1.9279,1.8483,1.784,1.737,1.737,1.737,1.7229]},{"header":{"parameterUnit":"m.s-1","parameterCategory":1,"la1":31.0,"la2":29.5877,"lo1":-88.7671,"lo2":-86.6584,"dy":0.0162,"dx":0.0185,"nx":115,"ny":88,"refTime":"2023-10-11T06:00:00:Z","depth":0,"parameterNumber":3,"parameterNumberName":"V-component_of_WINDS"},"data":[0.0,0.0,0.0,0.0,0.0,0.0,0.0,0.0,0.0,0.0,0.0,0.0,0.0,0.0,0.0,0.0,0.0,0.0,0.0,0.0,0.0,0.0,0.0,0.0,0.0,0.0,0.0,0.0,0.0,0.0,0.0,0.0,0.0,0.0,0.0,0.0,0.0,0.0,0.0,0.0,0.0,0.0,0.0,0.0,0.0,0.0,0.0,0.0,0.0,0.0,0.0,0.0,0.0,0.0,0.0,0.0,0.0,0.0,0.0,0.0,0.0,0.0,0.0,0.0,0.0,0.0,0.0,0.0,0.0,0.0,0.0,0.0,0.0,0.0,0.0,0.0,0.0,0.0,0.0,0.0,0.0,0.0,0.0,0.0,0.0,0.0,0.0,0.0,0.0,0.0,0.0,0.0,0.0,0.0,0.0,0.0,0.0,0.0,0.0,0.0,0.0,0.0,0.0,0.0,0.0,0.0,0.0,0.0,0.0,0.0,0.0,0.0,0.0,0.0,0.0,0.0,0.0,0.0,0.0,0.0,0.0,0.0,0.0,0.0,0.0,0.0,0.0,0.0,0.0,0.0,0.0,0.0,0.0,0.0,0.0,0.0,0.0,0.0,0.0,0.0,0.0,0.0,0.0,0.0,0.0,0.0,0.0,0.0,0.0,0.0,0.0,0.0,0.0,0.0,0.0,0.0,0.0,0.0,0.0,0.0,0.0,0.0,0.0,0.0,0.0,0.0,0.0,0.0,0.0,0.0,0.0,0.0,0.0,0.0,0.0,0.0,0.0,0.0,0.0,0.0,0.0,0.0,0.0,0.0,0.0,0.0,0.0,0.0,0.0,0.0,0.0,0.0,0.0,0.0,0.0,0.0,0.0,0.0,0.0,0.0,0.0,0.0,0.0,0.0,0.0,0.0,0.0,0.0,0.0,0.0,0.0,0.0,0.0,0.0,0.0,0.0,0.0,0.0,0.0,0.0,0.0,0.0,0.0,0.0,0.0,0.0,0.0,0.0,0.0,0.0,0.0,0.0,0.0,0.0,0.0,0.0,0.0,0.0,0.0,0.0,0.0,0.0,0.0,0.0,0.0,0.0,0.0,0.0,0.0,0.0,0.0,0.0,0.0,0.0,0.0,0.0,0.0,0.0,0.0,0.0,0.0,0.0,0.0,0.0,0.0,0.0,0.0,0.0,0.0,0.0,0.0,0.0,0.0,0.0,0.0,0.0,0.0,0.0,0.0,0.0,0.0,0.0,0.0,0.0,0.0,0.0,0.0,0.0,0.0,0.0,0.0,0.0,0.0,0.0,0.0,0.0,0.0,0.0,0.0,0.0,0.0,0.0,0.0,0.0,0.0,0.0,0.0,0.0,0.0,0.0,0.0,0.0,0.0,0.0,0.0,0.0,0.0,0.0,0.0,0.0,0.0,0.0,0.0,0.0,0.0,0.0,0.0,0.0,0.0,0.0,0.0,0.0,0.0,0.0,0.0,0.0,0.0,0.0,0.0,0.0,0.0,0.0,0.0,0.0,0.0,0.0,0.0,0.0,0.0,0.0,0.0,0.0,0.0,0.0,0.0,0.0,0.0,0.0,0.0,0.0,0.0,0.0,0.0,0.0,0.0,0.0,0.0,0.0,0.0,0.0,0.0,0.0,0.0,0.0,0.0,0.0,0.0,0.0,0.0,0.0,0.0,0.0,0.0,0.0,0.0,0.0,0.0,0.0,0.0,0.0,0.0,0.0,0.0,0.0,0.0,0.0,0.0,0.0,0.0,0.0,0.0,0.0,0.0,0.0,0.0,0.0,0.0,0.0,0.0,0.0,0.0,0.0,0.0,0.0,0.0,0.0,0.0,0.0,0.0,0.0,0.0,0.0,0.0,0.0,0.0,0.0,0.0,0.0,0.0,0.0,0.0,0.0,0.0,0.0,0.0,0.0,0.0,0.0,0.0,0.0,0.0,0.0,0.0,0.0,0.0,0.0,0.0,0.0,0.0,0.0,0.0,0.0,0.0,0.0,0.0,0.0,0.0,0.0,0.0,0.0,0.0,0.0,0.0,0.0,0.0,0.0,0.0,0.0,0.0,0.0,0.0,0.0,0.0,0.0,0.0,0.0,0.0,0.0,0.0,0.0,0.0,0.0,0.0,0.0,0.0,0.0,0.0,0.0,0.0,0.0,0.0,0.0,0.0,0.0,0.0,0.0,0.0,0.0,0.0,0.0,0.0,0.0,0.0,0.0,0.0,0.0,0.0,0.0,0.0,0.0,0.0,0.0,0.0,0.0,0.0,0.0,0.0,0.0,0.0,0.0,0.0,0.0,0.0,0.0,0.0,0.0,0.0,0.0,0.0,0.0,0.0,0.0,0.0,0.0,0.0,0.0,0.0,0.0,0.0,0.0,0.0,0.0,0.0,0.0,0.0,0.0,0.0,0.0,0.0,0.0,0.0,0.0,0.0,0.0,0.0,0.0,0.0,0.0,0.0,0.0,0.0,0.0,0.0,0.0,0.0,0.0,0.0,0.0,0.0,0.0,0.0,0.0,0.0,0.0,0.0,0.0,0.0,0.0,0.0,0.0,0.0,0.0,0.0,0.0,0.0,0.0,0.0,0.0,0.0,0.0,0.0,0.0,0.0,0.0,0.0,0.0,0.0,0.0,0.0,0.0,0.0,0.0,0.0,0.0,0.0,0.0,0.0,0.0,0.0,0.0,0.0,0.0,0.0,0.0,0.0,0.0,0.0,0.0,0.0,0.0,0.0,0.0,0.0,0.0,0.0,0.0,0.0,0.0,0.0,0.0,0.0,0.0,0.0,0.0,0.0,0.0,0.0,0.0,0.0,0.0,0.0,0.0,0.0,0.0,0.0,0.0,0.0,0.0,0.0,0.0,0.0,0.0,0.0,0.0,0.0,0.0,0.0,0.0,0.0,0.0,0.0,0.0,0.0,0.0,0.0,0.0,0.0,0.0,0.0,0.0,0.0,0.0,0.0,0.0,0.0,0.0,0.0,0.0,0.0,0.0,0.0,0.0,0.0,0.0,0.0,0.0,0.0,0.0,0.0,0.0,0.0,0.0,0.0,0.0,0.0,0.0,0.0,0.0,0.0,0.0,0.0,0.0,0.0,0.0,0.0,0.0,0.0,0.0,0.0,0.0,0.0,0.0,0.0,0.0,0.0,0.0,0.0,0.0,0.0,0.0,0.0,0.0,0.0,0.0,0.0,0.0,0.0,0.0,0.0,0.0,0.0,0.0,0.0,0.0,0.0,0.0,0.0,0.0,0.0,0.0,0.0,0.0,0.0,0.0,0.0,0.0,0.0,0.0,0.0,0.0,0.0,0.0,0.0,0.0,0.0,0.0,0.0,0.0,0.0,0.0,0.0,0.0,0.0,0.0,0.0,0.0,0.0,0.0,0.0,0.0,0.0,0.0,0.0,0.0,0.0,0.0,0.0,0.0,0.0,0.0,0.0,0.0,0.0,0.0,0.0,0.0,0.0,0.0,0.0,0.0,0.0,0.0,0.0,0.0,0.0,0.0,0.0,0.0,0.0,0.0,0.0,0.0,0.0,0.0,0.0,0.0,0.0,0.0,0.0,0.0,0.0,0.0,0.0,0.0,0.0,0.0,0.0,0.0,0.0,0.0,0.0,0.0,0.0,0.0,0.0,0.0,0.0,0.0,0.0,0.0,0.0,0.0,0.0,0.0,0.0,0.0,0.0,0.0,0.0,0.0,0.0,0.0,0.0,0.0,0.0,0.0,0.0,0.0,0.0,0.0,0.0,0.0,0.0,0.0,0.0,0.0,0.0,0.0,0.0,0.0,0.0,0.0,0.0,0.0,0.0,0.0,0.0,0.0,0.0,0.0,0.0,0.0,0.0,0.0,0.0,0.0,0.0,0.0,0.0,0.0,0.0,0.0,0.0,0.0,0.0,0.0,0.0,0.0,0.0,0.0,0.0,0.0,0.0,0.0,0.0,0.0,0.0,0.0,0.0,0.0,0.0,0.0,0.0,0.0,0.0,0.0,0.0,0.0,0.0,0.0,0.0,0.0,0.0,0.0,0.0,0.0,0.0,0.0,0.0,0.0,0.0,0.0,0.0,0.0,0.0,0.0,0.0,0.0,0.0,0.0,0.0,0.0,0.0,0.0,0.0,0.0,0.0,0.0,0.0,0.0,0.0,0.0,0.0,0.0,0.0,0.0,0.0,0.0,0.0,0.0,0.0,0.0,0.0,0.0,0.0,0.0,0.0,0.0,0.0,0.0,0.0,0.0,0.0,0.0,0.0,0.0,4.9959,0.0,0.0,0.0,0.0,0.0,0.0,0.0,0.0,0.0,0.0,0.0,0.0,0.0,0.0,0.0,0.0,0.0,0.0,0.0,0.0,0.0,0.0,0.0,0.0,0.0,0.0,0.0,0.0,0.0,0.0,0.0,0.0,0.0,0.0,0.0,0.0,0.0,0.0,0.0,0.0,0.0,0.0,0.0,0.0,0.0,0.0,0.0,0.0,0.0,0.0,0.0,0.0,0.0,0.0,0.0,0.0,0.0,0.0,0.0,0.0,0.0,0.0,0.0,0.0,0.0,0.0,0.0,0.0,0.0,0.0,0.0,0.0,0.0,0.0,0.0,0.0,0.0,0.0,0.0,0.0,0.0,0.0,0.0,0.0,0.0,0.0,0.0,0.0,0.0,0.0,0.0,0.0,0.0,0.0,0.0,0.0,0.0,0.0,0.0,0.0,0.0,0.0,0.0,0.0,0.0,0.0,0.0,0.0,0.0,0.0,4.7417,4.8032,4.7709,4.7957,4.8805,0.0,0.0,0.0,0.0,0.0,0.0,0.0,0.0,0.0,0.0,0.0,0.0,0.0,0.0,0.0,0.0,0.0,0.0,0.0,0.0,0.0,0.0,0.0,0.0,0.0,0.0,0.0,0.0,0.0,0.0,0.0,0.0,0.0,0.0,0.0,0.0,0.0,0.0,0.0,0.0,0.0,0.0,0.0,0.0,0.0,0.0,0.0,0.0,0.0,0.0,0.0,0.0,0.0,0.0,0.0,0.0,0.0,0.0,0.0,0.0,0.0,0.0,0.0,0.0,0.0,0.0,0.0,0.0,0.0,0.0,0.0,0.0,0.0,0.0,0.0,0.0,0.0,0.0,0.0,0.0,0.0,0.0,0.0,0.0,0.0,0.0,0.0,0.0,0.0,0.0,0.0,0.0,0.0,0.0,0.0,0.0,0.0,0.0,0.0,0.0,0.0,0.0,0.0,0.0,0.0,0.0,0.0,0.0,0.0,0.0,0.0,0.0,4.6753,4.6941,4.7736,0.0,0.0,0.0,0.0,0.0,0.0,0.0,0.0,0.0,0.0,0.0,0.0,0.0,0.0,0.0,0.0,0.0,0.0,0.0,0.0,0.0,0.0,0.0,0.0,0.0,0.0,0.0,0.0,0.0,0.0,0.0,0.0,0.0,0.0,0.0,0.0,0.0,0.0,0.0,0.0,0.0,0.0,0.0,0.0,0.0,0.0,0.0,0.0,0.0,0.0,0.0,0.0,0.0,0.0,0.0,0.0,0.0,0.0,0.0,0.0,0.0,0.0,0.0,0.0,0.0,0.0,0.0,0.0,0.0,0.0,0.0,0.0,0.0,0.0,0.0,0.0,0.0,0.0,0.0,0.0,0.0,0.0,0.0,0.0,0.0,0.0,0.0,0.0,0.0,0.0,0.0,0.0,0.0,0.0,0.0,0.0,0.0,0.0,0.0,0.0,0.0,0.0,0.0,0.0,0.0,0.0,0.0,0.0,0.0,0.0,4.8133,4.7641,4.7444,0.0,4.8081,0.0,0.0,0.0,0.0,0.0,0.0,0.0,0.0,0.0,0.0,0.0,0.0,0.0,0.0,0.0,0.0,0.0,0.0,0.0,0.0,0.0,0.0,0.0,0.0,0.0,0.0,0.0,0.0,0.0,0.0,0.0,0.0,0.0,0.0,0.0,0.0,0.0,0.0,0.0,0.0,0.0,0.0,0.0,0.0,0.0,0.0,0.0,0.0,0.0,0.0,0.0,0.0,0.0,0.0,0.0,0.0,0.0,0.0,0.0,0.0,0.0,0.0,0.0,0.0,0.0,0.0,0.0,0.0,0.0,0.0,0.0,0.0,0.0,0.0,0.0,0.0,0.0,0.0,0.0,0.0,0.0,0.0,0.0,0.0,0.0,0.0,0.0,0.0,0.0,0.0,0.0,0.0,0.0,0.0,0.0,0.0,0.0,0.0,0.0,0.0,0.0,0.0,0.0,0.0,0.0,0.0,0.0,0.0,0.0,0.0,4.7627,4.7094,4.6841,4.7115,0.0,0.0,0.0,0.0,0.0,0.0,0.0,0.0,0.0,0.0,0.0,0.0,0.0,0.0,0.0,0.0,0.0,0.0,0.0,0.0,0.0,0.0,0.0,0.0,0.0,0.0,0.0,0.0,0.0,0.0,0.0,0.0,0.0,0.0,0.0,0.0,0.0,0.0,0.0,0.0,0.0,0.0,0.0,0.0,0.0,0.0,0.0,0.0,0.0,0.0,0.0,0.0,0.0,0.0,0.0,0.0,0.0,0.0,0.0,0.0,0.0,0.0,0.0,0.0,0.0,0.0,0.0,0.0,0.0,0.0,0.0,0.0,0.0,0.0,0.0,0.0,0.0,0.0,0.0,0.0,0.0,0.0,0.0,0.0,0.0,0.0,0.0,0.0,0.0,0.0,0.0,0.0,0.0,0.0,0.0,0.0,0.0,0.0,0.0,0.0,0.0,0.0,0.0,0.0,0.0,0.0,0.0,0.0,0.0,0.0,4.7185,4.6879,4.6189,4.6221,4.6724,4.7619,0.0,0.0,0.0,0.0,0.0,0.0,0.0,0.0,0.0,0.0,0.0,0.0,0.0,0.0,0.0,0.0,0.0,0.0,0.0,0.0,0.0,0.0,0.0,0.0,0.0,0.0,0.0,0.0,0.0,0.0,0.0,0.0,0.0,0.0,0.0,0.0,0.0,0.0,0.0,0.0,0.0,0.0,0.0,0.0,0.0,0.0,0.0,0.0,0.0,0.0,0.0,0.0,0.0,0.0,0.0,0.0,0.0,0.0,0.0,0.0,0.0,0.0,0.0,0.0,0.0,0.0,0.0,0.0,0.0,0.0,0.0,0.0,0.0,0.0,0.0,0.0,0.0,0.0,0.0,0.0,0.0,0.0,0.0,0.0,0.0,0.0,0.0,0.0,0.0,0.0,0.0,0.0,0.0,0.0,0.0,0.0,0.0,0.0,0.0,0.0,0.0,0.0,0.0,0.0,0.0,0.0,0.0,0.0,4.6126,4.6511,4.6077,4.4801,4.5933,4.6651,0.0,0.0,0.0,0.0,0.0,0.0,0.0,0.0,0.0,0.0,0.0,0.0,0.0,0.0,0.0,0.0,0.0,0.0,0.0,0.0,0.0,0.0,0.0,0.0,0.0,0.0,0.0,0.0,0.0,0.0,0.0,0.0,0.0,0.0,0.0,0.0,0.0,0.0,0.0,0.0,0.0,0.0,0.0,0.0,0.0,0.0,0.0,0.0,0.0,0.0,0.0,0.0,0.0,0.0,0.0,0.0,0.0,0.0,0.0,0.0,0.0,0.0,0.0,0.0,0.0,0.0,0.0,0.0,0.0,0.0,0.0,0.0,0.0,0.0,0.0,0.0,0.0,0.0,0.0,0.0,0.0,0.0,0.0,0.0,0.0,0.0,0.0,0.0,0.0,0.0,0.0,0.0,0.0,0.0,0.0,0.0,0.0,0.0,0.0,0.0,0.0,0.0,0.0,0.0,0.0,0.0,0.0,0.0,0.0,4.7906,4.7473,4.6508,4.5181,4.5837,4.6168,0.0,0.0,0.0,0.0,0.0,0.0,0.0,0.0,0.0,0.0,0.0,0.0,0.0,0.0,0.0,0.0,0.0,0.0,0.0,0.0,0.0,0.0,0.0,0.0,0.0,0.0,0.0,0.0,0.0,0.0,0.0,0.0,0.0,0.0,0.0,0.0,0.0,0.0,0.0,0.0,0.0,0.0,0.0,0.0,0.0,0.0,0.0,0.0,0.0,0.0,0.0,0.0,0.0,0.0,0.0,0.0,0.0,0.0,0.0,0.0,0.0,0.0,0.0,0.0,0.0,0.0,0.0,0.0,0.0,0.0,0.0,0.0,0.0,0.0,0.0,0.0,0.0,0.0,0.0,0.0,0.0,0.0,0.0,0.0,0.0,0.0,0.0,0.0,0.0,0.0,0.0,0.0,0.0,0.0,0.0,0.0,0.0,0.0,0.0,0.0,0.0,0.0,0.0,0.0,0.0,0.0,0.0,0.0,0.0,4.8291,0.0,4.6008,4.5273,4.5484,4.574,0.0,0.0,0.0,0.0,0.0,0.0,0.0,0.0,0.0,0.0,0.0,0.0,0.0,0.0,0.0,0.0,0.0,0.0,0.0,0.0,0.0,0.0,0.0,0.0,0.0,0.0,0.0,0.0,0.0,0.0,0.0,0.0,0.0,0.0,0.0,0.0,0.0,0.0,0.0,0.0,0.0,0.0,0.0,0.0,0.0,0.0,0.0,0.0,0.0,0.0,0.0,0.0,0.0,0.0,0.0,0.0,0.0,0.0,0.0,0.0,0.0,0.0,0.0,0.0,0.0,0.0,0.0,0.0,0.0,0.0,0.0,0.0,0.0,0.0,0.0,0.0,0.0,0.0,0.0,0.0,0.0,0.0,0.0,0.0,0.0,0.0,0.0,0.0,0.0,0.0,0.0,0.0,0.0,0.0,0.0,0.0,0.0,0.0,0.0,0.0,0.0,0.0,0.0,0.0,0.0,0.0,0.0,0.0,4.8406,4.6848,4.526,4.4765,4.4836,4.5078,4.5565,0.0,0.0,0.0,0.0,0.0,0.0,0.0,0.0,0.0,0.0,0.0,0.0,0.0,0.0,0.0,0.0,0.0,0.0,0.0,0.0,0.0,0.0,0.0,0.0,0.0,0.0,0.0,0.0,0.0,0.0,0.0,0.0,0.0,0.0,0.0,0.0,0.0,0.0,0.0,0.0,0.0,0.0,0.0,0.0,0.0,0.0,0.0,0.0,0.0,0.0,0.0,0.0,0.0,0.0,0.0,0.0,0.0,0.0,0.0,0.0,0.0,0.0,0.0,0.0,0.0,0.0,0.0,0.0,0.0,0.0,0.0,0.0,0.0,0.0,0.0,0.0,0.0,0.0,0.0,0.0,0.0,0.0,0.0,0.0,0.0,0.0,0.0,0.0,0.0,0.0,0.0,0.0,0.0,0.0,0.0,0.0,0.0,0.0,0.0,0.0,0.0,0.0,0.0,0.0,0.0,0.0,0.0,0.0,0.0,5.022,4.966,4.9035,4.8251,4.7921,4.7369,0.0,0.0,0.0,0.0,0.0,0.0,0.0,0.0,0.0,0.0,0.0,0.0,0.0,0.0,0.0,0.0,0.0,0.0,0.0,0.0,0.0,0.0,0.0,0.0,0.0,0.0,0.0,0.0,0.0,0.0,0.0,0.0,0.0,0.0,0.0,0.0,0.0,0.0,0.0,0.0,0.0,0.0,0.0,0.0,0.0,0.0,0.0,0.0,0.0,0.0,0.0,0.0,0.0,0.0,0.0,0.0,0.0,0.0,0.0,0.0,0.0,0.0,0.0,0.0,0.0,0.0,0.0,0.0,0.0,0.0,0.0,0.0,0.0,0.0,0.0,0.0,0.0,0.0,0.0,0.0,0.0,0.0,0.0,0.0,0.0,0.0,0.0,0.0,0.0,0.0,0.0,0.0,0.0,0.0,0.0,0.0,0.0,0.0,0.0,0.0,0.0,0.0,0.0,0.0,0.0,0.0,0.0,0.0,0.0,5.3558,5.2124,5.1042,5.0519,4.9945,4.8871,4.7375,0.0,0.0,0.0,0.0,0.0,0.0,0.0,0.0,0.0,0.0,0.0,0.0,0.0,0.0,0.0,0.0,0.0,0.0,0.0,0.0,0.0,0.0,0.0,0.0,0.0,0.0,0.0,0.0,0.0,0.0,0.0,0.0,0.0,0.0,0.0,0.0,0.0,0.0,0.0,0.0,0.0,0.0,0.0,0.0,0.0,0.0,0.0,0.0,0.0,0.0,0.0,0.0,0.0,0.0,0.0,0.0,0.0,0.0,0.0,0.0,0.0,0.0,0.0,0.0,0.0,0.0,0.0,0.0,0.0,0.0,0.0,0.0,0.0,0.0,0.0,0.0,0.0,0.0,0.0,0.0,0.0,0.0,0.0,0.0,0.0,0.0,0.0,0.0,0.0,0.0,0.0,0.0,0.0,0.0,0.0,0.0,0.0,0.0,0.0,0.0,0.0,0.0,0.0,0.0,0.0,0.0,0.0,0.0,5.7093,5.3478,5.1858,5.2181,5.146,5.0344,0.0,0.0,0.0,0.0,0.0,0.0,0.0,0.0,0.0,0.0,0.0,0.0,0.0,0.0,0.0,0.0,0.0,0.0,0.0,0.0,0.0,0.0,0.0,0.0,0.0,0.0,0.0,0.0,0.0,0.0,0.0,0.0,0.0,0.0,0.0,0.0,0.0,0.0,0.0,0.0,0.0,0.0,0.0,0.0,0.0,0.0,0.0,0.0,0.0,0.0,0.0,0.0,0.0,0.0,0.0,0.0,0.0,0.0,0.0,0.0,0.0,0.0,0.0,0.0,0.0,0.0,0.0,0.0,0.0,0.0,0.0,0.0,0.0,0.0,0.0,0.0,0.0,0.0,0.0,0.0,0.0,0.0,0.0,0.0,0.0,0.0,0.0,0.0,0.0,0.0,0.0,0.0,0.0,0.0,0.0,0.0,0.0,0.0,0.0,0.0,0.0,0.0,0.0,0.0,0.0,0.0,0.0,0.0,0.0,5.9575,6.1193,6.0847,5.8417,5.6087,5.4046,0.0,0.0,0.0,0.0,0.0,0.0,0.0,0.0,0.0,0.0,0.0,0.0,0.0,0.0,0.0,0.0,0.0,0.0,0.0,0.0,0.0,0.0,0.0,0.0,0.0,0.0,0.0,0.0,0.0,0.0,0.0,0.0,0.0,0.0,0.0,0.0,0.0,0.0,0.0,0.0,0.0,0.0,0.0,0.0,0.0,0.0,0.0,0.0,0.0,0.0,0.0,0.0,0.0,0.0,0.0,0.0,0.0,0.0,0.0,0.0,0.0,0.0,0.0,0.0,0.0,0.0,0.0,0.0,0.0,0.0,0.0,0.0,0.0,0.0,0.0,0.0,0.0,0.0,0.0,0.0,0.0,0.0,0.0,0.0,0.0,0.0,0.0,0.0,0.0,0.0,0.0,0.0,0.0,0.0,0.0,0.0,0.0,0.0,0.0,0.0,0.0,0.0,0.0,0.0,0.0,0.0,0.0,0.0,5.9967,6.219,6.6017,6.6808,6.431,6.0742,5.7539,0.0,0.0,0.0,0.0,0.0,0.0,0.0,0.0,0.0,0.0,0.0,0.0,0.0,0.0,0.0,0.0,0.0,0.0,0.0,0.0,0.0,0.0,0.0,0.0,0.0,0.0,0.0,0.0,0.0,0.0,0.0,0.0,0.0,0.0,0.0,0.0,0.0,0.0,0.0,0.0,0.0,0.0,0.0,0.0,0.0,0.0,0.0,0.0,0.0,0.0,0.0,0.0,0.0,0.0,0.0,0.0,0.0,0.0,0.0,0.0,0.0,0.0,0.0,0.0,0.0,0.0,0.0,0.0,0.0,0.0,0.0,0.0,0.0,0.0,0.0,0.0,0.0,0.0,0.0,0.0,0.0,0.0,0.0,0.0,0.0,0.0,0.0,0.0,0.0,0.0,0.0,0.0,0.0,0.0,0.0,0.0,0.0,0.0,0.0,0.0,0.0,0.0,0.0,0.0,0.0,0.0,0.0,0.0,6.2963,6.4977,6.9126,7.0679,6.9239,6.5013,6.0709,0.0,0.0,0.0,0.0,0.0,0.0,0.0,0.0,0.0,0.0,0.0,0.0,0.0,0.0,0.0,0.0,0.0,0.0,0.0,0.0,0.0,0.0,0.0,0.0,0.0,0.0,0.0,0.0,0.0,0.0,0.0,0.0,0.0,0.0,0.0,0.0,0.0,0.0,0.0,0.0,0.0,0.0,0.0,0.0,0.0,0.0,0.0,0.0,0.0,0.0,0.0,0.0,0.0,0.0,0.0,0.0,0.0,0.0,0.0,0.0,0.0,0.0,0.0,0.0,0.0,0.0,0.0,0.0,0.0,0.0,0.0,0.0,0.0,0.0,0.0,0.0,0.0,0.0,0.0,0.0,0.0,0.0,0.0,0.0,0.0,0.0,0.0,0.0,0.0,0.0,0.0,0.0,0.0,0.0,0.0,0.0,0.0,0.0,0.0,0.0,0.0,0.0,0.0,0.0,0.0,0.0,0.0,0.0,6.5978,6.8437,7.2169,7.3133,7.1338,6.6374,6.2387,0.0,0.0,0.0,0.0,0.0,0.0,0.0,0.0,0.0,0.0,0.0,0.0,0.0,0.0,0.0,0.0,0.0,0.0,0.0,0.0,0.0,0.0,0.0,0.0,0.0,0.0,0.0,0.0,0.0,0.0,0.0,0.0,0.0,0.0,0.0,0.0,0.0,0.0,0.0,0.0,0.0,0.0,0.0,0.0,0.0,0.0,0.0,0.0,5.877,0.0,0.0,0.0,0.0,0.0,0.0,0.0,0.0,0.0,0.0,0.0,0.0,0.0,0.0,0.0,0.0,0.0,0.0,0.0,0.0,0.0,0.0,0.0,0.0,0.0,0.0,0.0,0.0,0.0,0.0,0.0,0.0,0.0,0.0,0.0,0.0,0.0,0.0,0.0,0.0,0.0,0.0,0.0,0.0,0.0,0.0,0.0,0.0,0.0,0.0,0.0,0.0,0.0,0.0,0.0,0.0,0.0,0.0,0.0,6.8045,7.1201,7.3922,7.427,7.1936,6.7991,6.4569,0.0,0.0,0.0,0.0,0.0,0.0,0.0,0.0,0.0,0.0,0.0,0.0,0.0,0.0,0.0,0.0,0.0,0.0,0.0,0.0,0.0,0.0,0.0,0.0,0.0,0.0,0.0,0.0,0.0,0.0,0.0,0.0,0.0,0.0,0.0,0.0,0.0,0.0,0.0,0.0,0.0,0.0,0.0,0.0,0.0,0.0,0.0,0.0,0.0,0.0,0.0,0.0,0.0,0.0,0.0,0.0,0.0,0.0,0.0,0.0,0.0,0.0,0.0,0.0,0.0,0.0,0.0,0.0,0.0,0.0,0.0,0.0,0.0,0.0,0.0,0.0,0.0,0.0,0.0,0.0,0.0,0.0,0.0,0.0,0.0,0.0,0.0,0.0,0.0,0.0,0.0,0.0,0.0,0.0,0.0,0.0,0.0,0.0,0.0,0.0,0.0,0.0,0.0,0.0,0.0,0.0,0.0,6.6087,6.9734,7.3469,7.5219,7.4749,7.2116,6.956,6.6759,6.3679,0.0,0.0,0.0,0.0,0.0,0.0,0.0,0.0,0.0,0.0,0.0,0.0,0.0,0.0,0.0,0.0,0.0,0.0,0.0,0.0,0.0,0.0,0.0,0.0,0.0,0.0,0.0,0.0,0.0,0.0,0.0,0.0,0.0,0.0,0.0,0.0,0.0,0.0,5.4805,5.6495,0.0,0.0,0.0,0.0,0.0,0.0,0.0,0.0,6.1926,0.0,0.0,0.0,0.0,0.0,0.0,0.0,0.0,0.0,0.0,0.0,0.0,0.0,0.0,0.0,0.0,0.0,0.0,0.0,0.0,0.0,0.0,0.0,0.0,0.0,0.0,0.0,0.0,0.0,0.0,0.0,0.0,0.0,0.0,0.0,0.0,0.0,0.0,0.0,0.0,0.0,0.0,0.0,0.0,0.0,0.0,0.0,0.0,0.0,0.0,0.0,0.0,0.0,0.0,0.0,0.0,6.5474,6.8271,7.1495,7.5359,7.6225,7.5407,7.2834,7.0408,6.8194,6.5779,0.0,0.0,0.0,0.0,0.0,0.0,0.0,0.0,0.0,0.0,0.0,0.0,0.0,0.0,0.0,0.0,0.0,0.0,0.0,0.0,0.0,0.0,0.0,0.0,0.0,0.0,0.0,0.0,0.0,0.0,0.0,0.0,0.0,0.0,0.0,0.0,0.0,0.0,0.0,6.0082,6.1333,0.0,0.0,0.0,0.0,0.0,0.0,0.0,0.0,6.3161,0.0,0.0,0.0,0.0,0.0,0.0,0.0,0.0,0.0,0.0,0.0,0.0,0.0,0.0,0.0,0.0,0.0,0.0,0.0,0.0,0.0,0.0,0.0,0.0,0.0,0.0,0.0,0.0,0.0,0.0,0.0,0.0,0.0,0.0,0.0,0.0,0.0,0.0,0.0,0.0,0.0,0.0,0.0,0.0,0.0,0.0,0.0,0.0,0.0,0.0,0.0,0.0,0.0,0.0,0.0,6.7157,7.0421,7.357,7.6773,7.6632,7.5677,7.3971,7.0863,6.8294,0.0,0.0,0.0,0.0,0.0,0.0,0.0,0.0,0.0,0.0,0.0,0.0,0.0,0.0,0.0,0.0,0.0,0.0,0.0,0.0,0.0,0.0,0.0,0.0,0.0,0.0,0.0,0.0,0.0,0.0,0.0,0.0,0.0,0.0,0.0,0.0,0.0,0.0,0.0,0.0,6.2362,6.3546,6.4761,0.0,0.0,0.0,0.0,0.0,0.0,6.5643,6.5491,0.0,0.0,0.0,0.0,0.0,0.0,0.0,0.0,0.0,0.0,0.0,0.0,0.0,0.0,0.0,0.0,0.0,0.0,0.0,0.0,0.0,0.0,0.0,0.0,0.0,0.0,0.0,0.0,0.0,0.0,0.0,0.0,0.0,0.0,0.0,0.0,0.0,0.0,0.0,0.0,0.0,0.0,0.0,0.0,0.0,0.0,0.0,0.0,0.0,0.0,0.0,0.0,0.0,0.0,0.0,6.8285,7.1739,7.4864,7.7468,7.6646,7.5636,7.4552,7.0809,6.8065,0.0,0.0,0.0,0.0,0.0,0.0,0.0,0.0,0.0,0.0,0.0,0.0,0.0,0.0,0.0,0.0,0.0,0.0,0.0,0.0,0.0,0.0,0.0,0.0,0.0,0.0,0.0,0.0,0.0,0.0,0.0,0.0,0.0,0.0,0.0,0.0,0.0,0.0,0.0,0.0,0.0,6.5816,6.6465,6.6953,0.0,0.0,0.0,0.0,6.7885,6.7915,0.0,0.0,0.0,0.0,0.0,0.0,0.0,0.0,0.0,0.0,0.0,0.0,0.0,0.0,0.0,0.0,0.0,0.0,0.0,0.0,0.0,0.0,0.0,0.0,0.0,0.0,0.0,0.0,0.0,0.0,0.0,0.0,0.0,0.0,0.0,0.0,0.0,0.0,0.0,0.0,0.0,0.0,0.0,0.0,0.0,0.0,0.0,0.0,0.0,0.0,0.0,0.0,0.0,0.0,0.0,0.0,6.8271,7.1511,7.4503,7.7038,7.6289,7.5105,7.3554,7.0101,6.7593,0.0,0.0,0.0,0.0,0.0,0.0,0.0,0.0,0.0,0.0,0.0,0.0,0.0,0.0,0.0,0.0,0.0,0.0,0.0,0.0,0.0,0.0,0.0,0.0,0.0,0.0,0.0,0.0,0.0,0.0,0.0,0.0,0.0,0.0,0.0,0.0,0.0,0.0,0.0,0.0,0.0,6.8243,6.9575,6.986,6.951,0.0,0.0,6.8798,6.8216,6.9895,0.0,0.0,0.0,0.0,0.0,0.0,0.0,0.0,0.0,0.0,0.0,0.0,0.0,0.0,0.0,0.0,0.0,0.0,0.0,0.0,0.0,0.0,0.0,0.0,0.0,0.0,0.0,0.0,0.0,0.0,0.0,0.0,0.0,0.0,0.0,0.0,0.0,0.0,0.0,0.0,0.0,0.0,0.0,0.0,0.0,0.0,0.0,0.0,0.0,0.0,0.0,0.0,0.0,0.0,0.0,6.7086,7.0164,7.3646,7.6487,7.8589,7.7131,7.5934,7.5309,7.1086,6.8464,0.0,0.0,0.0,0.0,0.0,0.0,0.0,0.0,0.0,0.0,0.0,0.0,0.0,0.0,0.0,0.0,0.0,0.0,0.0,0.0,0.0,0.0,0.0,0.0,0.0,0.0,0.0,0.0,0.0,0.0,0.0,0.0,0.0,0.0,0.0,0.0,0.0,0.0,0.0,0.0,0.0,0.0,7.0448,7.2293,0.0,0.0,0.0,7.2534,7.2366,0.0,0.0,0.0,0.0,0.0,0.0,0.0,0.0,0.0,0.0,0.0,0.0,0.0,0.0,0.0,0.0,0.0,0.0,0.0,0.0,0.0,0.0,0.0,0.0,0.0,0.0,0.0,0.0,0.0,0.0,0.0,0.0,0.0,0.0,0.0,0.0,0.0,0.0,0.0,0.0,0.0,0.0,0.0,0.0,0.0,0.0,0.0,0.0,0.0,0.0,0.0,0.0,0.0,0.0,0.0,0.0,0.0,7.1566,7.5392,7.812,7.9736,7.796,7.6894,7.6573,7.2262,0.0,0.0,0.0,0.0,0.0,0.0,0.0,0.0,0.0,0.0,0.0,0.0,0.0,0.0,0.0,0.0,0.0,0.0,0.0,0.0,0.0,0.0,0.0,0.0,0.0,0.0,0.0,5.8606,0.0,0.0,0.0,0.0,0.0,0.0,0.0,0.0,0.0,0.0,0.0,0.0,0.0,0.0,7.2639,7.1745,7.4484,7.6493,0.0,0.0,7.569,7.5842,7.5766,7.5271,0.0,0.0,0.0,0.0,0.0,0.0,0.0,0.0,0.0,0.0,0.0,0.0,0.0,0.0,0.0,0.0,0.0,0.0,0.0,0.0,0.0,0.0,0.0,0.0,0.0,0.0,0.0,0.0,0.0,0.0,0.0,0.0,0.0,0.0,0.0,0.0,0.0,0.0,0.0,0.0,0.0,0.0,0.0,0.0,0.0,0.0,0.0,0.0,0.0,0.0,0.0,0.0,0.0,0.0,0.0,7.126,7.5495,7.8538,8.0021,7.8523,7.7222,7.6278,7.3211,7.0518,0.0,0.0,0.0,0.0,0.0,0.0,0.0,0.0,0.0,0.0,0.0,0.0,0.0,0.0,0.0,0.0,0.0,0.0,0.0,0.0,0.0,0.0,0.0,0.0,0.0,0.0,0.0,0.0,0.0,0.0,0.0,0.0,0.0,0.0,0.0,0.0,0.0,0.0,0.0,0.0,0.0,7.4419,7.4299,7.6521,7.8259,0.0,0.0,7.7069,7.7069,7.8111,7.7814,7.4404,0.0,0.0,0.0,0.0,0.0,0.0,0.0,0.0,0.0,0.0,0.0,0.0,0.0,0.0,0.0,0.0,0.0,0.0,0.0,0.0,0.0,0.0,0.0,0.0,0.0,0.0,0.0,0.0,0.0,0.0,0.0,0.0,0.0,0.0,0.0,0.0,0.0,0.0,0.0,0.0,0.0,0.0,0.0,0.0,0.0,0.0,0.0,0.0,0.0,0.0,0.0,0.0,0.0,7.0693,7.2638,7.6959,7.9902,8.1108,7.9486,7.8417,7.7826,7.4728,7.1842,0.0,0.0,0.0,0.0,0.0,0.0,0.0,0.0,0.0,0.0,0.0,0.0,0.0,0.0,0.0,0.0,0.0,0.0,0.0,0.0,0.0,0.0,0.0,0.0,0.0,0.0,0.0,0.0,6.3864,6.4609,6.5562,0.0,0.0,0.0,0.0,0.0,0.0,0.0,0.0,0.0,0.0,7.7451,7.8129,8.0312,0.0,0.0,8.0405,7.9732,7.9447,7.8728,7.7632,7.5823,7.4206,0.0,0.0,0.0,0.0,0.0,0.0,0.0,0.0,0.0,0.0,0.0,0.0,0.0,0.0,0.0,0.0,0.0,0.0,0.0,0.0,0.0,0.0,0.0,0.0,0.0,0.0,0.0,0.0,0.0,0.0,0.0,0.0,0.0,0.0,0.0,0.0,0.0,0.0,0.0,0.0,0.0,0.0,0.0,0.0,0.0,0.0,0.0,0.0,0.0,0.0,0.0,0.0,7.2055,7.4121,7.8446,8.1213,8.235,8.081,7.9662,7.9058,7.6301,7.3546,0.0,0.0,0.0,0.0,0.0,0.0,0.0,0.0,0.0,0.0,0.0,0.0,0.0,0.0,0.0,0.0,0.0,0.0,0.0,0.0,0.0,0.0,0.0,0.0,0.0,0.0,0.0,0.0,6.6138,6.6939,6.767,0.0,0.0,0.0,0.0,0.0,0.0,0.0,0.0,0.0,0.0,7.9831,8.0384,8.2381,8.3611,8.3224,8.2498,8.1951,8.2081,8.0375,7.8704,7.7884,0.0,0.0,0.0,0.0,0.0,0.0,0.0,0.0,0.0,0.0,0.0,0.0,0.0,0.0,0.0,0.0,0.0,0.0,0.0,0.0,0.0,0.0,0.0,0.0,0.0,0.0,0.0,0.0,0.0,0.0,5.4678,0.0,0.0,0.0,0.0,0.0,0.0,0.0,0.0,0.0,0.0,0.0,0.0,0.0,0.0,0.0,0.0,0.0,0.0,0.0,0.0,0.0,0.0,7.2916,7.5383,7.9555,8.2409,8.3606,8.2409,8.1093,7.9836,7.7861,7.5618,7.3308,0.0,0.0,0.0,0.0,0.0,0.0,0.0,0.0,0.0,0.0,0.0,0.0,0.0,0.0,0.0,0.0,0.0,0.0,0.0,0.0,0.0,0.0,0.0,0.0,0.0,0.0,6.6881,6.7847,6.9059,0.0,0.0,0.0,0.0,0.0,0.0,0.0,0.0,0.0,0.0,7.8408,8.1232,8.0645,8.1988,8.3644,8.4763,8.3687,8.3308,8.4811,8.3397,8.1721,0.0,0.0,0.0,0.0,0.0,0.0,0.0,0.0,0.0,0.0,0.0,0.0,0.0,0.0,0.0,0.0,0.0,0.0,0.0,0.0,0.0,0.0,0.0,0.0,0.0,0.0,0.0,5.996,5.9202,0.0,0.0,0.0,0.0,0.0,0.0,0.0,0.0,0.0,0.0,0.0,6.8018,6.878,0.0,0.0,0.0,0.0,0.0,0.0,0.0,0.0,0.0,0.0,0.0,0.0,7.3917,7.653,8.0829,8.3487,8.4325,8.3431,8.2499,8.1523,7.9826,7.7413,7.4181,0.0,0.0,0.0,0.0,0.0,0.0,0.0,0.0,0.0,0.0,0.0,0.0,0.0,0.0,0.0,0.0,0.0,0.0,0.0,0.0,0.0,0.0,0.0,0.0,0.0,6.9677,0.0,0.0,0.0,0.0,0.0,0.0,0.0,0.0,0.0,0.0,0.0,7.7447,8.0228,8.3306,8.5449,8.5491,8.6942,8.7783,0.0,0.0,0.0,0.0,0.0,0.0,0.0,0.0,0.0,0.0,0.0,0.0,0.0,0.0,8.1427,7.648,7.5905,7.6422,7.7464,0.0,0.0,0.0,0.0,0.0,0.0,0.0,0.0,0.0,0.0,0.0,0.0,0.0,0.0,6.3635,0.0,6.333,0.0,0.0,0.0,0.0,0.0,0.0,0.0,0.0,6.9704,7.1942,7.3357,7.4063,7.4504,0.0,7.3892,7.1901,0.0,0.0,0.0,0.0,0.0,0.0,0.0,0.0,7.5508,7.78,8.2065,8.4736,8.5516,8.4758,8.3913,8.3153,8.1471,7.9239,7.6349,7.4028,7.2062,0.0,0.0,0.0,0.0,0.0,0.0,0.0,0.0,0.0,0.0,0.0,0.0,0.0,0.0,0.0,0.0,0.0,0.0,0.0,0.0,0.0,0.0,0.0,7.1817,0.0,0.0,0.0,0.0,0.0,0.0,0.0,0.0,0.0,7.8533,7.9701,8.1657,8.4274,8.6376,8.7644,8.782,0.0,0.0,0.0,0.0,0.0,0.0,0.0,8.6194,8.6386,8.6147,8.6646,8.8426,8.9126,8.9507,8.9825,0.0,0.0,8.23,8.1654,8.2486,8.3507,8.3721,8.4404,8.6674,8.7301,8.7786,0.0,0.0,0.0,0.0,0.0,0.0,0.0,0.0,6.8183,6.7062,0.0,6.6508,0.0,0.0,0.0,0.0,0.0,6.835,0.0,0.0,7.6886,7.9152,7.9455,7.9589,7.9451,7.9155,7.7908,7.6966,7.6005,7.2631,0.0,0.0,0.0,0.0,0.0,0.0,7.7723,7.9267,8.3401,8.6101,8.7368,8.6547,8.5665,8.457,8.2705,8.1138,7.9774,7.8084,7.653,7.5109,7.2826,0.0,0.0,0.0,0.0,0.0,0.0,0.0,0.0,0.0,0.0,0.0,0.0,0.0,0.0,0.0,0.0,0.0,0.0,0.0,0.0,7.2091,0.0,0.0,0.0,0.0,0.0,0.0,0.0,0.0,0.0,0.0,8.3125,8.4727,8.6007,8.6543,0.0,0.0,0.0,0.0,8.8879,9.0536,9.0531,9.0841,9.2399,9.1949,9.168,9.2392,0.0,0.0,9.4791,9.4405,9.4163,9.5095,9.5643,9.4217,8.8965,8.9206,9.0207,9.0379,9.1101,9.2185,9.3392,9.3818,9.3699,7.7318,0.0,0.0,0.0,0.0,7.1234,7.196,7.2613,7.2936,7.2763,7.2315,7.2143,0.0,0.0,0.0,0.0,0.0,0.0,7.5899,7.8901,8.1556,8.353,8.501,8.5377,8.5395,8.5089,8.4397,8.3806,8.3167,8.1892,7.835,7.272,0.0,0.0,0.0,0.0,8.0541,8.3704,8.6437,8.8346,8.9626,8.9038,8.7964,8.6545,8.5292,8.3944,8.2567,8.0883,7.9124,7.7301,7.6057,0.0,0.0,0.0,0.0,0.0,0.0,0.0,0.0,0.0,0.0,0.0,0.0,0.0,0.0,0.0,0.0,0.0,0.0,0.0,7.7291,7.7009,7.7169,0.0,0.0,0.0,0.0,0.0,0.0,0.0,0.0,0.0,9.2321,8.9878,8.8882,0.0,0.0,9.2977,9.3152,9.3555,9.4408,9.5585,9.5053,0.0,9.5916,9.5558,9.5407,9.61,9.721,9.8398,9.9693,10.0457,10.1195,10.2121,10.2526,10.2078,10.0739,9.7539,9.6031,9.6849,9.7772,9.9077,10.1105,10.1659,10.1757,8.3469,7.8648,7.692,7.6172,7.6144,7.7002,7.7729,7.8339,7.8478,7.8124,7.7372,7.7018,7.5933,7.4589,7.545,0.0,0.0,0.0,8.1507,8.4516,8.618,8.7832,8.9353,8.9887,8.9894,8.9437,8.9529,8.9219,8.862,8.8075,8.5374,8.075,0.0,0.0,7.8599,8.1354,8.4145,8.685,8.8883,9.0544,9.1835,9.0815,8.9784,8.8826,8.7482,8.6308,8.5244,8.3613,8.1844,7.9756,7.8628,7.7181,0.0,0.0,0.0,0.0,0.0,0.0,0.0,0.0,0.0,0.0,0.0,7.1658,7.1687,0.0,0.0,0.0,7.7064,7.912,8.0461,8.0157,0.0,0.0,0.0,0.0,0.0,0.0,0.0,9.0311,9.2789,9.5488,9.8109,9.5777,9.4237,9.5453,9.5916,9.6447,9.7078,0.0,9.8409,9.9981,9.9657,9.941,9.9872,9.9833,10.0008,10.0789,10.2078,10.3415,10.4569,10.5364,10.6109,10.6887,10.7393,10.7575,10.7498,10.5163,10.3199,10.3074,10.3902,10.522,10.6781,10.7312,10.7649,8.9471,8.7874,8.4714,8.345,8.3562,8.3484,8.4075,8.4983,8.4325,8.2984,8.1184,8.1213,8.0244,7.8567,7.9554,0.0,8.3503,8.4891,8.6937,8.9511,9.0928,9.2002,9.2954,9.3558,9.3427,9.2732,9.353,9.3619,9.2994,9.2141,9.1554,9.1229,8.7432,8.4653,8.328,8.6144,8.8226,8.905,9.1068,9.2754,9.409,9.2344,9.1271,9.1083,8.9418,8.817,8.7412,8.6021,8.4378,8.2355,8.0643,7.9321,7.8059,0.0,0.0,0.0,0.0,0.0,0.0,0.0,0.0,0.0,0.0,0.0,0.0,0.0,0.0,0.0,7.9892,0.0,8.2455,8.2285,0.0,0.0,0.0,8.7188,8.9771,9.1643,9.3468,9.5315,0.0,0.0,10.1379,10.1769,10.1283,9.9801,9.9182,9.9089,10.0001,10.0447,10.1437,10.3693,10.3924,10.3907,10.4029,10.4399,10.4957,10.5789,10.6809,10.767,10.8888,10.934,10.956,11.016,11.0763,11.1227,11.0625,11.1559,11.1886,10.884,10.9422,11.0388,11.0439,11.0943,11.1231,9.3707,9.1768,9.0946,8.9038,8.6619,8.6619,8.7058,8.7676,8.7018,8.6519,8.6002,8.5503,8.5324,8.5346,8.5774,8.7211,8.9319,9.0003,9.1454,9.3643,9.5096,9.5915,9.6264,9.7495,9.7778,9.7155,9.7653,9.7514,9.6965,9.72,9.6902,9.6129,9.5071,9.2395,8.8563,8.9939,9.1722,9.3839,9.4151,9.4933,9.6081,9.5224,9.3823,9.2008,9.0492,8.8893,8.7412,8.6021,8.4567,8.305,8.21,8.0774,7.8942,7.8559,0.0,0.0,0.0,0.0,0.0,0.0,0.0,0.0,0.0,7.5016,7.5842,0.0,8.0631,0.0,8.3042,8.5568,8.8367,8.7665,0.0,0.0,9.0563,9.2413,9.3883,9.6782,9.9111,10.0223,10.2051,10.3701,10.5004,10.5861,10.6353,10.6249,10.4345,10.3361,10.4307,10.4369,10.4947,10.6477,10.6351,10.6239,10.7575,10.8166,10.859,10.9397,10.975,11.0428,11.2113,11.2607,11.3084,11.4005,11.449,11.4775,11.4751,11.5236,11.5288,11.4783,11.4194,11.3586,11.3289,11.3721,11.4113,9.6984,9.5496,9.5496,9.4335,9.2319,8.9986,8.9665,9.0536,8.9728,8.9478,8.983,8.9035,8.9137,8.9738,9.0709,9.1861,9.3318,9.4782,9.5802,9.6542,9.8193,9.896,9.896,9.9934,10.0368,10.008,10.0581,10.0668,10.0445,10.1383,10.1476,10.0845,10.1494,9.9926,9.6318,9.4947,9.5023,9.6714,9.6962,9.7275,9.7786,9.6826,9.5071,9.2452,9.0881,8.9153,8.7203,8.57,8.4504,8.3746,8.2865,8.1727,8.0143,7.9886,7.9237,0.0,0.0,0.0,0.0,0.0,0.0,0.0,0.0,0.0,0.0,0.0,8.4478,8.6086,8.7856,8.9835,9.2256,9.1885,9.2021,9.3319,9.544,9.7249,9.8524,10.1138,10.3219,10.4157,10.5561,10.7039,10.8206,10.9056,10.9875,11.0757,10.965,10.8478,10.804,10.8125,10.8888,10.9962,10.9989,11.0002,11.0866,11.098,11.1362,11.1829,11.2241,11.2921,11.4224,11.4589,11.5007,11.5818,11.6105,11.6265,11.6528,11.6632,11.6684,11.6736,11.6632,11.6042,11.5496,11.5692,11.5889,9.9554,9.8865,9.8865,9.8774,9.8263,9.3619,9.2387,9.3749,9.2627,9.2588,9.3302,9.2548,9.2534,9.3281,9.4873,9.584,9.6503,9.8767,9.9514,9.8932,10.055,10.1423,10.1694,10.1992,10.2451,10.2904,10.3358,10.3672,10.3919,10.497,10.5362,10.5106,10.6379,10.6091,10.4032,10.0194,9.8332,9.8521,9.9496,9.9796,9.9281,9.7807,9.5719,9.2887,9.1072,8.9216,8.712,8.5443,8.4567,8.4571,8.3569,8.249,8.1661,8.1027,8.0499,0.0,8.006,0.0,0.0,0.0,0.0,0.0,0.0,0.0,0.0,8.5624,8.8327,9.2317,9.3259,9.4123,9.5229,9.572,9.6622,9.8285,10.0021,10.1648,10.3162,10.5052,10.6529,10.745,10.8348,10.9457,11.0933,11.1379,11.2118,11.3364,11.3385,11.2651,11.1431,11.1546,11.2226,11.3147,11.3842,11.3558,11.3204,11.3261,11.3504,11.3873,11.4412,11.5223,11.585,11.6032,11.6249,11.6678,11.6784,11.6942,11.715,11.7202,11.7202,11.7274,11.7781,11.7801,11.7057,11.6912,11.6984,10.1809,10.0555,10.0555,10.0081,9.9141,9.7031,9.6648,9.7461,9.7223,9.7193,9.7371,9.7411,9.7646,9.8075,9.8902,9.9429,9.9808,10.0644,10.1247,10.1641,10.2687,10.3799,10.4945,10.6078,10.6963,10.7576,10.839,10.8822,10.8868,10.9115,10.8634,10.749,10.7392,10.6652,10.5178,0.0,0.0,0.0,10.201,10.2307,10.088,9.8876,9.6657,9.4104,9.1776,0.0,8.8651,8.6917,8.6026,8.5895,8.4698,0.0,0.0,0.0,0.0,0.0,0.0,0.0,0.0,0.0,0.0,0.0,9.2137,9.1497,8.8613,9.0847,9.3757,9.684,9.7789,9.8661,9.9778,10.0456,10.1321,10.2513,10.3531,10.4945,10.6948,10.8591,10.9759,11.0125,11.1447,11.2268,11.2283,11.24,11.2869,11.3951,11.3248,11.3063,11.3845,11.3744,11.3842,11.4054,11.444,11.4612,11.4399,11.464,11.508,11.586,11.6257,11.6726,11.756,11.7976,11.8139,11.83,11.8459,11.8618,11.8723,11.8795,11.865,11.8723,11.8868,11.8578,11.7202,11.7419,11.7709,10.3907,10.313,10.2869,10.2308,0.0,10.1215,10.104,10.1321,9.9247,9.9073,10.031,10.0853,10.1214,10.1543,10.2194,10.2451,10.2467,10.3628,10.4113,10.4214,10.6103,10.7414,10.8042,10.9226,10.997,11.0436,11.0646,11.0659,11.0492,11.0907,11.0556,10.9458,11.0005,10.9454,10.8102,10.7716,10.6219,10.354,10.4252,10.4083,10.2933,10.1564,9.9199,9.591,9.3965,0.0,0.0,0.0,0.0,0.0,0.0,0.0,0.0,8.6727,0.0,8.7425,8.8893,9.0493,9.2237,9.3857,9.5562,9.7354,9.9608,9.9254,9.5095,9.6878,9.8924,10.0683,10.1784,10.2876,10.3815,10.4755,10.5567,10.651,10.7418,10.8591,10.9937,11.0723,11.1379,11.1848,11.2329,11.274,11.3281,11.3584,11.4196,11.5362,11.5224,11.511,11.5751,11.5281,11.4882,11.5664,11.5921,11.6036,11.6036,11.6221,11.6447,11.7172,11.7355,11.7665,11.8463,11.8697,11.8858,11.8965,11.9124,11.923,11.923,11.923,11.923,11.923,11.923,11.9157,11.865,11.865,11.8578,10.6206,10.6049,10.5391,10.5091,10.5091,10.4972,10.4852,10.4457,0.0,0.0,0.0,10.3358,10.3851,10.4246,10.4826,10.506,10.4933,10.6545,10.706,10.693,10.9311,11.0695,11.125,11.1991,11.2569,11.2798,11.2483,11.2223,11.1885,11.2558,11.2567,11.1985,11.3021,11.2827,11.1531,11.0835,10.9555,10.7622,10.6441,10.5451,10.4834,10.3851,10.1668,9.7964,9.6543,9.4579,9.2152,9.0077,8.898,8.8851,8.872,8.846,8.8006,9.0228,9.1531,9.1395,9.3011,9.4967,9.722,9.8729,10.0792,10.357,10.5833,10.5595,10.1843,10.2673,10.3611,10.4237,10.567,10.6705,10.7326,10.8396,10.9337,11.0085,11.0888,11.1706,11.2435,11.2433,11.2651,11.3133,11.2793,11.2863,11.4267,11.4568,11.5295,11.6704,11.6734,11.7119,11.7119,11.6277,11.5992,11.7062,11.7262,11.7462,11.759,11.7575,11.7759,11.8023,11.8023,11.8261,11.8697,11.8858,11.8965,11.9177,11.923,11.923,11.923,11.923,11.923,11.923,11.923,11.9447,12.0099,11.9862,11.9282,10.9199,10.8802,10.8084,10.7785,10.7785,10.7186,10.6647,10.5989,10.4278,10.4025,10.4772,10.5302,10.5769,10.6355,10.6784,10.7179,10.7598,10.7908,10.9071,11.0844,11.1126,11.239,11.4485,11.4792,11.5355,11.5999,11.6239,11.6433,11.6347,11.6433,11.6195,11.5547,11.5676,11.5029,11.3733,11.3287,11.259,11.1279,10.8418,10.6539,10.5554,10.3654,10.2082,10.0759,9.8301,9.6452,9.5339,9.3802,9.268,9.2039,9.1526,9.1932,9.3582,9.4529,9.5796,9.7856,9.9918,10.1583,10.2505,10.4249,10.6199,10.8358,10.984,10.9546,10.7071,10.7002,10.7415,10.8161,10.924,10.9982,11.019,11.1057,11.1979,11.2609,11.2851,11.3339,11.4183,11.4041,11.397,11.4399,11.417,11.4254,11.5265,11.5096,11.5423,11.6791,11.6634,11.5906,11.662,11.6905,11.719,11.7462,11.7703,11.7816,11.7944,11.8095,11.8316,11.8643,11.8643,11.8697,11.9071,11.9124,11.9177,11.923,11.923,11.923,11.923,11.923,11.923,11.923,11.923,11.9592,12.0316,12.0092,11.9781,11.0922,11.0358,10.97,10.946,10.94,10.904,10.8479,10.7976,10.7605,10.7074,10.6755,10.7228,10.7454,10.7705,10.8536,10.8747,10.8669,11.027,11.1589,11.2555,11.4089,11.5425,11.6586,11.7268,11.7618,11.7618,11.7792,11.7684,11.736,11.7296,11.6907,11.6259,11.5871,11.5652,11.558,11.4706,11.4074,11.3606,11.0625,10.8536,10.7541,10.6222,10.4969,10.3848,10.2113,10.0777,9.9843,9.8769,9.7697,9.6485,9.7048,9.746,9.7862,9.9559,10.111,10.2253,10.4136,10.575,10.6828,10.9197,11.1164,11.2313,11.3466,11.3661,11.2624,11.0841,11.0087,11.1038,11.1644,11.2042,11.242,11.3491,11.4281,11.4698,11.4645,11.4988,11.5678,11.5153,11.4996,11.5395,11.5067,11.5011,11.5964,11.5751,11.6021,11.7262,11.7048,11.719,11.7547,11.8433,11.8776,11.8475,11.8102,11.8199,11.8653,11.8477,11.8552,11.8751,11.8805,11.8912,11.9177,11.923,11.923,11.923,11.923,11.923,11.923,11.923,11.923,11.923,11.9822,12.0382,12.1015,12.1515,12.1619,11.3049,11.2358,11.1675,11.1256,11.1159,11.1222,11.0878,11.0373,11.0561,11.0026,10.9053,10.913,10.9208,10.9337,11.0387,11.0628,11.0512,11.2704,11.3925,11.4418,11.6659,11.7912,11.8411,11.9257,11.9433,11.9109,11.9109,11.8721,11.8073,11.8008,11.7706,11.7144,11.656,11.675,11.7499,11.6147,11.5513,11.5307,11.2816,11.0869,10.965,10.8722,10.7596,10.6337,10.547,10.4526,10.3369,10.3118,10.2232,10.0855,10.2239,10.2794,10.2184,10.4515,10.6083,10.6422,10.7712,10.9268,11.063,11.3288,11.4927,11.5056,11.608,11.6694,11.6552,11.4341,11.296,11.3772,11.4038,11.4356,11.499,11.5781,11.6439,11.6731,11.651,11.666,11.7131,11.6306,11.5834,11.6405,11.5906,11.5635,11.6334,11.6405,11.6691,11.7619,11.839,11.8804,11.9147,11.9877,12.0119,11.9817,11.9155,11.8924,11.9632,11.9526,11.9274,11.922,11.9418,11.9525,11.9612,11.952,11.9375,11.9302,11.923,11.923,11.923,11.9335,11.9459,11.9677,12.0393,12.1161,12.167,12.2554,12.3145,11.6643,11.5639,11.4937,11.4441,11.3712,11.4203,11.4082,11.3414,11.2755,11.2402,11.2194,11.1032,11.1055,11.1843,11.2404,11.3018,11.3804,11.4661,11.5758,11.7068,11.7566,11.8605,12.0057,12.034,12.0728,12.1117,12.1182,12.0728,12.0081,12.0081,11.9933,11.9784,11.9654,11.9522,11.9295,11.8402,11.7532,11.6889,11.5111,11.3084,11.1107,10.9716,10.859,10.7795,10.6699,10.5606,10.4719,10.5409,10.5261,10.4004,10.5563,10.6741,10.7344,10.8552,10.9731,11.0686,11.1583,11.2538,11.3699,11.5617,11.6573,11.6354,11.7044,11.7589,11.7784,11.7273,11.6907,11.697,11.7224,11.7334,11.7979,11.8225,11.8528,11.8757,11.8307,11.8127,11.8288,11.7833,11.7333,11.7333,11.6762,11.6477,11.7119,11.6762,11.6976,11.8318,11.8904,11.9447,12.0077,12.0663,12.1232,12.1671,12.1365,12.0644,12.0393,12.0826,12.0735,12.0408,12.0842,12.0842,12.0534,12.0244,12.0099,11.9677,11.9407,11.9407,11.9439,11.9594,12.0119,12.06,12.1219,12.1667,12.1814,12.2668,12.318,11.8624,11.7793,11.6795,11.5761,11.4942,11.5641,11.5682,11.5051,11.4532,11.4938,11.5709,11.4843,11.3829,11.2808,11.3825,11.449,11.4915,11.6103,11.702,11.7783,11.8435,11.9322,12.0404,12.0534,12.0923,12.157,12.157,12.1441,12.1206,12.0994,12.0761,12.0543,12.0498,12.0624,12.0721,11.9902,11.9492,11.9409,11.752,11.589,11.4664,11.232,11.0644,10.9981,10.9658,10.9244,10.868,10.9401,10.9467,10.8464,10.999,11.0912,11.0957,11.2036,11.2874,11.3353,11.4454,11.541,11.6092,11.7531,11.8284,11.8069,11.9161,11.9697,11.9407,11.9919,12.0227,11.9858,11.8887,11.8455,11.8882,11.9123,11.9302,11.9538,11.9312,11.9157,11.9274,11.9046,11.8689,11.8261,11.7904,11.7619,11.7533,11.7361,11.7703,11.8761,11.9489,12.036,12.1078,12.1935,12.2535,12.2991,12.2885,12.2544,12.182,12.1513,12.1475,12.1258,12.133,12.1403,12.1311,12.1273,12.1088,12.0445,12.0527,12.0439,12.0202,12.0302,12.0669,12.1498,12.2718,12.348,12.392,12.436,12.4727,12.044,11.9722,11.8677,11.74,11.6236,11.7472,11.7653,11.7339,11.7059,11.7721,11.8685,11.8631,11.7156,11.533,11.6148,11.66,11.6934,11.8097,11.8798,11.8863,11.9669,12.0404,12.0987,12.0858,12.1311,12.2024,12.1959,12.1854,12.1773,12.1565,12.1217,12.1057,12.0992,12.1247,12.1603,12.0944,12.0863,12.1077,11.9419,11.8398,11.7783,11.5562,11.3469,11.2349,11.2517,11.23,11.1581,11.2808,11.3091,11.2074,11.389,11.4892,11.4748,11.5335,11.555,11.5481,11.6921,11.7879,11.8009,11.9109,11.9862,11.985,12.0797,12.1255,12.1088,12.1669,12.2244,12.2225,12.0562,11.9772,12.0001,12.0191,12.0238,12.0415,12.0331,12.0188,12.0117,12.0188,11.9831,11.9189,11.9189,11.9104,11.8504,11.8373,11.8813,11.9929,12.0744,12.1487,12.2319,12.3136,12.368,12.368,12.3901,12.3648,12.2924,12.2634,12.22,12.2036,12.2181,12.2433,12.2143,12.2335,12.2253,12.1781,12.201,12.1939,12.1745,12.1671,12.1959,12.289,12.4067,12.4926,12.5024,12.5465,12.5416,12.2499,12.1821,12.1046,11.9866,11.8862,12.0459,12.1002,12.0756,12.0724,12.0647,12.0816,12.1542,12.118,11.9837,11.9865,12.0139,12.0528,12.0978,12.1157,12.1157,12.1376,12.1829,12.2412,12.1894,12.2218,12.319,12.2891,12.2487,12.2281,12.2002,12.1799,12.1482,12.1501,12.1669,12.2022,12.1426,12.1276,12.1619,12.0821,12.0262,12.007,11.92,11.7314,11.5115,11.4579,11.3943,11.2947,11.4847,11.555,11.3917,11.6766,11.8459,11.8685,11.8229,11.7606,11.7235,11.8897,11.9798,11.945,12.0492,12.1246,12.1213,12.1331,12.1658,12.2085,12.2031,12.2489,12.3698,12.2518,12.1782,12.1913,12.177,12.1913,12.1972,12.1401,12.1044,12.1044,12.1116,12.0616,12.0117,12.0376,12.042,12.0149,11.9786,12.0479,12.1637,12.2269,12.2741,12.3756,12.4083,12.4083,12.4083,12.4065,12.3721,12.3069,12.3196,12.334,12.3177,12.3392,12.3934,12.3709,12.3429,12.3298,12.3184,12.3261,12.326,12.326,12.3574,12.4099,12.4783,12.5476,12.6046,12.5514,12.5121,12.5097,12.2983,12.2123,12.2616,12.1871,12.0865,12.2385,12.2817,12.239,12.2192,12.2781,12.3517,12.361,12.3632,12.3739,12.3739,12.2799,12.1366,12.1481,12.157,12.157,12.157,12.1959,12.2542,12.2348,12.2412,12.3021,12.3551,12.3828,12.3726,12.3264,12.2884,12.2498,12.212,12.2172,12.2437,12.2073,12.2105,12.2693,12.1863,12.1491,12.1873,12.1268,12.0483,11.9637,11.759,11.6288,11.5717,11.709,11.7596,11.7029,11.8818,11.9878,11.9882,11.968,11.96,11.9868,12.0343,12.0688,12.1033,12.1428,12.1753,12.1728,12.2101,12.2422,12.2661,12.2753,12.3219,12.385,12.3054,12.2472,12.2757,12.2543,12.2401,12.2829,12.2686,12.2615,12.3043,12.2829,12.2246,12.1694,12.1395,12.1016,12.1127,12.144,12.2398,12.3376,12.39,12.4588,12.5641,12.5641,12.535,12.535,12.5277,12.5059,12.4312,12.4099,12.4191,12.4152,12.4312,12.4626,12.4614,12.4873,12.4877,12.4675,12.469,12.4774,12.4792,12.5031,12.5673,12.5624,12.6319,12.6523,12.5855,12.5777,12.5586,12.342,12.2838,12.3857,12.368,12.3052,12.4358,12.4783,12.4386,12.453,12.5017,12.5686,12.5524,12.558,12.5817,12.6039,12.5068,12.3125,12.293,12.2866,12.2607,12.2607,12.2736,12.2866,12.2916,12.3006,12.3356,12.4284,12.4775,12.4729,12.4632,12.4178,12.365,12.3448,12.3361,12.3323,12.316,12.3337,12.3754,12.3271,12.3174,12.3388,12.2867,12.2538,12.2497,12.0447,11.8996,11.8769,11.9668,12.0182,12.0328,12.1397,12.1963,12.1756,12.1956,12.2014,12.1871,12.2001,12.2269,12.2681,12.2861,12.3034,12.2942,12.3379,12.3626,12.3749,12.3779,12.4256,12.4613,12.3899,12.3257,12.3757,12.3471,12.2971,12.3114,12.3257,12.3531,12.3805,12.365,12.3327,12.2874,12.2463,12.2218,12.2381,12.3392,12.4312,12.5,12.545,12.6232,12.7014,12.6888,12.6471,12.6471,12.6126,12.5834,12.5304,12.498,12.4729,12.4688,12.5009,12.5286,12.566,12.6101,12.6383,12.6235,12.6252,12.6293,12.6422,12.6614,12.6591,12.6357,12.6773,12.7145,12.6828,12.6718,12.6383,12.375,12.4025,12.5089,12.5494,12.5429,12.6423,12.7007,12.7191,12.7708,12.7319,12.7082,12.75,12.7111,12.6428,12.6946,12.6557,12.5975,12.578,12.5289,12.4576,12.4576,12.4188,12.376,12.3536,12.3804,12.4325,12.5279,12.5388,12.5121,12.588,12.5814,12.4988,12.5218,12.5133,12.4761,12.4604,12.4772,12.5085,12.5017,12.4986,12.4762,12.4073,12.3875,12.3738,12.2993,12.2217,12.1607,12.2515,12.2965,12.318,12.4449,12.5018,12.4386,12.4931,12.4781,12.3167,12.3865,12.4413,12.4322,12.4734,12.5042,12.4924,12.5048,12.5092,12.5408,12.4898,12.5041,12.6183,12.5327,12.4684,12.5184,12.4816,12.3888,12.2686,12.3245,12.3436,12.3314,12.3445,12.3749,12.3673,12.3829,12.4174,12.4588,12.5417,12.6264,12.6639,12.7026,12.7485,12.7935,12.7757,12.7379,12.718,12.7067,12.6754,12.6243,12.5732,12.5366,12.5199,12.561,12.6053,12.6341,12.6718,12.7129,12.7112,12.7329,12.7392,12.7308,12.7425,12.7457,12.7392,12.7777,12.7734,12.7353,12.7129,12.7129,12.5751,12.6341,12.7387,12.7526,12.7242,12.8104,12.8413,12.7933,12.7961,12.8052,12.8371,12.8565,12.863,12.876,12.9019,12.8954,12.8695,12.8459,12.7346,12.5617,12.5357,12.5148,12.4765,12.4617,12.4883,12.5213,12.5082,12.571,12.6697,12.6801,12.6777,12.7117,12.625,12.6024,12.6298,12.5278,12.5007,12.5625,12.5472,12.5412,12.559,12.5618,12.5556,12.5563,12.5462,12.5402,12.5664,12.4843,12.4578,12.4797,12.5714,12.5992,12.5562,12.5273,12.4848,12.4282,12.4393,12.4934,12.5332,12.5759,12.605,12.5866,12.5437,12.5784,12.6488,12.5448,12.5673,12.7111,12.5826,12.4888,12.5641,12.5331,12.4902,12.4973,12.4699,12.4806,12.5158,12.5433,12.5213,12.4914,12.5733,12.6524,12.6827,12.7548,12.8216,12.8268,12.8509,12.8854,12.9294,12.8949,12.8729,12.8583,12.829,12.7872,12.741,12.6955,12.6591,12.6373,12.6589,12.6671,12.6948,12.7308,12.7702,12.7916,12.82,12.8242,12.8159,12.8117,12.8075,12.8033,12.8033,12.7863,12.7572,12.7529,12.7572,12.7656,12.8321,12.9141,12.9458,12.9314,12.9858,12.9768,12.9316,12.9087,12.9213,12.9407,12.9407,12.9602,13.0086,13.0626,13.0845,13.0874,13.1162,13.0264,12.8198,12.6865,12.6407,12.6198,12.6047,12.6354,12.6809,12.6498,12.7399,12.926,12.9267,12.9577,12.9816,12.8869,12.835,12.8389,12.7238,12.682,12.7133,12.6775,12.6509,12.6611,12.6559,12.6643,12.6794,12.6742,12.731,12.7937,12.703,12.6544,12.6828,12.7389,12.7452,12.6884,12.6393,12.6105,12.6084,12.6058,12.6374,12.7102,12.752,12.7577,12.7566,12.7207,12.735,12.8068,12.717,12.7479,12.8266,12.7396,12.6454,12.7004,12.6561,12.6464,12.7059,12.6295,12.6196,12.6889,12.6836,12.6642,12.6495,12.7306,12.7914,12.8121,12.898,12.9575,12.9428,12.9575,12.9868,13.0309,13.0015,12.992,12.9626,12.9281,12.8914,12.8699,12.8263,12.7866,12.7661,12.769,12.7516,12.7485,12.7905,12.8242,12.8283,12.8406,12.8406,12.8365,12.8365,12.8324,12.8283,12.8242,12.82,12.8117,12.8117,12.8117,12.9341,12.985,13.0516,13.0915,13.1246,13.1216,13.1059,13.0995,13.0897,13.0508,13.0185,13.012,13.028,13.0662,13.1828,13.2478,13.2673,13.3602,13.3731,13.2198,13.0277,12.8772,12.8114,12.7782,12.8124,12.8722,12.8977,13.0001,13.1628,13.2286,13.3156,13.2649,13.2195,13.1943,13.1175,13.0184,12.9332,12.9338,12.8717,12.8175,12.7989,12.7441,12.7238,12.7593,12.7735,12.8225,12.9066,12.8926,12.8786,12.8926,12.9065,12.892,12.8429,12.8289,12.8065,12.7885,12.8222,12.8723,12.9421,12.9646,12.9828,12.9925,12.9793,13.0297,13.0081,12.9745,12.9613,13.0044,12.9314,12.887,12.8858,12.8342,12.8274,12.8517,12.768,12.7431,12.7804,12.7549,12.7545,12.7757,12.8426,12.8824,12.8496,12.9648,12.9868,12.9795,13.0015,13.036,13.0559,13.0537,13.0661,13.0441,13.005,12.9784,12.9541,12.9489,12.9053,12.8945,12.8914,12.8684,12.8215,12.8433,12.8447,12.8488,12.8528,12.8528,12.8528,12.8488,12.8488,12.8447,12.8488,12.8644,12.8528,12.8447,12.8365,13.0424,13.1014,13.1508,13.1606,13.1443,13.1285,13.1157,13.1091,13.0573,13.0638,13.0767,13.0832,13.1763,13.3261,13.357,13.4311,13.5203,13.5671,13.5686,13.5168,13.387,13.1569,12.9887,12.942,12.961,12.995,13.0758,13.1436,13.2467,13.3391,13.389,13.4533,13.3983,13.372,13.345,13.182,13.0829,13.0616,12.9993,12.9577,12.9521,12.9822,13.004,13.0182,13.0325,13.0607,13.0957,13.0466,12.9905,12.9344,12.9413,12.9131,12.8429,12.8631,12.8681,12.8642,12.9498,13.0136,13.0331,13.1041,13.141,13.0963,13.0859,13.0812,13.1389,13.0705,13.0585,13.0801,13.0561,13.0235,13.0281,12.9922,12.9783,12.9553,12.8879,12.8169,12.7822,12.8089,12.852,12.8646,12.9514,12.9817,12.9942,13.014,13.0434,13.0287,13.0463,13.0763,13.069,13.0791,13.0868,13.0992,13.087,13.0599,13.0425,13.0408,13.0375,13.0265,13.0189,13.0098,12.9463,12.8863,12.8794,12.8568,12.8568,12.8568,12.8568,12.8603,12.8644,12.8644,12.8644,12.8644,12.8644,12.8603,12.8488,13.1959,13.2254,13.2872,13.2709,13.2254,13.2095,13.1965,13.1834,13.1445,13.1637,13.2123,13.2218,13.3081,13.4629,13.5367,13.6275,13.7363,13.798,13.7982,13.7437,13.6249,13.4183,13.2173,13.1685,13.2156,13.2844,13.3259,13.451,13.5753,13.5937,13.6339,13.6807,13.5975,13.5556,13.5984,13.3849,13.2716,13.2722,13.2023,13.1468,13.1559,13.1647,13.2004,13.2077,13.215,13.1799,13.1729,13.1308,13.0606,12.9763,12.9482,12.934,12.9123,12.932,12.9573,12.9798,13.0986,13.1686,13.211,13.2671,13.2848,13.263,13.2237,13.2178,13.254,13.2277,13.2494,13.2408,13.2355,13.2109,13.1674,13.1292,13.1011,13.0607,13.0422,12.9837,12.8813,12.9263,12.9535,12.9786,13.0162,13.0684,13.0684,13.0786,13.0837,13.0814,13.0966,13.0795,13.0623,13.0772,13.0894,13.0965,13.0913,13.0462,13.0296,13.0406,13.0732,13.0831,13.063,13.0723,13.0161,12.929,12.9059,12.8869,12.8719,12.8678,12.8788,12.8788,12.8644,12.8644,12.8644,12.8644,12.8644,12.8904,12.8828,13.3358,13.3423,13.4169,13.4138,13.3619,13.3489,13.352,13.3257,13.2996,13.3122,13.3503,13.3757,13.4443,13.5367,13.6722,13.7955,13.8969,13.9826,13.9992,13.9278,13.8125,13.644,13.492,13.4497,13.5265,13.6329,13.6859,13.7933,13.8786,13.9039,13.928,13.887,13.7671,13.7456,13.7241,13.5733,13.5095,13.4823,13.3977,13.3502,13.3531,13.3476,13.3692,13.3975,13.3063,13.2361,13.2151,13.187,13.1308,12.9902,12.976,12.9966,13.0167,13.0569,13.1156,13.1925,13.2569,13.3347,13.4118,13.373,13.3862,13.4007,13.3717,13.3645,13.3572,13.3966,13.4155,13.3719,13.4324,13.3798,13.3013,13.2469,13.2033,13.1773,13.2279,13.2091,13.1116,13.0676,13.0602,13.0581,13.0786,13.0888,13.1039,13.1189,13.1264,13.1066,13.1092,13.0895,13.0746,13.0913,13.0779,13.0565,13.0404,13.0167,13.0147,13.0231,13.0765,13.1081,13.0793,13.0577,13.0244,12.9599,12.94,12.9169,12.8781,12.8808,12.9141,12.9033,12.8713,12.8759,12.8834,12.8759,12.8719,12.9238,12.9422,13.3617,13.4169,13.5148,13.547,13.5371,13.5134,13.5092,13.4989,13.3925,13.3757,13.3852,13.4443,13.5549,13.6812,13.7868,13.9139,14.013,14.0707,14.0537,14.0168,13.9949,13.9432,13.8408,13.7589,13.7465,13.8156,13.8872,13.9404,13.9792,13.9381,13.9046,13.921,13.8365,13.7945,13.7795,13.6789,13.6081,13.6017,13.5316,13.5123,13.5362,13.5661,13.5807,13.5663,13.4819,13.3836,13.2853,13.2642,13.2361,13.1795,13.1431,13.1351,13.1552,13.214,13.2847,13.343,13.4162,13.4456,13.4033,13.4296,13.4296,13.4007,13.3921,13.3645,13.3645,13.414,13.4256,13.408,13.4421,13.4591,13.4042,13.3567,13.3237,13.3032,13.3412,13.3319,13.185,13.141,13.1293,13.0933,13.0888,13.0989,13.1239,13.1264,13.1313,13.124,13.1116,13.0965,13.0981,13.1114,13.0987,13.0732,13.0843,13.0746,13.0623,13.0833,13.125,13.14,13.0953,13.0648,13.024,12.9484,12.9129,12.8849,12.8566,12.8823,12.9282,12.8991,12.8631,12.8828,12.9099,12.9054,12.9122,12.9606,12.9599,13.5538,13.6415,13.7225,13.7446,13.7051,13.6392,13.6335,13.6244,13.5304,13.5157,13.5707,13.6275,13.7166,13.8283,13.8884,13.9644,14.0625,14.1033,14.0906,14.0641,14.0652,14.0813,14.0743,13.9996,13.9708,13.9949,14.0576,14.0681,14.0272,13.9722,13.9318,13.89,13.8202,13.8063,13.8202,13.7423,13.7144,13.708,13.6807,13.6682,13.6996,13.7288,13.6938,13.6443,13.5949,13.5316,13.3908,13.3697,13.3485,13.3263,13.3308,13.3427,13.3285,13.3785,13.4283,13.5088,13.525,13.5649,13.5323,13.4876,13.479,13.4836,13.4314,13.3937,13.4183,13.4558,13.4729,13.4696,13.5103,13.5579,13.5247,13.503,13.4664,13.488,13.5301,13.484,13.3036,13.2426,13.2037,13.1307,13.1066,13.1264,13.1411,13.1583,13.168,13.1776,13.1702,13.1474,13.1297,13.1345,13.1367,13.1332,13.162,13.1595,13.1337,13.1454,13.2021,13.1793,13.1187,13.0914,13.0487,12.9538,12.8624,12.865,12.8832,12.8982,12.9291,12.8924,12.8815,12.9238,12.9388,12.9456,12.9482,12.9623,12.9464,13.7584,13.8669,13.9455,13.9322,13.8498,13.7609,13.7437,13.7525,13.6676,13.6789,13.7848,13.8109,13.8541,13.9223,13.956,14.013,14.0788,14.1195,14.1137,14.1206,14.1217,14.1378,14.1378,14.1309,14.1159,14.1447,14.1855,14.1665,14.0977,14.0512,13.9751,13.8747,13.805,13.7987,13.8259,13.7973,13.7638,13.7795,13.7876,13.8038,13.8205,13.835,13.7787,13.6799,13.6657,13.6093,13.4893,13.461,13.4537,13.4451,13.5247,13.5717,13.5839,13.5441,13.5664,13.6694,13.6433,13.6192,13.618,13.566,13.5475,13.6305,13.5186,13.4501,13.4802,13.5173,13.5194,13.536,13.5524,13.6182,13.6402,13.5872,13.5891,13.6274,13.7117,13.647,13.4569,13.3789,13.3375,13.1508,13.1387,13.1583,13.185,13.202,13.2236,13.233,13.2228,13.2145,13.1912,13.1815,13.1932,13.2082,13.2359,13.2704,13.2475,13.2436,13.289,13.2629,13.1873,13.134,13.0949,12.9966,12.925,12.9231,12.9299,12.9374,12.9374,12.919,12.9231,12.9573,12.9689,12.9538,12.9557,12.956,12.9336,13.7847,13.9426,14.0406,14.0099,13.9246,13.9519,13.9139,13.831,13.7923,13.7761,13.8109,13.8798,13.9223,13.956,14.0295,14.087,14.1056,14.1367,14.1597,14.1597,14.1597,14.1597,14.1756,14.1836,14.1756,14.1756,14.2152,14.1969,14.0968,14.0512,13.996,13.9122,13.8493,13.8208,13.8208,13.8005,13.8074,13.823,13.8529,13.8901,13.9126,13.9486,13.9059,13.7711,13.7503,13.6584,13.5523,13.5167,13.5302,13.5767,13.6295,13.7531,13.8203,13.7489,13.7312,13.7796,13.7423,13.6977,13.6614,13.6273,13.6101,13.6204,13.5796,13.5458,13.5425,13.5285,13.5287,13.5195,13.5359,13.5668,13.5594,13.5706,13.5614,13.6089,13.7058,13.7366,13.6051,13.5793,13.5233,13.2693,13.2198,13.1972,13.2189,13.2479,13.2768,13.2907,13.2804,13.309,13.3254,13.3079,13.2966,13.3074,13.3157,13.3523,13.3763,13.3729,13.3846,13.3599,13.3,13.2209,13.1571,13.0664,13.0134,12.9978,12.9701,12.9422,12.9347,12.9381,12.9531,12.9798,12.9764,12.9579,12.9632,12.9603,12.9389,13.9859,14.1123,14.1582,14.1361,14.0711,14.0327,14.02,13.9801,13.9053,13.8969,13.9476,13.9963,14.013,14.0158,14.0061,14.0399,14.063,14.1458,14.1597,14.1517,14.1436,14.1447,14.1756,14.1756,14.1756,14.1915,14.2388,14.2039,14.0724,14.069,14.0225,13.9667,13.9109,13.883,13.8627,13.8982,13.8935,13.8809,13.9179,13.9691,13.9911,14.0404,13.9689,13.8556,13.7849,13.7068,13.6067,13.5712,13.6047,13.6706,13.7093,13.8194,13.887,13.911,13.886,13.9584,13.8932,13.8208,13.7617,13.7422,13.7077,13.7165,13.6812,13.6381,13.6183,13.5983,13.5598,13.5359,13.534,13.5594,13.6035,13.5961,13.6236,13.6985,13.8029,13.7799,13.7026,13.7355,13.5951,13.4022,13.37,13.3276,13.2405,13.2768,13.3176,13.3388,13.3449,13.3777,13.4297,13.4192,13.3923,13.4063,13.4061,13.4232,13.4542,13.4576,13.4576,13.4296,13.3928,13.3251,13.2421,13.1524,13.0997,13.0697,13.0287,12.9713,13.007,13.033,13.0173,12.994,12.989,12.9806,12.9614,12.9539,12.9324,14.1289,14.2263,14.2217,14.1854,14.1285,14.0763,14.0536,14.0618,14.0002,14.0047,14.0707,14.0788,14.0707,14.065,14.0387,14.0123,14.0123,14.1468,14.1597,14.1356,14.1356,14.1517,14.1677,14.1687,14.1915,14.2231,14.2466,14.1891,14.0872,14.0977,14.0706,14.0225,14.0009,13.9807,13.9617,14.0281,14.0015,14.0104,14.0544,14.0975,14.097,14.082,14.0178,13.8619,13.8334,13.7758,13.6746,13.6384,13.6641,13.7157,13.7609,13.8158,13.8995,13.9327,14.0164,14.1178,14.0381,13.9874,13.9211,13.8848,13.8345,13.8228,13.79,13.7448,13.7174,13.6935,13.6549,13.5815,13.5668,13.5795,13.6216,13.651,13.6965,13.7493,13.8315,13.8768,13.7674,13.7334,13.7261,13.6023,13.5451,13.4782,13.4161,13.3669,13.4225,13.4494,13.4584,13.4178,13.4664,13.4777,13.4733,13.5011,13.5113,13.5091,13.5219,13.5319,13.5176,13.4965,13.4669,13.4033,13.3349,13.2554,13.2029,13.1469,13.0605,13.0207,13.0737,13.0897,13.0439,13.0082,12.9997,12.9879,12.9646,12.9365,12.9149,14.0001,14.0913,14.0686,13.9943,13.9402,14.0503,14.0534,13.9766,14.0364,14.0625,14.0788,14.0788,14.0788,14.0801,14.1056,14.1148,14.1228,14.1458,14.1826,14.1895,14.1735,14.1975,14.2458,14.2544,14.2606,14.2762,14.277,14.1969,14.1333,14.1658,14.1461,14.0742,14.0977,14.0928,14.1077,14.1804,14.2035,14.2324,14.2957,14.3017,14.2299,14.1522,14.0668,13.974,13.9089,13.8573,13.7702,13.7129,13.7165,13.7672,13.7546,13.8095,13.9182,13.945,13.9946,14.0526,14.0598,14.0236,13.9852,13.9695,13.9541,13.9132,13.8874,13.8787,13.8292,13.7759,13.7171,13.6549,13.6383,13.627,13.6282,13.663,13.6714,13.7366,13.8385,13.8488,13.7927,13.7929,13.7805,13.7185,13.6343,13.6491,13.6194,13.5653,13.5227,13.5451,13.5541,13.5208,13.4824,13.4969,13.5121,13.5235,13.5336,13.5277,13.5337,13.5547,13.5514,13.5414,13.5151,13.4703,13.3899,13.3138,13.2724,13.2014,13.111,13.06,13.0966,13.0957,13.0446,13.0231,13.0202,12.987,12.9548,12.9299,12.9054,13.9857,14.1494,14.1333,14.0869,14.0195,14.0892,14.0816,14.0433,14.0625,14.0788,14.0788,14.0788,14.0663,14.078,14.1319,14.1478,14.1349,14.1786,14.2352,14.263,14.2541,14.2988,14.3662,14.3609,14.3477,14.3506,14.3379,14.297,14.2397,14.2161,14.2161,14.211,14.2343,14.2497,14.2446,14.3312,14.3389,14.3386,14.3655,14.3637,14.2856,14.2287,14.1504,14.0152,13.9697,13.9104,13.8579,13.778,13.7825,13.848,13.8634,13.9058,14.003,14.0598,14.1105,14.1323,14.2089,14.1716,14.0749,14.0529,14.0241,13.9816,13.9499,13.932,13.875,13.8029,13.7325,13.6441,13.6367,13.6472,13.6671,13.7018,13.7469,13.797,13.8766,13.8496,13.8448,13.877,13.8646,13.7977,13.7357,13.7379,13.7326,13.6715,13.596,13.5794,13.5988,13.5895,13.5307,13.4899,13.5003,13.5108,13.5173,13.5277,13.5304,13.5447,13.5414,13.538,13.527,13.4813,13.4228,13.3543,13.291,13.2006,13.095,13.0751,13.1115,13.1002,13.0602,13.0431,13.0255,12.9932,12.9648,12.9484,12.9454,14.0316,14.183,14.1539,14.1134,14.0786,14.1037,14.1011,14.0857,14.087,14.0951,14.0951,14.1033,14.0998,14.1031,14.1697,14.1855,14.1656,14.2388,14.2946,14.3355,14.3704,14.4151,14.4472,14.4418,14.4151,14.4252,14.3704,14.3148,14.2788,14.2774,14.2905,14.3056,14.3144,14.3367,14.359,14.4384,14.4954,14.4928,14.484,14.4404,14.3551,14.3259,14.2192,14.1186,14.0312,13.9915,13.924,13.8519,13.8634,13.9171,13.9428,13.9852,14.0834,14.1513,14.1852,14.2204,14.2834,14.2954,14.2138,14.1731,14.0986,14.0631,14.0384,14.0275,13.9294,13.8377,13.7794,13.7225,13.6884,13.7157,13.7503,13.785,13.8322,13.8867,13.9561,13.9067,13.8695,13.8718,13.8592,13.8018,13.7591,13.7759,13.7629,13.7319,13.6753,13.627,13.6282,13.6475,13.5961,13.5135,13.5118,13.5255,13.5243,13.5277,13.5236,13.527,13.5346,13.5429,13.5353,13.5243,13.4745,13.3713,13.2657,13.171,13.0798,13.06,13.0812,13.0851,13.0758,13.0064,12.9599,12.9839,12.9666,12.9644,13.0095,14.1322,14.1129,14.0092,13.9666,13.9697,14.0447,14.0776,14.0788,14.1195,14.1287,14.1436,14.1746,14.2093,14.2371,14.2412,14.271,14.3127,14.3118,14.3653,14.4168,14.4518,14.4916,14.509,14.4826,14.4418,14.3656,14.352,14.3095,14.2672,14.3239,14.2881,14.2458,14.3524,14.3669,14.4172,14.5239,14.6432,14.6466,14.6305,14.5589,14.4736,14.3956,14.296,14.2096,14.1428,14.0963,14.017,13.9294,13.913,13.9584,13.9817,14.064,14.1681,14.2243,14.2623,14.2827,14.3251,14.3571,14.3319,14.287,14.2549,14.2064,14.1579,14.117,14.0498,14.0168,13.953,13.852,13.783,13.7977,13.8446,13.8941,13.9264,13.976,13.9983,13.9436,13.8863,13.8214,13.8132,13.7824,13.7888,13.7979,13.807,13.7785,13.7516,13.6988,13.6407,13.6482,13.6297,13.5632,13.5465,13.5448,13.536,13.5353,13.5236,13.5353,13.5623,13.5782,13.5934,13.5828,13.5604,13.4238,13.2713,13.176,13.1,13.0722,13.0431,13.0437,13.0172,12.929,12.9019,12.9713,13.0438,13.0694,13.1242,14.0671,14.116,14.0488,14.0295,14.0295,14.0951,14.1033,14.0951,14.1517,14.1836,14.1905,14.2242,14.2819,14.3267,14.3923,14.4159,14.4674,14.5056,14.5141,14.5365,14.5883,14.5829,14.5635,14.4858,14.4224,14.3522,14.3457,14.3317,14.2749,14.3674,14.3743,14.3743,14.4243,14.4671,14.531,14.5872,14.6841,14.7309,14.7218,14.6712,14.5865,14.5497,14.4645,14.3215,14.268,14.1786,14.0629,13.9761,13.975,14.007,14.0204,14.1363,14.2622,14.3147,14.336,14.3473,14.3953,14.4194,14.4121,14.3659,14.2811,14.2206,14.1532,14.1233,14.1485,14.0776,13.9857,13.9108,13.8363,13.8281,13.94,13.9773,14.0071,14.0567,14.0417,13.9773,13.9196,13.8514,13.8129,13.816,13.8174,13.8307,13.8276,13.8319,13.8007,13.7738,13.7111,13.6512,13.6406,13.6329,13.6184,13.5988,13.5939,13.5477,13.5436,13.5629,13.5939,13.6167,13.6435,13.6359,13.606,13.4474,13.3028,13.2077,13.1152,13.0669,13.0337,13.0156,12.9792,12.9266,12.9532,13.0246,13.0874,13.149,13.203,14.0321,14.1066,14.0995,14.087,14.087,14.1275,14.1275,14.1195,14.1915,14.244,14.2649,14.3048,14.3694,14.4518,14.4884,14.5251,14.5555,14.6005,14.5883,14.5894,14.5904,14.5926,14.5437,14.5017,14.4591,14.3814,14.4029,14.403,14.3033,14.4447,14.4654,14.4867,14.5437,14.58,14.5729,14.6429,14.7115,14.7448,14.7573,14.7415,14.643,14.6344,14.6104,14.4463,14.3921,14.3167,14.2129,14.1319,14.0943,14.1171,14.1526,14.2388,14.3425,14.4298,14.4415,14.4656,14.4895,14.5058,14.4836,14.4397,14.3659,14.3359,14.2893,14.2533,14.1966,14.1313,14.0532,13.9607,13.8727,13.8519,13.9895,13.9924,14.0176,14.0476,14.0251,13.9728,13.9388,13.8849,13.8651,13.8525,13.8611,13.8663,13.8747,13.8823,13.8578,13.8385,13.8117,13.7591,13.7366,13.7163,13.7017,13.6788,13.6595,13.606,13.5676,13.6202,13.684,13.6916,13.7033,13.6916,13.639,13.4845,13.3519,13.2478,13.1592,13.0712,13.0451,13.0384,13.0075,12.9567,12.9861,13.0103,13.073,13.1301,13.2016,14.0776,14.0857,14.1195,14.1114,14.087,14.1275,14.1436,14.1436,14.2231,14.2971,14.3539,14.4052,14.4823,14.5593,14.5469,14.5703,14.5991,14.649,14.6088,14.5269,14.5772,14.5363,14.495,14.474,14.4599,14.3957,14.4383,14.4525,14.3455,14.4723,14.5212,14.5842,14.662,14.6692,14.5842,14.6682,14.7442,14.7777,14.7842,14.7407,14.6836,14.6755,14.6514,14.5843,14.5097,14.4411,14.3369,14.2795,14.2344,14.2082,14.2388,14.3219,14.4287,14.4904,14.537,14.6068,14.6551,14.6779,14.6905,14.6175,14.5327,14.465,14.3949,14.3876,14.3379,14.2372,14.1201,14.0227,13.9163,13.892,13.9326,13.9612,14.0047,14.0347,14.0122,13.9837,13.9564,13.9255,13.8973,13.9023,13.9147,13.9194,13.9275,13.935,13.9065,13.8948,13.8914,13.8701,13.8297,13.819,13.8153,13.7772,13.7463,13.7115,13.684,13.729,13.7629,13.7706,13.7816,13.7664,13.7207,13.6003,13.4593,13.3138,13.2248,13.1627,13.1158,13.0732,13.055,13.0316,12.959,12.9713,13.0408,13.1176,13.1958,14.0788,14.0788,14.0951,14.1114,14.1275,14.1994,14.1994,14.1597,14.2073,14.2762,14.3499,14.392,14.441,14.4908,14.5555,14.5928,14.6651,14.6939,14.6323,14.5578,14.5862,14.4953,14.4315,14.4029,14.4028,14.3881,14.4521,14.5232,14.4517,14.5208,14.6409,14.7393,14.7448,14.7303,14.6816,14.681,14.6587,14.6791,14.7277,14.7552,14.69,14.7311,14.7504,14.6894,14.6281,14.5519,14.4533,14.4013,14.3456,14.3058,14.3274,14.3506,14.4353,14.4925,14.5064,14.5538,14.5889,14.6212,14.5889,14.5391,14.5267,14.497,14.4621,14.4518,14.4411,14.2445,14.1382,14.0602,13.952,13.9308,13.9489,13.9595,14.0046,14.0672,14.0608,14.0243,13.9886,13.949,13.9275,13.9506,13.9661,14.0614,14.1033,14.0465,14.0006,13.9815,13.9742,13.9707,13.9365,13.9401,13.9431,13.8899,13.8514,13.8162,13.8003,13.8072,13.8292,13.8435,13.8554,13.8597,13.7877,13.6962,13.5733,13.4229,13.3421,13.2644,13.2355,13.1988,13.1545,13.1102,13.0552,13.0444,13.1224,13.1788,13.2224,14.1033,14.1033,14.1356,14.1517,14.1756,14.2231,14.217,14.1804,14.1969,14.2435,14.2952,14.3429,14.4067,14.4502,14.5,14.5218,14.6018,14.6458,14.5344,14.4879,14.5237,14.3959,14.3101,14.3312,14.374,14.388,14.466,14.5368,14.4938,14.5401,14.6305,14.7297,14.8146,14.8066,14.7429,14.6705,14.5924,14.6271,14.6763,14.74,14.7529,14.8148,14.8766,14.8424,14.8002,14.7233,14.6152,14.5358,14.4575,14.4212,14.3954,14.3646,14.4323,14.451,14.4496,14.487,14.5267,14.5612,14.5506,14.5029,14.4982,14.488,14.4347,14.4572,14.4918,14.3332,14.2222,14.1335,13.9983,13.9833,13.9983,14.0102,14.0458,14.1081,14.11,14.0772,14.082,14.0417,14.0384,14.0614,14.0882,14.1869,14.2511,14.1788,14.1106,14.0878,14.0611,14.0491,14.0334,14.0294,14.0212,13.9755,13.9222,13.8681,13.8554,13.8545,13.8797,13.9124,13.9092,13.895,13.871,13.7793,13.6558,13.5429,13.4572,13.3897,13.3679,13.3354,13.2731,13.2319,13.1983,13.206,13.2319,13.2664,13.2987,14.1367,14.1527,14.231,14.2318,14.2152,14.2022,14.2063,14.2192,14.2192,14.2192,14.2262,14.3105,14.3666,14.4228,14.4368,14.4164,14.3959,14.4685,14.3865,14.2816,14.3673,14.2677,14.2745,14.3312,14.3739,14.4235,14.4872,14.5502,14.5075,14.5679,14.6351,14.7053,14.8269,14.8464,14.7875,14.6795,14.595,14.624,14.682,14.7448,14.7922,14.8849,14.957,14.9635,14.947,14.9044,14.8359,14.7663,14.6793,14.627,14.5667,14.5081,14.4715,14.4621,14.4721,14.4994,14.5533,14.5592,14.5628,14.5103,14.4594,14.4653,14.5536,14.5368,14.4711,14.3843,14.2776,14.1993,14.1091,14.0897,14.0897,14.1028,14.1232,14.1519,14.1726,14.1697,14.1894,14.1862,14.1904,14.2134,14.2362,14.2815,14.315,14.2766,14.2339,14.2291,14.1986,14.1563,14.1292,14.051,14.0468,14.0316,13.974,13.9232,13.9069,13.9124,13.9297,13.9622,13.9055,13.8794,13.8704,13.8383,13.7143,13.6054,13.5558,13.5107,13.4549,13.4138,13.3698,13.344,13.3286,13.3133,13.3258,13.3705,13.4045,14.1367,14.1447,14.1682,14.1784,14.1714,14.1759,14.1916,14.2197,14.2493,14.2493,14.2192,14.2964,14.3034,14.2894,14.2824,14.3116,14.3413,14.3638,14.3942,14.3598,14.3176,14.3247,14.3386,14.3455,14.3951,14.4514,14.5075,14.5415,14.5396,14.5924,14.6973,14.802,14.8593,14.8712,14.832,14.7082,14.6894,14.6841,14.7567,14.783,14.8227,14.9132,14.9903,15.0308,15.0217,14.9914,14.9418,14.8437,14.7508,14.7192,14.6143,14.5459,14.5639,14.5591,14.5765,14.6804,14.6464,14.5795,14.5766,14.509,14.4384,14.4218,14.479,14.506,14.4429,14.366,14.2845,14.2468,14.2017,14.1791,14.1683,14.1844,14.2122,14.2481,14.261,14.2615,14.2734,14.2891,14.2931,14.346,14.3683,14.4208,14.435,14.3927,14.3573,14.3589,14.3382,14.277,14.2279,14.1612,14.124,14.1087,14.0204,13.9691,13.9603,13.9622,13.9869,13.9961,13.9287,13.8674,13.8459,13.8059,13.7303,13.6747,13.6217,13.5762,13.5228,13.4944,13.4835,13.4682,13.4451,13.427,13.4298,13.4714,13.5024,14.1677,14.1697,14.1938,14.183,14.1555,14.173,14.1734,14.1649,14.2083,14.2079,14.1644,14.2127,14.1981,14.1349,14.1354,14.1644,14.2368,14.266,14.2743,14.2395,14.3034,14.2889,14.2957,14.3167,14.3306,14.4007,14.4418,14.4465,14.4999,14.6104,14.7213,14.7413,14.8412,14.932,14.9424,14.9121,14.8778,14.857,14.8435,14.8402,14.8794,14.9464,15.0367,15.0833,15.0731,15.0473,14.9844,14.8728,14.8188,14.7797,14.6596,14.6058,14.5989,14.5689,14.5975,14.6667,14.5872,14.5479,14.5328,14.4744,14.4199,14.3942,14.3898,14.4093,14.4287,14.3921,14.3512,14.3253,14.2833,14.2532,14.2541,14.2625,14.3168,14.3593,14.3487,14.3455,14.3497,14.3652,14.4068,14.4625,14.5182,14.5779,14.5694,14.5117,14.4682,14.4462,14.4174,14.3562,14.3255,14.2886,14.2593,14.2516,14.1215,14.0098,14.016,14.0114,13.9792,13.9669,13.9209,13.8595,13.8329,13.8003,13.7599,13.7299,13.6947,13.6462,13.5923,13.6204,13.6151,13.5843,13.5512,13.5488,13.5385,13.5615,13.5898,14.2152,14.21,14.2483,14.2086,14.174,14.189,14.1606,14.0749,14.1666,14.1381,14.0885,14.0937,14.0858,14.0726,14.0515,14.0526,14.1175,14.1607,14.1826,14.0688,14.2105,14.2527,14.2382,14.2022,14.2864,14.2996,14.3259,14.4074,14.4334,14.5434,14.654,14.6385,14.9101,15.0436,15.0379,15.0514,15.0087,14.9648,14.9196,14.8878,14.9704,15.072,15.1702,15.2009,15.188,15.1619,15.0501,14.9642,14.8825,14.8112,14.7398,14.6732,14.6359,14.5592,14.5992,14.5912,14.5515,14.5138,14.5138,14.475,14.4351,14.3898,14.3328,14.3799,14.4184,14.4025,14.3723,14.3882,14.358,14.358,14.3546,14.3587,14.3895,14.4168,14.4213,14.4446,14.4791,14.5283,14.6027,14.6458,14.6823,14.7229,14.6835,14.6255,14.5751,14.5372,14.482,14.4283,14.4344,14.4084,14.3793,14.3609,14.1968,14.0788,14.1109,14.0832,13.9681,13.925,13.9097,13.9001,13.9038,13.8528,13.8046,13.7716,13.7385,13.7053,13.6745,13.6822,13.6694,13.6411,13.623,13.6458,13.6511,13.6514,13.6565,14.235,14.2034,14.1666,14.1469,14.1542,14.1399,14.2037,14.3032,14.2883,14.231,14.1452,14.1152,14.1082,14.1022,14.0459,14.0467,14.0829,14.1116,14.1471,14.1539,14.2101,14.2517,14.2796,14.2709,14.3048,14.3445,14.3771,14.4084,14.4483,14.5523,14.6926,14.8318,14.9891,15.0221,15.0904,15.0904,15.0524,15.0244,14.991,14.947,14.9896,15.0264,15.089,15.1398,15.16,15.1338,15.0385,14.9642,14.8825,14.806,14.7449,14.7381,14.7663,14.6714,14.6677,14.7001,14.5837,14.5233,14.5048,14.5015,14.4803,14.4541,14.4203,14.444,14.444,14.4012,14.393,14.4314,14.4547,14.4547,14.4547,14.4547,14.4547,14.4667,14.4862,14.5475,14.6083,14.7054,14.7894,14.8213,14.8497,14.8286,14.7889,14.7383,14.6953,14.6293,14.5555,14.5231,14.5549,14.5549,14.474,14.4144,14.2366,14.1522,14.1994,14.1362,14.0162,13.9834,13.9862,13.9764,13.9665,13.9027,13.8361,13.8181,13.7873,13.749,13.7182,13.6951,13.6872,13.6738,13.6786,13.6887,13.6988,13.6941,13.7071,14.2161,14.2057,14.1672,14.1542,14.1684,14.2252,14.3034,14.3603,14.3959,14.3674,14.3033,14.2454,14.1878,14.1533,14.0897,14.0689,14.0904,14.1114,14.1463,14.1813,14.2234,14.2431,14.2838,14.3032,14.3143,14.3458,14.3902,14.4276,14.4618,14.5519,14.6845,14.8404,14.9037,15.0024,15.0938,15.0644,15.035,15.0424,15.0294,15.0014,14.9896,15.0307,15.0709,15.1158,15.1175,15.0893,15.0088,14.9345,14.8707,14.8096,14.768,14.8207,14.8188,14.7379,14.7096,14.692,14.6129,14.5105,14.5146,14.5193,14.5241,14.5016,14.4789,14.4866,14.4981,14.4522,14.4284,14.4667,14.5197,14.5349,14.497,14.4894,14.4819,14.4898,14.5589,14.6347,14.7395,14.8496,14.9206,14.9547,14.9608,14.9408,14.8824,14.8055,14.7547,14.6779,14.6116,14.5962,14.6356,14.6413,14.5761,14.4905,14.3205,14.2696,14.3244,14.2147,14.0456,14.0357,14.0412,14.0388,14.0107,13.9338,13.8748,13.8825,13.8517,13.7719,13.7461,13.7331,13.7249,13.7112,13.7135,13.7312,13.7335,13.738,13.7425,14.183,14.2286,14.21,14.2039,14.2179,14.3672,14.4167,14.3949,14.4657,14.5153,14.5084,14.4172,14.2891,14.1755,14.14,14.1045,14.1253,14.2168,14.2299,14.2283,14.2766,14.275,14.2725,14.2768,14.336,14.3737,14.4036,14.4146,14.4207,14.5397,14.6661,14.7439,14.8777,15.0337,15.0864,15.0998,15.0777,15.0497,15.0263,14.9969,15.0147,15.0423,15.0766,15.1046,15.1065,15.0488,14.961,14.9079,14.8514,14.8102,14.7921,14.8595,14.8511,14.7827,14.7347,14.6939,14.5803,14.5086,14.4901,14.5057,14.5285,14.5285,14.5209,14.5133,14.532,14.5171,14.4942,14.5092,14.5623,14.5659,14.5356,14.551,14.5434,14.5627,14.6536,14.743,14.8683,14.9806,15.0253,15.0692,15.0385,15.0154,14.9308,14.8567,14.7952,14.7182,14.6798,14.6875,14.6798,14.649,14.6049,14.5405,14.4377,14.4203,14.4308,14.2874,14.0923,14.0542,14.0569,14.0622,14.052,13.9903,13.9644,13.9848,13.9409,13.8739,13.8169,13.7907,13.7721,13.7502,13.7512,13.7554,13.7498,13.756,13.7678,14.2171,14.3034,14.211,14.246,14.3788,14.4376,14.4731,14.5212,14.5652,14.6151,14.6141,14.6141,14.5081,14.3234,14.3375,14.2943,14.2363,14.3206,14.3274,14.3187,14.3098,14.2992,14.3097,14.3404,14.4483,14.4778,14.4533,14.4194,14.474,14.6075,14.722,14.8085,14.9353,15.0441,15.0851,15.0763,15.0441,15.0249,15.013,14.991,15.0029,15.0249,15.0538,15.0822,15.1102,15.0285,14.9664,14.9481,14.8543,14.7978,14.8132,14.8788,14.865,14.8035,14.7359,14.6793,14.562,14.5283,14.5171,14.5361,14.5586,14.6368,14.6215,14.5839,14.5763,14.5507,14.5359,14.5322,14.5665,14.5513,14.5437,14.6311,14.6538,14.7139,14.7917,14.8802,14.9851,15.053,15.1095,15.0846,15.0462,14.9721,14.8721,14.8106,14.7875,14.7182,14.649,14.649,14.6798,14.6567,14.6259,14.572,14.5105,14.472,14.4336,14.3132,14.162,14.1134,14.0674,14.0442,14.044,14.0696,14.0591,14.0788,14.0479,13.9938,13.9366,13.8727,13.8271,13.8065,13.7834,13.7737,13.7737,13.7737,13.7833]}]]